Wetterdaten: Dienstag, 30.05.2023
Datum Zeit Temp. I. Temp. A. Feuchte I. Feuchte A. Luftdruck Regen Wind Richtung Richtung Sonnenschein Solar Taupunkt Windchill Windböen
30.05.2023 00:00 20,5 °C 10,9 °C 57 % 66 % 1022,6 hPa 0,0 l/m² 0,0 km/h (0 Bft) N-NW 337 ° 0 min 0 W/m² 4,8 °C 10,9 °C 3,2 km/h (1 Bft)
30.05.2023 00:01 20,5 °C 10,6 °C 57 % 67 % 1022,5 hPa 0,0 l/m² 1,6 km/h (1 Bft) N-NW 337 ° 0 min 0 W/m² 4,7 °C 10,6 °C 6,4 km/h (2 Bft)
30.05.2023 00:02 20,5 °C 10,2 °C 57 % 70 % 1022,6 hPa 0,0 l/m² 0,0 km/h (0 Bft) N 0 ° 0 min 0 W/m² 5,0 °C 10,2 °C 0,0 km/h (0 Bft)
30.05.2023 00:03 20,5 °C 9,8 °C 56 % 71 % 1022,6 hPa 0,0 l/m² 0,0 km/h (0 Bft) N 360 ° 0 min 0 W/m² 4,8 °C 9,8 °C 3,2 km/h (1 Bft)
30.05.2023 00:04 20,5 °C 9,6 °C 57 % 72 % 1022,6 hPa 0,0 l/m² 0,0 km/h (0 Bft) N 360 ° 0 min 0 W/m² 4,8 °C 9,6 °C 1,6 km/h (1 Bft)
30.05.2023 00:05 20,5 °C 9,3 °C 57 % 73 % 1022,5 hPa 0,0 l/m² 0,0 km/h (0 Bft) N 360 ° 0 min 0 W/m² 4,7 °C 9,3 °C 1,6 km/h (1 Bft)
30.05.2023 00:06 20,4 °C 9,2 °C 57 % 73 % 1022,6 hPa 0,0 l/m² 0,0 km/h (0 Bft) N 0 ° 0 min 0 W/m² 4,6 °C 9,2 °C 0,0 km/h (0 Bft)
30.05.2023 00:07 20,4 °C 9,1 °C 57 % 74 % 1022,7 hPa 0,0 l/m² 0,0 km/h (0 Bft) N 360 ° 0 min 0 W/m² 4,7 °C 9,1 °C 1,6 km/h (1 Bft)
30.05.2023 00:08 20,5 °C 8,9 °C 57 % 74 % 1022,7 hPa 0,0 l/m² 0,0 km/h (0 Bft) N 0 ° 0 min 0 W/m² 4,5 °C 8,9 °C 0,0 km/h (0 Bft)
30.05.2023 00:09 20,4 °C 8,8 °C 57 % 75 % 1022,7 hPa 0,0 l/m² 0,0 km/h (0 Bft) N 360 ° 0 min 0 W/m² 4,6 °C 8,8 °C 3,2 km/h (1 Bft)
30.05.2023 00:10 20,4 °C 8,8 °C 57 % 75 % 1022,7 hPa 0,0 l/m² 0,0 km/h (0 Bft) N 0 ° 0 min 0 W/m² 4,6 °C 8,8 °C 0,0 km/h (0 Bft)
30.05.2023 00:11 20,4 °C 8,8 °C 57 % 76 % 1022,8 hPa 0,0 l/m² 3,2 km/h (1 Bft) NW 315 ° 0 min 0 W/m² 4,8 °C 8,8 °C 6,4 km/h (2 Bft)
30.05.2023 00:12 20,4 °C 8,8 °C 57 % 76 % 1022,8 hPa 0,0 l/m² 3,2 km/h (1 Bft) NW 315 ° 0 min 0 W/m² 4,8 °C 8,8 °C 4,8 km/h (1 Bft)
30.05.2023 00:13 20,4 °C 8,9 °C 56 % 75 % 1022,8 hPa 0,0 l/m² 1,6 km/h (1 Bft) N-NW 337 ° 0 min 0 W/m² 4,7 °C 8,9 °C 4,8 km/h (1 Bft)
30.05.2023 00:14 20,4 °C 8,9 °C 57 % 75 % 1022,8 hPa 0,0 l/m² 1,6 km/h (1 Bft) NW 315 ° 0 min 0 W/m² 4,7 °C 8,9 °C 4,8 km/h (1 Bft)
30.05.2023 00:15 20,4 °C 9,1 °C 57 % 74 % 1022,8 hPa 0,0 l/m² 3,2 km/h (1 Bft) W-NW 292 ° 0 min 0 W/m² 4,7 °C 9,1 °C 6,4 km/h (2 Bft)
30.05.2023 00:16 20,5 °C 9,1 °C 57 % 74 % 1022,8 hPa 0,0 l/m² 1,6 km/h (1 Bft) N-NW 337 ° 0 min 0 W/m² 4,7 °C 9,1 °C 4,8 km/h (1 Bft)
30.05.2023 00:17 20,4 °C 9,2 °C 57 % 73 % 1022,8 hPa 0,0 l/m² 1,6 km/h (1 Bft) N-NW 337 ° 0 min 0 W/m² 4,6 °C 9,2 °C 3,2 km/h (1 Bft)
30.05.2023 00:18 20,4 °C 9,3 °C 57 % 73 % 1022,8 hPa 0,0 l/m² 3,2 km/h (1 Bft) N-NW 337 ° 0 min 0 W/m² 4,7 °C 9,3 °C 4,8 km/h (1 Bft)
30.05.2023 00:19 20,4 °C 9,3 °C 57 % 72 % 1022,7 hPa 0,0 l/m² 1,6 km/h (1 Bft) NW 315 ° 0 min 0 W/m² 4,5 °C 9,3 °C 4,8 km/h (1 Bft)
30.05.2023 00:20 20,4 °C 9,4 °C 57 % 72 % 1022,8 hPa 0,0 l/m² 3,2 km/h (1 Bft) NW 315 ° 0 min 0 W/m² 4,6 °C 9,4 °C 6,4 km/h (2 Bft)
30.05.2023 00:21 20,4 °C 9,5 °C 57 % 72 % 1022,8 hPa 0,0 l/m² 3,2 km/h (1 Bft) N-NW 337 ° 0 min 0 W/m² 4,7 °C 9,5 °C 6,4 km/h (2 Bft)
30.05.2023 00:22 20,4 °C 9,4 °C 57 % 72 % 1022,8 hPa 0,0 l/m² 1,6 km/h (1 Bft) N-NW 337 ° 0 min 0 W/m² 4,6 °C 9,4 °C 3,2 km/h (1 Bft)
30.05.2023 00:23 20,5 °C 9,4 °C 57 % 72 % 1022,7 hPa 0,0 l/m² 1,6 km/h (1 Bft) NW 315 ° 0 min 0 W/m² 4,6 °C 9,4 °C 3,2 km/h (1 Bft)
30.05.2023 00:24 20,4 °C 9,3 °C 57 % 73 % 1022,8 hPa 0,0 l/m² 1,6 km/h (1 Bft) NW 315 ° 0 min 0 W/m² 4,7 °C 9,3 °C 3,2 km/h (1 Bft)
30.05.2023 00:25 20,4 °C 9,4 °C 57 % 73 % 1022,8 hPa 0,0 l/m² 3,2 km/h (1 Bft) NW 315 ° 0 min 0 W/m² 4,8 °C 9,4 °C 4,8 km/h (1 Bft)
30.05.2023 00:26 20,4 °C 9,3 °C 57 % 73 % 1022,8 hPa 0,0 l/m² 1,6 km/h (1 Bft) NW 315 ° 0 min 0 W/m² 4,7 °C 9,3 °C 3,2 km/h (1 Bft)
30.05.2023 00:27 20,4 °C 9,2 °C 57 % 73 % 1022,8 hPa 0,0 l/m² 1,6 km/h (1 Bft) NW 315 ° 0 min 0 W/m² 4,6 °C 9,2 °C 3,2 km/h (1 Bft)
30.05.2023 00:28 20,4 °C 9,1 °C 57 % 73 % 1022,8 hPa 0,0 l/m² 1,6 km/h (1 Bft) NW 315 ° 0 min 0 W/m² 4,5 °C 9,1 °C 3,2 km/h (1 Bft)
30.05.2023 00:29 20,4 °C 8,9 °C 57 % 73 % 1022,8 hPa 0,0 l/m² 0,0 km/h (0 Bft) N 0 ° 0 min 0 W/m² 4,3 °C 8,9 °C 0,0 km/h (0 Bft)
30.05.2023 00:30 20,4 °C 8,6 °C 57 % 74 % 1022,8 hPa 0,0 l/m² 1,6 km/h (1 Bft) NW 315 ° 0 min 0 W/m² 4,2 °C 8,6 °C 3,2 km/h (1 Bft)
30.05.2023 00:31 20,4 °C 8,3 °C 57 % 75 % 1022,8 hPa 0,0 l/m² 1,6 km/h (1 Bft) W-SW 247 ° 0 min 0 W/m² 4,1 °C 8,3 °C 3,2 km/h (1 Bft)
30.05.2023 00:32 20,4 °C 8,1 °C 57 % 76 % 1022,8 hPa 0,0 l/m² 3,2 km/h (1 Bft) W-SW 247 ° 0 min 0 W/m² 4,1 °C 8,1 °C 4,8 km/h (1 Bft)
30.05.2023 00:33 20,4 °C 7,9 °C 57 % 77 % 1022,7 hPa 0,0 l/m² 3,2 km/h (1 Bft) W-SW 247 ° 0 min 0 W/m² 4,1 °C 7,9 °C 3,2 km/h (1 Bft)
30.05.2023 00:34 20,4 °C 7,7 °C 57 % 78 % 1022,7 hPa 0,0 l/m² 3,2 km/h (1 Bft) SW 225 ° 0 min 0 W/m² 4,1 °C 7,7 °C 4,8 km/h (1 Bft)
30.05.2023 00:35 20,4 °C 7,6 °C 57 % 78 % 1022,8 hPa 0,0 l/m² 3,2 km/h (1 Bft) SW 225 ° 0 min 0 W/m² 4,0 °C 7,6 °C 4,8 km/h (1 Bft)
30.05.2023 00:36 20,4 °C 7,5 °C 57 % 79 % 1022,8 hPa 0,0 l/m² 3,2 km/h (1 Bft) SW 225 ° 0 min 0 W/m² 4,1 °C 7,5 °C 4,8 km/h (1 Bft)
30.05.2023 00:37 20,4 °C 7,5 °C 57 % 80 % 1022,8 hPa 0,0 l/m² 3,2 km/h (1 Bft) SW 225 ° 0 min 0 W/m² 4,3 °C 7,5 °C 4,8 km/h (1 Bft)
30.05.2023 00:38 20,4 °C 7,4 °C 57 % 80 % 1022,8 hPa 0,0 l/m² 3,2 km/h (1 Bft) SW 225 ° 0 min 0 W/m² 4,2 °C 7,4 °C 4,8 km/h (1 Bft)
30.05.2023 00:39 20,4 °C 7,4 °C 57 % 80 % 1022,7 hPa 0,0 l/m² 3,2 km/h (1 Bft) SW 225 ° 0 min 0 W/m² 4,2 °C 7,4 °C 3,2 km/h (1 Bft)
30.05.2023 00:40 20,4 °C 7,4 °C 57 % 80 % 1022,7 hPa 0,0 l/m² 1,6 km/h (1 Bft) SW 225 ° 0 min 0 W/m² 4,2 °C 7,4 °C 3,2 km/h (1 Bft)
30.05.2023 00:41 20,4 °C 7,4 °C 57 % 80 % 1022,7 hPa 0,0 l/m² 1,6 km/h (1 Bft) SW 225 ° 0 min 0 W/m² 4,2 °C 7,4 °C 3,2 km/h (1 Bft)
30.05.2023 00:42 20,4 °C 7,3 °C 57 % 80 % 1022,7 hPa 0,0 l/m² 1,6 km/h (1 Bft) SW 225 ° 0 min 0 W/m² 4,1 °C 7,3 °C 3,2 km/h (1 Bft)
30.05.2023 00:43 20,4 °C 7,3 °C 57 % 81 % 1022,7 hPa 0,0 l/m² 3,2 km/h (1 Bft) SW 225 ° 0 min 0 W/m² 4,3 °C 7,3 °C 4,8 km/h (1 Bft)
30.05.2023 00:44 20,4 °C 7,2 °C 57 % 81 % 1022,7 hPa 0,0 l/m² 3,2 km/h (1 Bft) SW 225 ° 0 min 0 W/m² 4,2 °C 7,2 °C 4,8 km/h (1 Bft)
30.05.2023 00:45 20,4 °C 7,3 °C 57 % 81 % 1022,6 hPa 0,0 l/m² 1,6 km/h (1 Bft) SW 225 ° 0 min 0 W/m² 4,3 °C 7,3 °C 3,2 km/h (1 Bft)
30.05.2023 00:46 20,4 °C 7,2 °C 57 % 81 % 1022,7 hPa 0,0 l/m² 3,2 km/h (1 Bft) SW 225 ° 0 min 0 W/m² 4,2 °C 7,2 °C 4,8 km/h (1 Bft)
30.05.2023 00:47 20,4 °C 7,2 °C 57 % 81 % 1022,7 hPa 0,0 l/m² 3,2 km/h (1 Bft) SW 225 ° 0 min 0 W/m² 4,2 °C 7,2 °C 4,8 km/h (1 Bft)
30.05.2023 00:48 20,4 °C 7,3 °C 57 % 82 % 1022,7 hPa 0,0 l/m² 1,6 km/h (1 Bft) SW 225 ° 0 min 0 W/m² 4,4 °C 7,3 °C 3,2 km/h (1 Bft)
30.05.2023 00:49 20,4 °C 7,3 °C 57 % 82 % 1022,7 hPa 0,0 l/m² 0,0 km/h (0 Bft) SW 225 ° 0 min 0 W/m² 4,4 °C 7,3 °C 3,2 km/h (1 Bft)
30.05.2023 00:50 20,4 °C 7,3 °C 57 % 81 % 1022,7 hPa 0,0 l/m² 0,0 km/h (0 Bft) SW 225 ° 0 min 0 W/m² 4,3 °C 7,3 °C 1,6 km/h (1 Bft)
30.05.2023 00:51 20,4 °C 7,3 °C 56 % 81 % 1022,7 hPa 0,0 l/m² 0,0 km/h (0 Bft) N 0 ° 0 min 0 W/m² 4,3 °C 7,3 °C 0,0 km/h (0 Bft)
30.05.2023 00:52 20,4 °C 7,3 °C 56 % 81 % 1022,7 hPa 0,0 l/m² 0,0 km/h (0 Bft) N 0 ° 0 min 0 W/m² 4,3 °C 7,3 °C 0,0 km/h (0 Bft)
30.05.2023 00:53 20,4 °C 7,3 °C 56 % 81 % 1022,7 hPa 0,0 l/m² 0,0 km/h (0 Bft) N 0 ° 0 min 0 W/m² 4,3 °C 7,3 °C 0,0 km/h (0 Bft)
30.05.2023 00:54 20,4 °C 7,4 °C 56 % 81 % 1022,7 hPa 0,0 l/m² 0,0 km/h (0 Bft) N 0 ° 0 min 0 W/m² 4,4 °C 7,4 °C 0,0 km/h (0 Bft)
30.05.2023 00:55 20,4 °C 7,4 °C 56 % 81 % 1022,7 hPa 0,0 l/m² 1,6 km/h (1 Bft) SW 225 ° 0 min 0 W/m² 4,4 °C 7,4 °C 3,2 km/h (1 Bft)
30.05.2023 00:56 20,4 °C 7,4 °C 56 % 81 % 1022,7 hPa 0,0 l/m² 0,0 km/h (0 Bft) SW 225 ° 0 min 0 W/m² 4,4 °C 7,4 °C 1,6 km/h (1 Bft)
30.05.2023 00:57 20,4 °C 7,5 °C 56 % 81 % 1022,8 hPa 0,0 l/m² 1,6 km/h (1 Bft) SW 225 ° 0 min 0 W/m² 4,5 °C 7,5 °C 3,2 km/h (1 Bft)
30.05.2023 00:58 20,4 °C 7,6 °C 57 % 82 % 1022,8 hPa 0,0 l/m² 0,0 km/h (0 Bft) N 0 ° 0 min 0 W/m² 4,7 °C 7,6 °C 0,0 km/h (0 Bft)
30.05.2023 00:59 20,4 °C 7,6 °C 56 % 82 % 1022,7 hPa 0,0 l/m² 0,0 km/h (0 Bft) SW 225 ° 0 min 0 W/m² 4,7 °C 7,6 °C 1,6 km/h (1 Bft)
30.05.2023 01:00 20,4 °C 7,7 °C 56 % 81 % 1022,7 hPa 0,0 l/m² 0,0 km/h (0 Bft) SW 225 ° 0 min 0 W/m² 4,7 °C 7,7 °C 3,2 km/h (1 Bft)
30.05.2023 01:01 20,4 °C 7,7 °C 56 % 81 % 1022,7 hPa 0,0 l/m² 1,6 km/h (1 Bft) SW 225 ° 0 min 0 W/m² 4,7 °C 7,7 °C 3,2 km/h (1 Bft)
30.05.2023 01:02 20,4 °C 7,8 °C 56 % 81 % 1022,7 hPa 0,0 l/m² 1,6 km/h (1 Bft) SW 225 ° 0 min 0 W/m² 4,7 °C 7,8 °C 3,2 km/h (1 Bft)
30.05.2023 01:03 20,4 °C 7,8 °C 56 % 80 % 1022,7 hPa 0,0 l/m² 0,0 km/h (0 Bft) N 0 ° 0 min 0 W/m² 4,6 °C 7,8 °C 0,0 km/h (0 Bft)
30.05.2023 01:04 20,4 °C 7,8 °C 56 % 80 % 1022,7 hPa 0,0 l/m² 0,0 km/h (0 Bft) SW 225 ° 0 min 0 W/m² 4,6 °C 7,8 °C 1,6 km/h (1 Bft)
30.05.2023 01:05 20,4 °C 7,8 °C 56 % 80 % 1022,7 hPa 0,0 l/m² 0,0 km/h (0 Bft) SW 225 ° 0 min 0 W/m² 4,6 °C 7,8 °C 1,6 km/h (1 Bft)
30.05.2023 01:06 20,4 °C 7,8 °C 56 % 79 % 1022,7 hPa 0,0 l/m² 0,0 km/h (0 Bft) SW 225 ° 0 min 0 W/m² 4,4 °C 7,8 °C 3,2 km/h (1 Bft)
30.05.2023 01:07 20,4 °C 7,7 °C 56 % 79 % 1022,7 hPa 0,0 l/m² 1,6 km/h (1 Bft) SW 225 ° 0 min 0 W/m² 4,3 °C 7,7 °C 3,2 km/h (1 Bft)
30.05.2023 01:08 20,4 °C 7,6 °C 56 % 79 % 1022,7 hPa 0,0 l/m² 0,0 km/h (0 Bft) N 0 ° 0 min 0 W/m² 4,2 °C 7,6 °C 0,0 km/h (0 Bft)
30.05.2023 01:09 20,4 °C 7,5 °C 57 % 79 % 1022,6 hPa 0,0 l/m² 0,0 km/h (0 Bft) SW 225 ° 0 min 0 W/m² 4,1 °C 7,5 °C 1,6 km/h (1 Bft)
30.05.2023 01:10 20,4 °C 7,4 °C 56 % 80 % 1022,7 hPa 0,0 l/m² 0,0 km/h (0 Bft) N 0 ° 0 min 0 W/m² 4,2 °C 7,4 °C 0,0 km/h (0 Bft)
30.05.2023 01:11 20,4 °C 7,4 °C 56 % 80 % 1022,7 hPa 0,0 l/m² 1,6 km/h (1 Bft) SW 225 ° 0 min 0 W/m² 4,2 °C 7,4 °C 3,2 km/h (1 Bft)
30.05.2023 01:12 20,4 °C 7,4 °C 56 % 80 % 1022,7 hPa 0,0 l/m² 3,2 km/h (1 Bft) SW 225 ° 0 min 0 W/m² 4,2 °C 7,4 °C 3,2 km/h (1 Bft)
30.05.2023 01:13 20,4 °C 7,3 °C 57 % 80 % 1022,7 hPa 0,0 l/m² 1,6 km/h (1 Bft) SW 225 ° 0 min 0 W/m² 4,1 °C 7,3 °C 3,2 km/h (1 Bft)
30.05.2023 01:14 20,4 °C 7,2 °C 57 % 80 % 1022,7 hPa 0,0 l/m² 1,6 km/h (1 Bft) SW 225 ° 0 min 0 W/m² 4,0 °C 7,2 °C 3,2 km/h (1 Bft)
30.05.2023 01:15 20,4 °C 7,2 °C 57 % 80 % 1022,7 hPa 0,0 l/m² 1,6 km/h (1 Bft) SW 225 ° 0 min 0 W/m² 4,0 °C 7,2 °C 3,2 km/h (1 Bft)
30.05.2023 01:16 20,4 °C 7,2 °C 57 % 81 % 1022,7 hPa 0,0 l/m² 3,2 km/h (1 Bft) SW 225 ° 0 min 0 W/m² 4,2 °C 7,2 °C 4,8 km/h (1 Bft)
30.05.2023 01:17 20,4 °C 7,2 °C 57 % 81 % 1022,6 hPa 0,0 l/m² 1,6 km/h (1 Bft) SW 225 ° 0 min 0 W/m² 4,2 °C 7,2 °C 4,8 km/h (1 Bft)
30.05.2023 01:18 20,4 °C 7,2 °C 57 % 81 % 1022,7 hPa 0,0 l/m² 1,6 km/h (1 Bft) SW 225 ° 0 min 0 W/m² 4,2 °C 7,2 °C 3,2 km/h (1 Bft)
30.05.2023 01:19 20,4 °C 7,2 °C 57 % 81 % 1022,7 hPa 0,0 l/m² 1,6 km/h (1 Bft) SW 225 ° 0 min 0 W/m² 4,2 °C 7,2 °C 4,8 km/h (1 Bft)
30.05.2023 01:20 20,4 °C 7,2 °C 57 % 81 % 1022,7 hPa 0,0 l/m² 4,8 km/h (1 Bft) W-SW 247 ° 0 min 0 W/m² 4,2 °C 7,2 °C 6,4 km/h (2 Bft)
30.05.2023 01:21 20,4 °C 7,2 °C 57 % 81 % 1022,7 hPa 0,0 l/m² 3,2 km/h (1 Bft) W-SW 247 ° 0 min 0 W/m² 4,2 °C 7,2 °C 4,8 km/h (1 Bft)
30.05.2023 01:22 20,4 °C 7,2 °C 57 % 81 % 1022,6 hPa 0,0 l/m² 3,2 km/h (1 Bft) W-SW 247 ° 0 min 0 W/m² 4,2 °C 7,2 °C 3,2 km/h (1 Bft)
30.05.2023 01:23 20,4 °C 7,3 °C 57 % 81 % 1022,7 hPa 0,0 l/m² 3,2 km/h (1 Bft) W-SW 247 ° 0 min 0 W/m² 4,3 °C 7,3 °C 3,2 km/h (1 Bft)
30.05.2023 01:24 20,4 °C 7,3 °C 57 % 81 % 1022,7 hPa 0,0 l/m² 1,6 km/h (1 Bft) W-SW 247 ° 0 min 0 W/m² 4,3 °C 7,3 °C 3,2 km/h (1 Bft)
30.05.2023 01:25 20,4 °C 7,4 °C 57 % 81 % 1022,7 hPa 0,0 l/m² 3,2 km/h (1 Bft) W-SW 247 ° 0 min 0 W/m² 4,4 °C 7,4 °C 3,2 km/h (1 Bft)
30.05.2023 01:26 20,4 °C 7,4 °C 57 % 81 % 1022,7 hPa 0,0 l/m² 1,6 km/h (1 Bft) W-SW 247 ° 0 min 0 W/m² 4,4 °C 7,4 °C 3,2 km/h (1 Bft)
30.05.2023 01:27 20,3 °C 7,5 °C 57 % 80 % 1022,7 hPa 0,0 l/m² 1,6 km/h (1 Bft) W-SW 247 ° 0 min 0 W/m² 4,3 °C 7,5 °C 4,8 km/h (1 Bft)
30.05.2023 01:28 20,4 °C 7,6 °C 57 % 80 % 1022,7 hPa 0,0 l/m² 0,0 km/h (0 Bft) W-SW 247 ° 0 min 0 W/m² 4,4 °C 7,6 °C 3,2 km/h (1 Bft)
30.05.2023 01:29 20,4 °C 7,7 °C 57 % 80 % 1022,7 hPa 0,0 l/m² 1,6 km/h (1 Bft) W-SW 247 ° 0 min 0 W/m² 4,5 °C 7,7 °C 3,2 km/h (1 Bft)
30.05.2023 01:30 20,4 °C 7,7 °C 57 % 79 % 1022,7 hPa 0,0 l/m² 1,6 km/h (1 Bft) W-SW 247 ° 0 min 0 W/m² 4,3 °C 7,7 °C 4,8 km/h (1 Bft)
30.05.2023 01:31 20,4 °C 7,7 °C 57 % 79 % 1022,7 hPa 0,0 l/m² 0,0 km/h (0 Bft) W-SW 247 ° 0 min 0 W/m² 4,3 °C 7,7 °C 1,6 km/h (1 Bft)
30.05.2023 01:32 20,3 °C 7,7 °C 57 % 79 % 1022,7 hPa 0,0 l/m² 0,0 km/h (0 Bft) W-SW 247 ° 0 min 0 W/m² 4,3 °C 7,7 °C 1,6 km/h (1 Bft)
30.05.2023 01:33 20,4 °C 7,7 °C 57 % 79 % 1022,7 hPa 0,0 l/m² 0,0 km/h (0 Bft) N 0 ° 0 min 0 W/m² 4,3 °C 7,7 °C 0,0 km/h (0 Bft)
30.05.2023 01:34 20,4 °C 7,6 °C 57 % 79 % 1022,7 hPa 0,0 l/m² 1,6 km/h (1 Bft) W-SW 247 ° 0 min 0 W/m² 4,2 °C 7,6 °C 3,2 km/h (1 Bft)
30.05.2023 01:35 20,4 °C 7,5 °C 57 % 79 % 1022,7 hPa 0,0 l/m² 1,6 km/h (1 Bft) W-SW 247 ° 0 min 0 W/m² 4,1 °C 7,5 °C 3,2 km/h (1 Bft)
30.05.2023 01:36 20,4 °C 7,5 °C 57 % 79 % 1022,8 hPa 0,0 l/m² 1,6 km/h (1 Bft) W-SW 247 ° 0 min 0 W/m² 4,1 °C 7,5 °C 1,6 km/h (1 Bft)
30.05.2023 01:37 20,3 °C 7,4 °C 57 % 80 % 1022,8 hPa 0,0 l/m² 0,0 km/h (0 Bft) W-SW 247 ° 0 min 0 W/m² 4,2 °C 7,4 °C 1,6 km/h (1 Bft)
30.05.2023 01:38 20,3 °C 7,4 °C 57 % 80 % 1022,8 hPa 0,0 l/m² 0,0 km/h (0 Bft) N 0 ° 0 min 0 W/m² 4,2 °C 7,4 °C 0,0 km/h (0 Bft)
30.05.2023 01:39 20,3 °C 7,3 °C 57 % 79 % 1022,8 hPa 0,0 l/m² 0,0 km/h (0 Bft) N 0 ° 0 min 0 W/m² 3,9 °C 7,3 °C 0,0 km/h (0 Bft)
30.05.2023 01:40 20,3 °C 7,2 °C 57 % 80 % 1022,8 hPa 0,0 l/m² 0,0 km/h (0 Bft) N 0 ° 0 min 0 W/m² 4,0 °C 7,2 °C 0,0 km/h (0 Bft)
30.05.2023 01:41 20,3 °C 7,2 °C 57 % 80 % 1022,8 hPa 0,0 l/m² 0,0 km/h (0 Bft) N 0 ° 0 min 0 W/m² 4,0 °C 7,2 °C 0,0 km/h (0 Bft)
30.05.2023 01:42 20,3 °C 7,2 °C 57 % 80 % 1022,7 hPa 0,0 l/m² 0,0 km/h (0 Bft) N 0 ° 0 min 0 W/m² 4,0 °C 7,2 °C 0,0 km/h (0 Bft)
30.05.2023 01:43 20,3 °C 7,2 °C 57 % 80 % 1022,7 hPa 0,0 l/m² 0,0 km/h (0 Bft) N 0 ° 0 min 0 W/m² 4,0 °C 7,2 °C 0,0 km/h (0 Bft)
30.05.2023 01:44 20,3 °C 7,2 °C 57 % 80 % 1022,6 hPa 0,0 l/m² 0,0 km/h (0 Bft) N 0 ° 0 min 0 W/m² 4,0 °C 7,2 °C 0,0 km/h (0 Bft)
30.05.2023 01:45 20,3 °C 7,1 °C 57 % 80 % 1022,7 hPa 0,0 l/m² 0,0 km/h (0 Bft) N 0 ° 0 min 0 W/m² 3,9 °C 7,1 °C 0,0 km/h (0 Bft)
30.05.2023 01:46 20,4 °C 6,9 °C 57 % 79 % 1022,7 hPa 0,0 l/m² 0,0 km/h (0 Bft) N 0 ° 0 min 0 W/m² 3,5 °C 6,9 °C 0,0 km/h (0 Bft)
30.05.2023 01:47 20,3 °C 6,8 °C 57 % 80 % 1022,7 hPa 0,0 l/m² 0,0 km/h (0 Bft) N 0 ° 0 min 0 W/m² 3,6 °C 6,8 °C 0,0 km/h (0 Bft)
30.05.2023 01:48 20,3 °C 6,8 °C 57 % 81 % 1022,8 hPa 0,0 l/m² 0,0 km/h (0 Bft) N 0 ° 0 min 0 W/m² 3,8 °C 6,8 °C 0,0 km/h (0 Bft)
30.05.2023 01:49 20,3 °C 6,7 °C 57 % 81 % 1022,7 hPa 0,0 l/m² 0,0 km/h (0 Bft) W-SW 247 ° 0 min 0 W/m² 3,7 °C 6,7 °C 1,6 km/h (1 Bft)
30.05.2023 01:50 20,3 °C 6,7 °C 57 % 81 % 1022,8 hPa 0,0 l/m² 0,0 km/h (0 Bft) W-SW 247 ° 0 min 0 W/m² 3,7 °C 6,7 °C 3,2 km/h (1 Bft)
30.05.2023 01:51 20,3 °C 6,6 °C 57 % 81 % 1022,8 hPa 0,0 l/m² 1,6 km/h (1 Bft) W-SW 247 ° 0 min 0 W/m² 3,6 °C 6,6 °C 3,2 km/h (1 Bft)
30.05.2023 01:52 20,3 °C 6,6 °C 57 % 82 % 1022,8 hPa 0,0 l/m² 1,6 km/h (1 Bft) W-SW 247 ° 0 min 0 W/m² 3,8 °C 6,6 °C 3,2 km/h (1 Bft)
30.05.2023 01:53 20,3 °C 6,7 °C 57 % 82 % 1022,8 hPa 0,0 l/m² 1,6 km/h (1 Bft) W-SW 247 ° 0 min 0 W/m² 3,8 °C 6,7 °C 3,2 km/h (1 Bft)
30.05.2023 01:54 20,3 °C 6,7 °C 57 % 82 % 1022,9 hPa 0,0 l/m² 1,6 km/h (1 Bft) W-SW 247 ° 0 min 0 W/m² 3,8 °C 6,7 °C 3,2 km/h (1 Bft)
30.05.2023 01:55 20,3 °C 6,7 °C 57 % 82 % 1022,8 hPa 0,0 l/m² 1,6 km/h (1 Bft) W-SW 247 ° 0 min 0 W/m² 3,8 °C 6,7 °C 3,2 km/h (1 Bft)
30.05.2023 01:56 20,3 °C 6,7 °C 57 % 82 % 1022,8 hPa 0,0 l/m² 1,6 km/h (1 Bft) W-SW 247 ° 0 min 0 W/m² 3,8 °C 6,7 °C 1,6 km/h (1 Bft)
30.05.2023 01:57 20,3 °C 6,7 °C 57 % 82 % 1022,8 hPa 0,0 l/m² 0,0 km/h (0 Bft) W-SW 247 ° 0 min 0 W/m² 3,8 °C 6,7 °C 1,6 km/h (1 Bft)
30.05.2023 01:58 20,3 °C 6,7 °C 57 % 82 % 1022,8 hPa 0,0 l/m² 0,0 km/h (0 Bft) N 0 ° 0 min 0 W/m² 3,8 °C 6,7 °C 0,0 km/h (0 Bft)
30.05.2023 01:59 20,3 °C 6,7 °C 57 % 81 % 1022,8 hPa 0,0 l/m² 0,0 km/h (0 Bft) W-SW 247 ° 0 min 0 W/m² 3,7 °C 6,7 °C 1,6 km/h (1 Bft)
30.05.2023 02:00 20,3 °C 6,7 °C 57 % 81 % 1022,8 hPa 0,0 l/m² 0,0 km/h (0 Bft) N 0 ° 0 min 0 W/m² 3,7 °C 6,7 °C 0,0 km/h (0 Bft)
30.05.2023 02:01 20,3 °C 6,8 °C 57 % 81 % 1022,9 hPa 0,0 l/m² 0,0 km/h (0 Bft) N 0 ° 0 min 0 W/m² 3,8 °C 6,8 °C 0,0 km/h (0 Bft)
30.05.2023 02:02 20,3 °C 6,8 °C 57 % 81 % 1022,8 hPa 0,0 l/m² 0,0 km/h (0 Bft) W-SW 247 ° 0 min 0 W/m² 3,8 °C 6,8 °C 3,2 km/h (1 Bft)
30.05.2023 02:03 20,3 °C 6,8 °C 57 % 81 % 1022,8 hPa 0,0 l/m² 0,0 km/h (0 Bft) N 0 ° 0 min 0 W/m² 3,8 °C 6,8 °C 0,0 km/h (0 Bft)
30.05.2023 02:04 20,3 °C 6,8 °C 57 % 81 % 1022,9 hPa 0,0 l/m² 0,0 km/h (0 Bft) W-SW 247 ° 0 min 0 W/m² 3,8 °C 6,8 °C 1,6 km/h (1 Bft)
30.05.2023 02:05 20,3 °C 6,8 °C 57 % 81 % 1022,8 hPa 0,0 l/m² 0,0 km/h (0 Bft) W-SW 247 ° 0 min 0 W/m² 3,8 °C 6,8 °C 1,6 km/h (1 Bft)
30.05.2023 02:06 20,3 °C 6,8 °C 57 % 81 % 1022,9 hPa 0,0 l/m² 0,0 km/h (0 Bft) W-SW 247 ° 0 min 0 W/m² 3,8 °C 6,8 °C 1,6 km/h (1 Bft)
30.05.2023 02:07 20,3 °C 6,9 °C 57 % 81 % 1022,9 hPa 0,0 l/m² 0,0 km/h (0 Bft) N 0 ° 0 min 0 W/m² 3,9 °C 6,9 °C 0,0 km/h (0 Bft)
30.05.2023 02:08 20,3 °C 6,9 °C 57 % 81 % 1022,8 hPa 0,0 l/m² 0,0 km/h (0 Bft) N 0 ° 0 min 0 W/m² 3,9 °C 6,9 °C 0,0 km/h (0 Bft)
30.05.2023 02:09 20,3 °C 6,9 °C 57 % 81 % 1022,9 hPa 0,0 l/m² 0,0 km/h (0 Bft) N 0 ° 0 min 0 W/m² 3,9 °C 6,9 °C 0,0 km/h (0 Bft)
30.05.2023 02:10 20,3 °C 6,9 °C 57 % 81 % 1022,9 hPa 0,0 l/m² 0,0 km/h (0 Bft) W-SW 247 ° 0 min 0 W/m² 3,9 °C 6,9 °C 1,6 km/h (1 Bft)
30.05.2023 02:11 20,3 °C 6,9 °C 57 % 81 % 1022,9 hPa 0,0 l/m² 1,6 km/h (1 Bft) W-SW 247 ° 0 min 0 W/m² 3,9 °C 6,9 °C 1,6 km/h (1 Bft)
30.05.2023 02:12 20,3 °C 6,9 °C 57 % 81 % 1022,9 hPa 0,0 l/m² 0,0 km/h (0 Bft) SW 225 ° 0 min 0 W/m² 3,9 °C 6,9 °C 1,6 km/h (1 Bft)
30.05.2023 02:13 20,3 °C 7,0 °C 57 % 81 % 1022,9 hPa 0,0 l/m² 1,6 km/h (1 Bft) SW 225 ° 0 min 0 W/m² 4,0 °C 7,0 °C 1,6 km/h (1 Bft)
30.05.2023 02:14 20,3 °C 7,1 °C 57 % 81 % 1022,9 hPa 0,0 l/m² 1,6 km/h (1 Bft) S-SW 202 ° 0 min 0 W/m² 4,1 °C 7,1 °C 4,8 km/h (1 Bft)
30.05.2023 02:15 20,3 °C 7,1 °C 57 % 81 % 1023,0 hPa 0,0 l/m² 1,6 km/h (1 Bft) W-SW 247 ° 0 min 0 W/m² 4,1 °C 7,1 °C 3,2 km/h (1 Bft)
30.05.2023 02:16 20,3 °C 7,1 °C 57 % 81 % 1022,9 hPa 0,0 l/m² 0,0 km/h (0 Bft) W-SW 247 ° 0 min 0 W/m² 4,1 °C 7,1 °C 1,6 km/h (1 Bft)
30.05.2023 02:17 20,3 °C 7,1 °C 57 % 81 % 1023,0 hPa 0,0 l/m² 0,0 km/h (0 Bft) N 0 ° 0 min 0 W/m² 4,1 °C 7,1 °C 0,0 km/h (0 Bft)
30.05.2023 02:18 20,3 °C 7,1 °C 57 % 80 % 1023,0 hPa 0,0 l/m² 0,0 km/h (0 Bft) N 0 ° 0 min 0 W/m² 3,9 °C 7,1 °C 0,0 km/h (0 Bft)
30.05.2023 02:19 20,3 °C 7,1 °C 57 % 80 % 1022,9 hPa 0,0 l/m² 0,0 km/h (0 Bft) N 0 ° 0 min 0 W/m² 3,9 °C 7,1 °C 0,0 km/h (0 Bft)
30.05.2023 02:20 20,3 °C 7,1 °C 57 % 80 % 1023,0 hPa 0,0 l/m² 0,0 km/h (0 Bft) N 0 ° 0 min 0 W/m² 3,9 °C 7,1 °C 0,0 km/h (0 Bft)
30.05.2023 02:21 20,3 °C 7,0 °C 57 % 80 % 1022,9 hPa 0,0 l/m² 0,0 km/h (0 Bft) N 0 ° 0 min 0 W/m² 3,8 °C 7,0 °C 0,0 km/h (0 Bft)
30.05.2023 02:22 20,3 °C 6,9 °C 57 % 79 % 1023,0 hPa 0,0 l/m² 0,0 km/h (0 Bft) N 0 ° 0 min 0 W/m² 3,5 °C 6,9 °C 0,0 km/h (0 Bft)
30.05.2023 02:23 20,3 °C 6,8 °C 57 % 80 % 1023,0 hPa 0,0 l/m² 0,0 km/h (0 Bft) N 0 ° 0 min 0 W/m² 3,6 °C 6,8 °C 0,0 km/h (0 Bft)
30.05.2023 02:24 20,3 °C 6,7 °C 57 % 80 % 1023,0 hPa 0,0 l/m² 0,0 km/h (0 Bft) N 0 ° 0 min 0 W/m² 3,5 °C 6,7 °C 0,0 km/h (0 Bft)
30.05.2023 02:25 20,3 °C 6,7 °C 57 % 81 % 1023,0 hPa 0,0 l/m² 0,0 km/h (0 Bft) N 0 ° 0 min 0 W/m² 3,7 °C 6,7 °C 0,0 km/h (0 Bft)
30.05.2023 02:26 20,3 °C 6,7 °C 57 % 81 % 1023,1 hPa 0,0 l/m² 0,0 km/h (0 Bft) N 0 ° 0 min 0 W/m² 3,7 °C 6,7 °C 0,0 km/h (0 Bft)
30.05.2023 02:27 20,3 °C 6,7 °C 57 % 81 % 1023,1 hPa 0,0 l/m² 0,0 km/h (0 Bft) N 0 ° 0 min 0 W/m² 3,7 °C 6,7 °C 0,0 km/h (0 Bft)
30.05.2023 02:28 20,3 °C 6,8 °C 57 % 82 % 1023,1 hPa 0,0 l/m² 0,0 km/h (0 Bft) N 0 ° 0 min 0 W/m² 3,9 °C 6,8 °C 0,0 km/h (0 Bft)
30.05.2023 02:29 20,3 °C 6,8 °C 56 % 82 % 1023,0 hPa 0,0 l/m² 0,0 km/h (0 Bft) N 0 ° 0 min 0 W/m² 3,9 °C 6,8 °C 0,0 km/h (0 Bft)
30.05.2023 02:30 20,3 °C 6,8 °C 57 % 82 % 1023,0 hPa 0,0 l/m² 0,0 km/h (0 Bft) N 0 ° 0 min 0 W/m² 3,9 °C 6,8 °C 0,0 km/h (0 Bft)
30.05.2023 02:31 20,3 °C 6,8 °C 57 % 82 % 1023,0 hPa 0,0 l/m² 0,0 km/h (0 Bft) N 0 ° 0 min 0 W/m² 3,9 °C 6,8 °C 0,0 km/h (0 Bft)
30.05.2023 02:32 20,3 °C 6,9 °C 56 % 81 % 1023,0 hPa 0,0 l/m² 0,0 km/h (0 Bft) N 0 ° 0 min 0 W/m² 3,9 °C 6,9 °C 0,0 km/h (0 Bft)
30.05.2023 02:33 20,3 °C 6,9 °C 57 % 81 % 1023,0 hPa 0,0 l/m² 0,0 km/h (0 Bft) N 0 ° 0 min 0 W/m² 3,9 °C 6,9 °C 0,0 km/h (0 Bft)
30.05.2023 02:34 20,3 °C 6,9 °C 57 % 81 % 1023,0 hPa 0,0 l/m² 0,0 km/h (0 Bft) N 0 ° 0 min 0 W/m² 3,9 °C 6,9 °C 0,0 km/h (0 Bft)
30.05.2023 02:35 20,3 °C 6,9 °C 57 % 81 % 1023,1 hPa 0,0 l/m² 0,0 km/h (0 Bft) N 0 ° 0 min 0 W/m² 3,9 °C 6,9 °C 0,0 km/h (0 Bft)
30.05.2023 02:36 20,3 °C 6,9 °C 57 % 81 % 1022,9 hPa 0,0 l/m² 0,0 km/h (0 Bft) N 0 ° 0 min 0 W/m² 3,9 °C 6,9 °C 0,0 km/h (0 Bft)
30.05.2023 02:37 20,3 °C 6,9 °C 56 % 81 % 1022,9 hPa 0,0 l/m² 0,0 km/h (0 Bft) N 0 ° 0 min 0 W/m² 3,9 °C 6,9 °C 0,0 km/h (0 Bft)
30.05.2023 02:38 20,3 °C 7,0 °C 57 % 81 % 1023,0 hPa 0,0 l/m² 0,0 km/h (0 Bft) N 0 ° 0 min 0 W/m² 4,0 °C 7,0 °C 0,0 km/h (0 Bft)
30.05.2023 02:39 20,3 °C 7,0 °C 57 % 82 % 1022,9 hPa 0,0 l/m² 0,0 km/h (0 Bft) N 0 ° 0 min 0 W/m² 4,1 °C 7,0 °C 0,0 km/h (0 Bft)
30.05.2023 02:40 20,3 °C 7,1 °C 57 % 82 % 1023,0 hPa 0,0 l/m² 0,0 km/h (0 Bft) N 0 ° 0 min 0 W/m² 4,2 °C 7,1 °C 0,0 km/h (0 Bft)
30.05.2023 02:41 20,3 °C 7,1 °C 57 % 82 % 1022,9 hPa 0,0 l/m² 0,0 km/h (0 Bft) N 0 ° 0 min 0 W/m² 4,2 °C 7,1 °C 0,0 km/h (0 Bft)
30.05.2023 02:42 20,3 °C 7,1 °C 57 % 82 % 1022,9 hPa 0,0 l/m² 0,0 km/h (0 Bft) N 0 ° 0 min 0 W/m² 4,2 °C 7,1 °C 0,0 km/h (0 Bft)
30.05.2023 02:43 20,3 °C 7,2 °C 57 % 82 % 1022,9 hPa 0,0 l/m² 0,0 km/h (0 Bft) N 0 ° 0 min 0 W/m² 4,3 °C 7,2 °C 0,0 km/h (0 Bft)
30.05.2023 02:44 20,3 °C 7,2 °C 57 % 82 % 1022,9 hPa 0,0 l/m² 0,0 km/h (0 Bft) N 0 ° 0 min 0 W/m² 4,3 °C 7,2 °C 0,0 km/h (0 Bft)
30.05.2023 02:45 20,3 °C 7,2 °C 57 % 82 % 1022,8 hPa 0,0 l/m² 0,0 km/h (0 Bft) W-SW 247 ° 0 min 0 W/m² 4,3 °C 7,2 °C 1,6 km/h (1 Bft)
30.05.2023 02:46 20,3 °C 7,2 °C 57 % 82 % 1022,9 hPa 0,0 l/m² 0,0 km/h (0 Bft) N 0 ° 0 min 0 W/m² 4,3 °C 7,2 °C 0,0 km/h (0 Bft)
30.05.2023 02:47 20,3 °C 7,2 °C 57 % 82 % 1022,9 hPa 0,0 l/m² 0,0 km/h (0 Bft) N 0 ° 0 min 0 W/m² 4,3 °C 7,2 °C 0,0 km/h (0 Bft)
30.05.2023 02:48 20,3 °C 7,2 °C 57 % 82 % 1022,8 hPa 0,0 l/m² 0,0 km/h (0 Bft) W-SW 247 ° 0 min 0 W/m² 4,3 °C 7,2 °C 1,6 km/h (1 Bft)
30.05.2023 02:49 20,3 °C 7,2 °C 57 % 82 % 1022,9 hPa 0,0 l/m² 0,0 km/h (0 Bft) N 0 ° 0 min 0 W/m² 4,3 °C 7,2 °C 0,0 km/h (0 Bft)
30.05.2023 02:50 20,3 °C 7,2 °C 57 % 82 % 1022,9 hPa 0,0 l/m² 0,0 km/h (0 Bft) N 0 ° 0 min 0 W/m² 4,3 °C 7,2 °C 0,0 km/h (0 Bft)
30.05.2023 02:51 20,3 °C 7,2 °C 57 % 82 % 1022,9 hPa 0,0 l/m² 0,0 km/h (0 Bft) N 0 ° 0 min 0 W/m² 4,3 °C 7,2 °C 0,0 km/h (0 Bft)
30.05.2023 02:52 20,3 °C 7,1 °C 57 % 82 % 1022,9 hPa 0,0 l/m² 0,0 km/h (0 Bft) N 0 ° 0 min 0 W/m² 4,2 °C 7,1 °C 0,0 km/h (0 Bft)
30.05.2023 02:53 20,3 °C 7,2 °C 57 % 82 % 1022,9 hPa 0,0 l/m² 0,0 km/h (0 Bft) N 0 ° 0 min 0 W/m² 4,3 °C 7,2 °C 0,0 km/h (0 Bft)
30.05.2023 02:54 20,3 °C 7,1 °C 57 % 82 % 1022,9 hPa 0,0 l/m² 0,0 km/h (0 Bft) N 0 ° 0 min 0 W/m² 4,2 °C 7,1 °C 0,0 km/h (0 Bft)
30.05.2023 02:55 20,3 °C 7,1 °C 57 % 82 % 1022,9 hPa 0,0 l/m² 0,0 km/h (0 Bft) N 0 ° 0 min 0 W/m² 4,2 °C 7,1 °C 0,0 km/h (0 Bft)
30.05.2023 02:56 20,3 °C 7,1 °C 57 % 82 % 1022,9 hPa 0,0 l/m² 0,0 km/h (0 Bft) N 0 ° 0 min 0 W/m² 4,2 °C 7,1 °C 0,0 km/h (0 Bft)
30.05.2023 02:57 20,3 °C 7,2 °C 57 % 82 % 1022,9 hPa 0,0 l/m² 0,0 km/h (0 Bft) N 0 ° 0 min 0 W/m² 4,3 °C 7,2 °C 0,0 km/h (0 Bft)
30.05.2023 02:58 20,3 °C 7,1 °C 57 % 81 % 1022,9 hPa 0,0 l/m² 0,0 km/h (0 Bft) N 0 ° 0 min 0 W/m² 4,1 °C 7,1 °C 0,0 km/h (0 Bft)
30.05.2023 02:59 20,3 °C 7,1 °C 57 % 81 % 1023,0 hPa 0,0 l/m² 0,0 km/h (0 Bft) N 0 ° 0 min 0 W/m² 4,1 °C 7,1 °C 0,0 km/h (0 Bft)
30.05.2023 03:00 20,3 °C 7,1 °C 57 % 81 % 1022,9 hPa 0,0 l/m² 0,0 km/h (0 Bft) N 0 ° 0 min 0 W/m² 4,1 °C 7,1 °C 0,0 km/h (0 Bft)
30.05.2023 03:01 20,3 °C 7,1 °C 57 % 81 % 1022,9 hPa 0,0 l/m² 1,6 km/h (1 Bft) W-SW 247 ° 0 min 0 W/m² 4,1 °C 7,1 °C 3,2 km/h (1 Bft)
30.05.2023 03:02 20,3 °C 7,1 °C 57 % 81 % 1023,0 hPa 0,0 l/m² 1,6 km/h (1 Bft) W-SW 247 ° 0 min 0 W/m² 4,1 °C 7,1 °C 3,2 km/h (1 Bft)
30.05.2023 03:03 20,3 °C 7,1 °C 57 % 81 % 1023,0 hPa 0,0 l/m² 0,0 km/h (0 Bft) N 0 ° 0 min 0 W/m² 4,1 °C 7,1 °C 0,0 km/h (0 Bft)
30.05.2023 03:04 20,3 °C 7,1 °C 57 % 81 % 1023,1 hPa 0,0 l/m² 0,0 km/h (0 Bft) N 0 ° 0 min 0 W/m² 4,1 °C 7,1 °C 0,0 km/h (0 Bft)
30.05.2023 03:05 20,3 °C 7,1 °C 57 % 81 % 1023,0 hPa 0,0 l/m² 0,0 km/h (0 Bft) N 0 ° 0 min 0 W/m² 4,1 °C 7,1 °C 0,0 km/h (0 Bft)
30.05.2023 03:06 20,3 °C 7,1 °C 57 % 81 % 1023,0 hPa 0,0 l/m² 0,0 km/h (0 Bft) N 0 ° 0 min 0 W/m² 4,1 °C 7,1 °C 0,0 km/h (0 Bft)
30.05.2023 03:07 20,3 °C 7,0 °C 57 % 81 % 1023,0 hPa 0,0 l/m² 0,0 km/h (0 Bft) N 0 ° 0 min 0 W/m² 4,0 °C 7,0 °C 0,0 km/h (0 Bft)
30.05.2023 03:08 20,3 °C 6,9 °C 57 % 81 % 1023,0 hPa 0,0 l/m² 0,0 km/h (0 Bft) N 0 ° 0 min 0 W/m² 3,9 °C 6,9 °C 0,0 km/h (0 Bft)
30.05.2023 03:09 20,3 °C 6,9 °C 57 % 81 % 1023,0 hPa 0,0 l/m² 0,0 km/h (0 Bft) N 0 ° 0 min 0 W/m² 3,9 °C 6,9 °C 0,0 km/h (0 Bft)
30.05.2023 03:10 20,3 °C 6,9 °C 57 % 81 % 1023,1 hPa 0,0 l/m² 0,0 km/h (0 Bft) N 0 ° 0 min 0 W/m² 3,9 °C 6,9 °C 0,0 km/h (0 Bft)
30.05.2023 03:11 20,3 °C 6,8 °C 57 % 81 % 1023,1 hPa 0,0 l/m² 0,0 km/h (0 Bft) N 0 ° 0 min 0 W/m² 3,8 °C 6,8 °C 0,0 km/h (0 Bft)
30.05.2023 03:12 20,3 °C 6,7 °C 57 % 80 % 1023,0 hPa 0,0 l/m² 0,0 km/h (0 Bft) N 0 ° 0 min 0 W/m² 3,5 °C 6,7 °C 0,0 km/h (0 Bft)
30.05.2023 03:13 20,3 °C 6,5 °C 57 % 81 % 1023,1 hPa 0,0 l/m² 1,6 km/h (1 Bft) W-SW 247 ° 0 min 0 W/m² 3,5 °C 6,5 °C 3,2 km/h (1 Bft)
30.05.2023 03:14 20,2 °C 6,5 °C 57 % 81 % 1023,1 hPa 0,0 l/m² 1,6 km/h (1 Bft) W-SW 247 ° 0 min 0 W/m² 3,5 °C 6,5 °C 3,2 km/h (1 Bft)
30.05.2023 03:15 20,2 °C 6,5 °C 57 % 82 % 1023,1 hPa 0,0 l/m² 3,2 km/h (1 Bft) W-SW 247 ° 0 min 0 W/m² 3,7 °C 6,5 °C 3,2 km/h (1 Bft)
30.05.2023 03:16 20,3 °C 6,5 °C 57 % 82 % 1023,1 hPa 0,0 l/m² 3,2 km/h (1 Bft) W-SW 247 ° 0 min 0 W/m² 3,7 °C 6,5 °C 3,2 km/h (1 Bft)
30.05.2023 03:17 20,3 °C 6,6 °C 57 % 83 % 1023,1 hPa 0,0 l/m² 3,2 km/h (1 Bft) W-SW 247 ° 0 min 0 W/m² 3,9 °C 6,6 °C 4,8 km/h (1 Bft)
30.05.2023 03:18 20,3 °C 6,5 °C 57 % 82 % 1023,1 hPa 0,0 l/m² 3,2 km/h (1 Bft) W-SW 247 ° 0 min 0 W/m² 3,7 °C 6,5 °C 4,8 km/h (1 Bft)
30.05.2023 03:19 20,3 °C 6,5 °C 57 % 83 % 1023,1 hPa 0,0 l/m² 3,2 km/h (1 Bft) W-SW 247 ° 0 min 0 W/m² 3,8 °C 6,5 °C 4,8 km/h (1 Bft)
30.05.2023 03:20 20,3 °C 6,5 °C 57 % 83 % 1023,1 hPa 0,0 l/m² 3,2 km/h (1 Bft) W-SW 247 ° 0 min 0 W/m² 3,8 °C 6,5 °C 4,8 km/h (1 Bft)
30.05.2023 03:21 20,3 °C 6,5 °C 57 % 83 % 1023,1 hPa 0,0 l/m² 3,2 km/h (1 Bft) W-SW 247 ° 0 min 0 W/m² 3,8 °C 6,5 °C 6,4 km/h (2 Bft)
30.05.2023 03:22 20,3 °C 6,5 °C 57 % 83 % 1023,1 hPa 0,0 l/m² 3,2 km/h (1 Bft) W-SW 247 ° 0 min 0 W/m² 3,8 °C 6,5 °C 4,8 km/h (1 Bft)
30.05.2023 03:23 20,3 °C 6,6 °C 57 % 83 % 1023,1 hPa 0,0 l/m² 3,2 km/h (1 Bft) W-SW 247 ° 0 min 0 W/m² 3,9 °C 6,6 °C 4,8 km/h (1 Bft)
30.05.2023 03:24 20,3 °C 6,5 °C 57 % 83 % 1023,1 hPa 0,0 l/m² 3,2 km/h (1 Bft) W-SW 247 ° 0 min 0 W/m² 3,8 °C 6,5 °C 3,2 km/h (1 Bft)
30.05.2023 03:25 20,2 °C 6,6 °C 57 % 83 % 1023,1 hPa 0,0 l/m² 1,6 km/h (1 Bft) W-SW 247 ° 0 min 0 W/m² 3,9 °C 6,6 °C 3,2 km/h (1 Bft)
30.05.2023 03:26 20,3 °C 6,6 °C 57 % 83 % 1023,2 hPa 0,0 l/m² 3,2 km/h (1 Bft) W-SW 247 ° 0 min 0 W/m² 3,9 °C 6,6 °C 3,2 km/h (1 Bft)
30.05.2023 03:27 20,3 °C 6,6 °C 57 % 83 % 1023,2 hPa 0,0 l/m² 3,2 km/h (1 Bft) W-SW 247 ° 0 min 0 W/m² 3,9 °C 6,6 °C 3,2 km/h (1 Bft)
30.05.2023 03:28 20,2 °C 6,5 °C 57 % 82 % 1023,2 hPa 0,0 l/m² 1,6 km/h (1 Bft) W-SW 247 ° 0 min 0 W/m² 3,7 °C 6,5 °C 3,2 km/h (1 Bft)
30.05.2023 03:29 20,2 °C 6,4 °C 57 % 82 % 1023,2 hPa 0,0 l/m² 1,6 km/h (1 Bft) W-SW 247 ° 0 min 0 W/m² 3,6 °C 6,4 °C 3,2 km/h (1 Bft)
30.05.2023 03:30 20,2 °C 6,3 °C 57 % 82 % 1023,2 hPa 0,0 l/m² 0,0 km/h (0 Bft) W-SW 247 ° 0 min 0 W/m² 3,5 °C 6,3 °C 1,6 km/h (1 Bft)
30.05.2023 03:31 20,3 °C 6,3 °C 57 % 82 % 1023,2 hPa 0,0 l/m² 0,0 km/h (0 Bft) N 0 ° 0 min 0 W/m² 3,5 °C 6,3 °C 0,0 km/h (0 Bft)
30.05.2023 03:32 20,2 °C 6,2 °C 57 % 83 % 1023,2 hPa 0,0 l/m² 0,0 km/h (0 Bft) N 0 ° 0 min 0 W/m² 3,5 °C 6,2 °C 0,0 km/h (0 Bft)
30.05.2023 03:33 20,2 °C 6,1 °C 57 % 82 % 1023,1 hPa 0,0 l/m² 0,0 km/h (0 Bft) N 0 ° 0 min 0 W/m² 3,3 °C 6,1 °C 0,0 km/h (0 Bft)
30.05.2023 03:34 20,2 °C 6,1 °C 57 % 83 % 1023,2 hPa 0,0 l/m² 0,0 km/h (0 Bft) N 0 ° 0 min 0 W/m² 3,4 °C 6,1 °C 0,0 km/h (0 Bft)
30.05.2023 03:35 20,2 °C 6,1 °C 57 % 83 % 1023,2 hPa 0,0 l/m² 0,0 km/h (0 Bft) N 0 ° 0 min 0 W/m² 3,4 °C 6,1 °C 0,0 km/h (0 Bft)
30.05.2023 03:36 20,2 °C 6,2 °C 57 % 84 % 1023,2 hPa 0,0 l/m² 0,0 km/h (0 Bft) W-SW 247 ° 0 min 0 W/m² 3,7 °C 6,2 °C 3,2 km/h (1 Bft)
30.05.2023 03:37 20,2 °C 6,2 °C 57 % 84 % 1023,2 hPa 0,0 l/m² 1,6 km/h (1 Bft) W-SW 247 ° 0 min 0 W/m² 3,7 °C 6,2 °C 3,2 km/h (1 Bft)
30.05.2023 03:38 20,2 °C 6,2 °C 57 % 84 % 1023,2 hPa 0,0 l/m² 0,0 km/h (0 Bft) N 0 ° 0 min 0 W/m² 3,7 °C 6,2 °C 0,0 km/h (0 Bft)
30.05.2023 03:39 20,3 °C 6,1 °C 57 % 84 % 1023,2 hPa 0,0 l/m² 0,0 km/h (0 Bft) N 0 ° 0 min 0 W/m² 3,6 °C 6,1 °C 0,0 km/h (0 Bft)
30.05.2023 03:40 20,2 °C 6,2 °C 57 % 84 % 1023,2 hPa 0,0 l/m² 0,0 km/h (0 Bft) N 0 ° 0 min 0 W/m² 3,7 °C 6,2 °C 0,0 km/h (0 Bft)
30.05.2023 03:41 20,2 °C 6,1 °C 57 % 84 % 1023,1 hPa 0,0 l/m² 0,0 km/h (0 Bft) W-SW 247 ° 0 min 0 W/m² 3,6 °C 6,1 °C 3,2 km/h (1 Bft)
30.05.2023 03:42 20,3 °C 6,1 °C 57 % 84 % 1023,2 hPa 0,0 l/m² 1,6 km/h (1 Bft) W-SW 247 ° 0 min 0 W/m² 3,6 °C 6,1 °C 3,2 km/h (1 Bft)
30.05.2023 03:43 20,2 °C 6,1 °C 57 % 84 % 1023,3 hPa 0,0 l/m² 3,2 km/h (1 Bft) W-SW 247 ° 0 min 0 W/m² 3,6 °C 6,1 °C 3,2 km/h (1 Bft)
30.05.2023 03:44 20,2 °C 6,1 °C 57 % 84 % 1023,2 hPa 0,0 l/m² 3,2 km/h (1 Bft) W-SW 247 ° 0 min 0 W/m² 3,6 °C 6,1 °C 4,8 km/h (1 Bft)
30.05.2023 03:45 20,2 °C 6,1 °C 57 % 84 % 1023,2 hPa 0,0 l/m² 0,0 km/h (0 Bft) W-SW 247 ° 0 min 0 W/m² 3,6 °C 6,1 °C 3,2 km/h (1 Bft)
30.05.2023 03:46 20,2 °C 6,1 °C 57 % 84 % 1023,2 hPa 0,0 l/m² 1,6 km/h (1 Bft) W-SW 247 ° 0 min 0 W/m² 3,6 °C 6,1 °C 3,2 km/h (1 Bft)
30.05.2023 03:47 20,2 °C 6,2 °C 57 % 84 % 1023,3 hPa 0,0 l/m² 1,6 km/h (1 Bft) W-SW 247 ° 0 min 0 W/m² 3,7 °C 6,2 °C 3,2 km/h (1 Bft)
30.05.2023 03:48 20,2 °C 6,3 °C 57 % 85 % 1023,2 hPa 0,0 l/m² 0,0 km/h (0 Bft) W-SW 247 ° 0 min 0 W/m² 4,0 °C 6,3 °C 1,6 km/h (1 Bft)
30.05.2023 03:49 20,2 °C 6,3 °C 57 % 84 % 1023,3 hPa 0,0 l/m² 0,0 km/h (0 Bft) N 0 ° 0 min 0 W/m² 3,8 °C 6,3 °C 0,0 km/h (0 Bft)
30.05.2023 03:50 20,2 °C 6,3 °C 57 % 84 % 1023,1 hPa 0,0 l/m² 0,0 km/h (0 Bft) N 0 ° 0 min 0 W/m² 3,8 °C 6,3 °C 0,0 km/h (0 Bft)
30.05.2023 03:51 20,2 °C 6,4 °C 57 % 84 % 1023,2 hPa 0,0 l/m² 0,0 km/h (0 Bft) N 0 ° 0 min 0 W/m² 3,9 °C 6,4 °C 0,0 km/h (0 Bft)
30.05.2023 03:52 20,2 °C 6,4 °C 57 % 84 % 1023,1 hPa 0,0 l/m² 0,0 km/h (0 Bft) W-SW 247 ° 0 min 0 W/m² 3,9 °C 6,4 °C 1,6 km/h (1 Bft)
30.05.2023 03:53 20,2 °C 6,4 °C 57 % 84 % 1023,2 hPa 0,0 l/m² 3,2 km/h (1 Bft) W-SW 247 ° 0 min 0 W/m² 3,9 °C 6,4 °C 6,4 km/h (2 Bft)
30.05.2023 03:54 20,2 °C 6,5 °C 57 % 83 % 1023,2 hPa 0,0 l/m² 1,6 km/h (1 Bft) W-NW 292 ° 0 min 0 W/m² 3,8 °C 6,5 °C 3,2 km/h (1 Bft)
30.05.2023 03:55 20,2 °C 6,6 °C 56 % 83 % 1023,2 hPa 0,0 l/m² 1,6 km/h (1 Bft) W-NW 292 ° 0 min 0 W/m² 3,9 °C 6,6 °C 3,2 km/h (1 Bft)
30.05.2023 03:56 20,2 °C 6,6 °C 56 % 82 % 1023,1 hPa 0,0 l/m² 0,0 km/h (0 Bft) W-NW 292 ° 0 min 0 W/m² 3,8 °C 6,6 °C 1,6 km/h (1 Bft)
30.05.2023 03:57 20,2 °C 6,6 °C 57 % 82 % 1023,2 hPa 0,0 l/m² 0,0 km/h (0 Bft) W-NW 292 ° 0 min 0 W/m² 3,8 °C 6,6 °C 1,6 km/h (1 Bft)
30.05.2023 03:58 20,2 °C 6,6 °C 56 % 82 % 1023,2 hPa 0,0 l/m² 1,6 km/h (1 Bft) W-NW 292 ° 0 min 0 W/m² 3,8 °C 6,6 °C 3,2 km/h (1 Bft)
30.05.2023 03:59 20,2 °C 6,7 °C 56 % 82 % 1023,2 hPa 0,0 l/m² 0,0 km/h (0 Bft) N 0 ° 0 min 0 W/m² 3,8 °C 6,7 °C 0,0 km/h (0 Bft)
30.05.2023 04:00 20,2 °C 6,7 °C 56 % 81 % 1023,3 hPa 0,0 l/m² 0,0 km/h (0 Bft) N 0 ° 0 min 0 W/m² 3,7 °C 6,7 °C 0,0 km/h (0 Bft)
30.05.2023 04:01 20,2 °C 6,7 °C 56 % 81 % 1023,2 hPa 0,0 l/m² 0,0 km/h (0 Bft) N 0 ° 0 min 0 W/m² 3,7 °C 6,7 °C 0,0 km/h (0 Bft)
30.05.2023 04:02 20,2 °C 6,7 °C 56 % 81 % 1023,2 hPa 0,0 l/m² 0,0 km/h (0 Bft) N 0 ° 0 min 0 W/m² 3,7 °C 6,7 °C 0,0 km/h (0 Bft)
30.05.2023 04:03 20,2 °C 6,7 °C 56 % 82 % 1023,3 hPa 0,0 l/m² 0,0 km/h (0 Bft) N 0 ° 0 min 0 W/m² 3,8 °C 6,7 °C 0,0 km/h (0 Bft)
30.05.2023 04:04 20,2 °C 6,7 °C 56 % 82 % 1023,2 hPa 0,0 l/m² 0,0 km/h (0 Bft) N 0 ° 0 min 0 W/m² 3,8 °C 6,7 °C 0,0 km/h (0 Bft)
30.05.2023 04:05 20,2 °C 6,7 °C 56 % 82 % 1023,3 hPa 0,0 l/m² 0,0 km/h (0 Bft) N 0 ° 0 min 0 W/m² 3,8 °C 6,7 °C 0,0 km/h (0 Bft)
30.05.2023 04:06 20,2 °C 6,7 °C 56 % 82 % 1023,2 hPa 0,0 l/m² 0,0 km/h (0 Bft) N 0 ° 0 min 0 W/m² 3,8 °C 6,7 °C 0,0 km/h (0 Bft)
30.05.2023 04:07 20,2 °C 6,7 °C 56 % 83 % 1023,3 hPa 0,0 l/m² 0,0 km/h (0 Bft) N 0 ° 0 min 0 W/m² 4,0 °C 6,7 °C 0,0 km/h (0 Bft)
30.05.2023 04:08 20,2 °C 6,7 °C 57 % 83 % 1023,2 hPa 0,0 l/m² 0,0 km/h (0 Bft) N 0 ° 0 min 0 W/m² 4,0 °C 6,7 °C 0,0 km/h (0 Bft)
30.05.2023 04:09 20,2 °C 6,6 °C 57 % 84 % 1023,3 hPa 0,0 l/m² 0,0 km/h (0 Bft) N 0 ° 0 min 0 W/m² 4,1 °C 6,6 °C 0,0 km/h (0 Bft)
30.05.2023 04:10 20,2 °C 6,6 °C 57 % 84 % 1023,3 hPa 0,0 l/m² 0,0 km/h (0 Bft) W-NW 292 ° 0 min 0 W/m² 4,1 °C 6,6 °C 1,6 km/h (1 Bft)
30.05.2023 04:11 20,2 °C 6,6 °C 57 % 84 % 1023,2 hPa 0,0 l/m² 0,0 km/h (0 Bft) N 0 ° 0 min 0 W/m² 4,1 °C 6,6 °C 0,0 km/h (0 Bft)
30.05.2023 04:12 20,2 °C 6,6 °C 57 % 84 % 1023,3 hPa 0,0 l/m² 0,0 km/h (0 Bft) N 0 ° 0 min 0 W/m² 4,1 °C 6,6 °C 0,0 km/h (0 Bft)
30.05.2023 04:13 20,2 °C 6,6 °C 57 % 84 % 1023,3 hPa 0,0 l/m² 0,0 km/h (0 Bft) N 0 ° 0 min 0 W/m² 4,1 °C 6,6 °C 0,0 km/h (0 Bft)
30.05.2023 04:14 20,2 °C 6,6 °C 57 % 83 % 1023,4 hPa 0,0 l/m² 0,0 km/h (0 Bft) N 0 ° 0 min 0 W/m² 3,9 °C 6,6 °C 0,0 km/h (0 Bft)
30.05.2023 04:15 20,2 °C 6,6 °C 57 % 83 % 1023,4 hPa 0,0 l/m² 0,0 km/h (0 Bft) W-NW 292 ° 0 min 0 W/m² 3,9 °C 6,6 °C 1,6 km/h (1 Bft)
30.05.2023 04:16 20,2 °C 6,6 °C 57 % 83 % 1023,3 hPa 0,0 l/m² 1,6 km/h (1 Bft) W-NW 292 ° 0 min 0 W/m² 3,9 °C 6,6 °C 4,8 km/h (1 Bft)
30.05.2023 04:17 20,2 °C 6,6 °C 57 % 82 % 1023,3 hPa 0,0 l/m² 1,6 km/h (1 Bft) W-NW 292 ° 0 min 0 W/m² 3,8 °C 6,6 °C 4,8 km/h (1 Bft)
30.05.2023 04:18 20,2 °C 6,7 °C 57 % 82 % 1023,2 hPa 0,0 l/m² 1,6 km/h (1 Bft) W-NW 292 ° 0 min 0 W/m² 3,8 °C 6,7 °C 3,2 km/h (1 Bft)
30.05.2023 04:19 20,2 °C 6,7 °C 57 % 81 % 1023,3 hPa 0,0 l/m² 1,6 km/h (1 Bft) W-NW 292 ° 0 min 0 W/m² 3,7 °C 6,7 °C 4,8 km/h (1 Bft)
30.05.2023 04:20 20,2 °C 6,7 °C 57 % 81 % 1023,2 hPa 0,0 l/m² 3,2 km/h (1 Bft) W-NW 292 ° 0 min 0 W/m² 3,7 °C 6,7 °C 8,0 km/h (2 Bft)
30.05.2023 04:21 20,2 °C 6,7 °C 57 % 81 % 1023,2 hPa 0,0 l/m² 3,2 km/h (1 Bft) W-NW 292 ° 0 min 0 W/m² 3,7 °C 6,7 °C 4,8 km/h (1 Bft)
30.05.2023 04:22 20,2 °C 6,7 °C 57 % 80 % 1023,3 hPa 0,0 l/m² 3,2 km/h (1 Bft) W-NW 292 ° 0 min 0 W/m² 3,5 °C 6,7 °C 3,2 km/h (1 Bft)
30.05.2023 04:23 20,2 °C 6,7 °C 57 % 80 % 1023,3 hPa 0,0 l/m² 1,6 km/h (1 Bft) W-NW 292 ° 0 min 0 W/m² 3,5 °C 6,7 °C 3,2 km/h (1 Bft)
30.05.2023 04:24 20,2 °C 6,8 °C 57 % 80 % 1023,3 hPa 0,0 l/m² 1,6 km/h (1 Bft) W-NW 292 ° 0 min 0 W/m² 3,6 °C 6,8 °C 3,2 km/h (1 Bft)
30.05.2023 04:25 20,2 °C 6,8 °C 57 % 80 % 1023,3 hPa 0,0 l/m² 3,2 km/h (1 Bft) W-NW 292 ° 0 min 0 W/m² 3,6 °C 6,8 °C 4,8 km/h (1 Bft)
30.05.2023 04:26 20,2 °C 6,8 °C 57 % 80 % 1023,3 hPa 0,0 l/m² 1,6 km/h (1 Bft) W-NW 292 ° 0 min 0 W/m² 3,6 °C 6,8 °C 3,2 km/h (1 Bft)
30.05.2023 04:27 20,2 °C 6,8 °C 57 % 80 % 1023,4 hPa 0,0 l/m² 0,0 km/h (0 Bft) W-NW 292 ° 0 min 0 W/m² 3,6 °C 6,8 °C 1,6 km/h (1 Bft)
30.05.2023 04:28 20,2 °C 6,8 °C 57 % 80 % 1023,3 hPa 0,0 l/m² 1,6 km/h (1 Bft) W-NW 292 ° 0 min 0 W/m² 3,6 °C 6,8 °C 4,8 km/h (1 Bft)
30.05.2023 04:29 20,2 °C 6,8 °C 57 % 80 % 1023,3 hPa 0,0 l/m² 1,6 km/h (1 Bft) W-NW 292 ° 0 min 0 W/m² 3,6 °C 6,8 °C 3,2 km/h (1 Bft)
30.05.2023 04:30 20,2 °C 6,7 °C 57 % 80 % 1023,3 hPa 0,0 l/m² 0,0 km/h (0 Bft) W-NW 292 ° 0 min 0 W/m² 3,5 °C 6,7 °C 1,6 km/h (1 Bft)
30.05.2023 04:31 20,2 °C 6,6 °C 57 % 80 % 1023,3 hPa 0,0 l/m² 0,0 km/h (0 Bft) W-NW 292 ° 0 min 0 W/m² 3,4 °C 6,6 °C 1,6 km/h (1 Bft)
30.05.2023 04:32 20,2 °C 6,6 °C 57 % 80 % 1023,3 hPa 0,0 l/m² 0,0 km/h (0 Bft) N 0 ° 0 min 0 W/m² 3,4 °C 6,6 °C 0,0 km/h (0 Bft)
30.05.2023 04:38 20,2 °C 6,2 °C 56 % 81 % 1023,2 hPa 0,0 l/m² 0,0 km/h (0 Bft) W-NW 290 ° 0 min 0 W/m² 3,2 °C 6,2 °C 0,0 km/h (0 Bft)
30.05.2023 04:40 20,2 °C 6,2 °C 56 % 81 % 1023,3 hPa 0,0 l/m² 0,0 km/h (0 Bft) W-NW 290 ° 0 min 0 W/m² 3,2 °C 6,2 °C 0,0 km/h (0 Bft)
30.05.2023 04:41 20,2 °C 6,1 °C 56 % 81 % 1023,2 hPa 0,0 l/m² 0,7 km/h (0 Bft) W-NW 290 ° 0 min 0 W/m² 3,1 °C 6,1 °C 4,8 km/h (1 Bft)
30.05.2023 04:43 20,3 °C 6,1 °C 56 % 81 % 1023,4 hPa 0,0 l/m² 0,9 km/h (0 Bft) W-NW 293 ° 0 min 0 W/m² 3,1 °C 6,1 °C 6,4 km/h (2 Bft)
30.05.2023 04:45 20,3 °C 6,0 °C 56 % 81 % 1023,3 hPa 0,0 l/m² 0,1 km/h (0 Bft) W-NW 293 ° 0 min 0 W/m² 3,0 °C 6,0 °C 1,6 km/h (1 Bft)
30.05.2023 04:47 20,3 °C 6,0 °C 56 % 81 % 1023,4 hPa 0,0 l/m² 0,0 km/h (0 Bft) W-NW 293 ° 0 min 0 W/m² 3,0 °C 6,0 °C 0,0 km/h (0 Bft)
30.05.2023 04:49 20,3 °C 5,9 °C 56 % 81 % 1023,4 hPa 0,0 l/m² 0,0 km/h (0 Bft) W-NW 293 ° 0 min 0 W/m² 2,9 °C 5,9 °C 0,0 km/h (0 Bft)
30.05.2023 04:50 20,3 °C 5,9 °C 56 % 81 % 1023,4 hPa 0,0 l/m² 0,9 km/h (0 Bft) W-NW 293 ° 0 min 0 W/m² 2,9 °C 5,9 °C 3,2 km/h (1 Bft)
30.05.2023 04:52 20,3 °C 5,8 °C 56 % 81 % 1023,4 hPa 0,0 l/m² 0,0 km/h (0 Bft) W-NW 293 ° 0 min 0 W/m² 2,8 °C 5,8 °C 0,0 km/h (0 Bft)
30.05.2023 04:53 20,3 °C 5,7 °C 56 % 81 % 1023,3 hPa 0,0 l/m² 0,0 km/h (0 Bft) W-NW 293 ° 0 min 0 W/m² 2,7 °C 5,7 °C 0,0 km/h (0 Bft)
30.05.2023 04:55 20,3 °C 5,6 °C 56 % 81 % 1023,4 hPa 0,0 l/m² 0,0 km/h (0 Bft) W-NW 293 ° 0 min 0 W/m² 2,6 °C 5,6 °C 0,0 km/h (0 Bft)
30.05.2023 04:57 20,3 °C 5,6 °C 56 % 82 % 1023,3 hPa 0,0 l/m² 0,0 km/h (0 Bft) W-NW 293 ° 0 min 0 W/m² 2,8 °C 5,6 °C 1,6 km/h (1 Bft)
30.05.2023 04:59 20,3 °C 5,7 °C 56 % 82 % 1023,5 hPa 0,0 l/m² 0,0 km/h (0 Bft) W-NW 293 ° 0 min 0 W/m² 2,9 °C 5,7 °C 1,6 km/h (1 Bft)
30.05.2023 05:00 20,4 °C 5,7 °C 56 % 82 % 1023,4 hPa 0,0 l/m² 5,1 km/h (1 Bft) NW 309 ° 0 min 0 W/m² 2,9 °C 5,7 °C 11,3 km/h (2 Bft)
30.05.2023 05:02 20,4 °C 5,8 °C 56 % 82 % 1023,4 hPa 0,0 l/m² 1,7 km/h (1 Bft) NW 309 ° 0 min 0 W/m² 3,0 °C 5,8 °C 4,8 km/h (1 Bft)
30.05.2023 05:03 20,4 °C 5,9 °C 56 % 82 % 1023,4 hPa 0,0 l/m² 1,5 km/h (1 Bft) NW 309 ° 0 min 5 W/m² 3,1 °C 5,9 °C 6,4 km/h (2 Bft)
30.05.2023 05:05 20,4 °C 6,1 °C 56 % 81 % 1023,4 hPa 0,0 l/m² 2,0 km/h (1 Bft) W-NW 294 ° 0 min 5 W/m² 3,1 °C 6,1 °C 6,4 km/h (2 Bft)
30.05.2023 05:07 20,4 °C 6,2 °C 56 % 81 % 1023,5 hPa 0,0 l/m² 1,2 km/h (1 Bft) N-NW 348 ° 0 min 5 W/m² 3,2 °C 6,2 °C 6,4 km/h (2 Bft)
30.05.2023 05:09 20,4 °C 6,3 °C 56 % 81 % 1023,5 hPa 0,0 l/m² 4,5 km/h (1 Bft) W-NW 301 ° 0 min 5 W/m² 3,3 °C 6,3 °C 11,3 km/h (2 Bft)
30.05.2023 05:10 20,4 °C 6,4 °C 56 % 81 % 1023,5 hPa 0,0 l/m² 7,6 km/h (2 Bft) NW 304 ° 0 min 7 W/m² 3,4 °C 5,4 °C 14,5 km/h (3 Bft)
30.05.2023 05:12 20,4 °C 6,6 °C 56 % 80 % 1023,5 hPa 0,0 l/m² 4,8 km/h (1 Bft) W-NW 300 ° 0 min 7 W/m² 3,4 °C 6,6 °C 12,9 km/h (3 Bft)
30.05.2023 05:13 20,4 °C 6,7 °C 56 % 80 % 1023,6 hPa 0,0 l/m² 6,9 km/h (2 Bft) N 355 ° 0 min 7 W/m² 3,5 °C 6,3 °C 12,9 km/h (3 Bft)
30.05.2023 05:15 20,4 °C 6,7 °C 56 % 79 % 1023,6 hPa 0,0 l/m² 2,6 km/h (1 Bft) NW 305 ° 0 min 9 W/m² 3,3 °C 6,7 °C 4,8 km/h (1 Bft)
30.05.2023 05:17 20,4 °C 6,8 °C 56 % 79 % 1023,7 hPa 0,0 l/m² 4,2 km/h (1 Bft) W-NW 292 ° 0 min 9 W/m² 3,4 °C 6,8 °C 11,3 km/h (2 Bft)
30.05.2023 05:19 20,4 °C 6,8 °C 56 % 79 % 1023,6 hPa 0,0 l/m² 4,9 km/h (1 Bft) W-SW 247 ° 0 min 9 W/m² 3,4 °C 6,8 °C 12,9 km/h (3 Bft)
30.05.2023 05:20 20,4 °C 6,8 °C 56 % 79 % 1023,6 hPa 0,0 l/m² 3,3 km/h (1 Bft) NW 306 ° 0 min 9 W/m² 3,4 °C 6,8 °C 6,4 km/h (2 Bft)
30.05.2023 05:22 20,4 °C 6,9 °C 56 % 79 % 1023,6 hPa 0,0 l/m² 3,5 km/h (1 Bft) NW 319 ° 0 min 11 W/m² 3,5 °C 6,9 °C 8,0 km/h (2 Bft)
30.05.2023 05:24 20,4 °C 7,0 °C 56 % 79 % 1023,7 hPa 0,0 l/m² 5,0 km/h (1 Bft) NW 307 ° 0 min 11 W/m² 3,6 °C 7,0 °C 9,7 km/h (2 Bft)
30.05.2023 05:26 20,5 °C 7,1 °C 56 % 79 % 1023,7 hPa 0,0 l/m² 5,1 km/h (1 Bft) N 349 ° 0 min 11 W/m² 3,7 °C 7,1 °C 12,9 km/h (3 Bft)
30.05.2023 05:28 20,5 °C 7,1 °C 57 % 78 % 1023,8 hPa 0,0 l/m² 5,5 km/h (2 Bft) N-NW 327 ° 0 min 12 W/m² 3,5 °C 7,1 °C 9,7 km/h (2 Bft)
30.05.2023 05:30 20,5 °C 7,2 °C 57 % 78 % 1023,8 hPa 0,0 l/m² 2,3 km/h (1 Bft) W-SW 247 ° 0 min 12 W/m² 3,6 °C 7,2 °C 4,8 km/h (1 Bft)
30.05.2023 05:31 20,5 °C 7,2 °C 56 % 78 % 1023,7 hPa 0,0 l/m² 4,1 km/h (1 Bft) N-NO 29 ° 0 min 12 W/m² 3,6 °C 7,2 °C 11,3 km/h (2 Bft)
30.05.2023 05:32 20,5 °C 7,2 °C 56 % 79 % 1023,8 hPa 0,0 l/m² 2,9 km/h (1 Bft) SW 234 ° 0 min 12 W/m² 3,8 °C 7,2 °C 4,8 km/h (1 Bft)
30.05.2023 05:33 20,5 °C 7,1 °C 56 % 79 % 1023,8 hPa 0,0 l/m² 3,4 km/h (1 Bft) W-NW 284 ° 0 min 12 W/m² 3,7 °C 7,1 °C 11,3 km/h (2 Bft)
30.05.2023 05:34 20,5 °C 7,1 °C 56 % 79 % 1023,9 hPa 0,0 l/m² 5,2 km/h (1 Bft) W-NW 296 ° 0 min 12 W/m² 3,7 °C 7,1 °C 9,7 km/h (2 Bft)
30.05.2023 05:36 20,5 °C 7,2 °C 54 % 79 % 1023,8 hPa 0,0 l/m² 3,6 km/h (1 Bft) N-NW 342 ° 0 min 12 W/m² 3,8 °C 7,2 °C 8,0 km/h (2 Bft)
30.05.2023 05:38 20,4 °C 7,1 °C 54 % 79 % 1023,9 hPa 0,0 l/m² 3,3 km/h (1 Bft) N 350 ° 0 min 14 W/m² 3,7 °C 7,1 °C 9,7 km/h (2 Bft)
30.05.2023 05:40 20,5 °C 7,1 °C 54 % 79 % 1023,8 hPa 0,0 l/m² 2,3 km/h (1 Bft) NO 38 ° 0 min 14 W/m² 3,7 °C 7,1 °C 4,8 km/h (1 Bft)
30.05.2023 05:41 20,4 °C 7,1 °C 54 % 79 % 1023,8 hPa 0,0 l/m² 5,1 km/h (1 Bft) W 267 ° 0 min 14 W/m² 3,7 °C 7,1 °C 11,3 km/h (2 Bft)
30.05.2023 05:42 20,4 °C 7,1 °C 54 % 79 % 1023,9 hPa 0,0 l/m² 2,4 km/h (1 Bft) NW 326 ° 0 min 14 W/m² 3,7 °C 7,1 °C 4,8 km/h (1 Bft)
30.05.2023 05:43 20,4 °C 7,1 °C 54 % 80 % 1023,9 hPa 0,0 l/m² 2,4 km/h (1 Bft) W-NW 302 ° 0 min 14 W/m² 3,9 °C 7,1 °C 4,8 km/h (1 Bft)
30.05.2023 05:44 20,4 °C 7,1 °C 54 % 80 % 1024,0 hPa 0,0 l/m² 0,8 km/h (0 Bft) W-NW 292 ° 0 min 16 W/m² 3,9 °C 7,1 °C 3,2 km/h (1 Bft)
30.05.2023 05:46 20,4 °C 7,2 °C 54 % 80 % 1023,9 hPa 0,0 l/m² 2,3 km/h (1 Bft) NW 315 ° 0 min 16 W/m² 4,0 °C 7,2 °C 6,4 km/h (2 Bft)
30.05.2023 05:48 20,4 °C 7,2 °C 54 % 80 % 1023,9 hPa 0,0 l/m² 0,5 km/h (0 Bft) NW 305 ° 0 min 16 W/m² 4,0 °C 7,2 °C 3,2 km/h (1 Bft)
30.05.2023 05:50 20,4 °C 7,2 °C 54 % 80 % 1023,9 hPa 0,0 l/m² 2,7 km/h (1 Bft) W-NW 302 ° 0 min 16 W/m² 4,0 °C 7,2 °C 8,0 km/h (2 Bft)
30.05.2023 05:51 20,4 °C 7,2 °C 54 % 80 % 1024,0 hPa 0,0 l/m² 3,7 km/h (1 Bft) NW 317 ° 0 min 16 W/m² 4,0 °C 7,2 °C 6,4 km/h (2 Bft)
30.05.2023 05:52 20,4 °C 7,2 °C 54 % 80 % 1024,0 hPa 0,0 l/m² 4,9 km/h (1 Bft) NW 315 ° 0 min 16 W/m² 4,0 °C 7,2 °C 11,3 km/h (2 Bft)
30.05.2023 05:53 20,4 °C 7,3 °C 54 % 80 % 1024,0 hPa 0,0 l/m² 4,5 km/h (1 Bft) W-NW 295 ° 0 min 18 W/m² 4,1 °C 7,3 °C 8,0 km/h (2 Bft)
30.05.2023 05:54 20,4 °C 7,3 °C 54 % 80 % 1024,0 hPa 0,0 l/m² 1,5 km/h (1 Bft) W 261 ° 0 min 18 W/m² 4,1 °C 7,3 °C 4,8 km/h (1 Bft)
30.05.2023 05:56 20,4 °C 7,3 °C 54 % 80 % 1024,1 hPa 0,0 l/m² 0,4 km/h (0 Bft) W 261 ° 0 min 18 W/m² 4,1 °C 7,3 °C 3,2 km/h (1 Bft)
30.05.2023 05:58 20,4 °C 7,3 °C 54 % 81 % 1024,0 hPa 0,0 l/m² 3,2 km/h (1 Bft) W 279 ° 0 min 19 W/m² 4,3 °C 7,3 °C 6,4 km/h (2 Bft)
30.05.2023 06:00 20,4 °C 7,5 °C 54 % 81 % 1024,1 hPa 0,0 l/m² 1,2 km/h (1 Bft) W-NW 297 ° 0 min 19 W/m² 4,5 °C 7,5 °C 4,8 km/h (1 Bft)
30.05.2023 06:01 20,4 °C 7,5 °C 54 % 81 % 1024,0 hPa 0,0 l/m² 0,0 km/h (0 Bft) W-NW 297 ° 0 min 19 W/m² 4,5 °C 7,5 °C 0,0 km/h (0 Bft)
30.05.2023 06:02 20,4 °C 7,4 °C 54 % 80 % 1024,0 hPa 0,0 l/m² 5,7 km/h (2 Bft) NW 320 ° 0 min 19 W/m² 4,2 °C 7,4 °C 11,3 km/h (2 Bft)
30.05.2023 06:03 20,4 °C 7,5 °C 54 % 80 % 1024,0 hPa 0,0 l/m² 1,4 km/h (1 Bft) NW 321 ° 0 min 21 W/m² 4,3 °C 7,5 °C 3,2 km/h (1 Bft)
30.05.2023 06:04 20,4 °C 7,5 °C 54 % 80 % 1024,0 hPa 0,0 l/m² 2,4 km/h (1 Bft) W-SW 244 ° 0 min 21 W/m² 4,3 °C 7,5 °C 4,8 km/h (1 Bft)
30.05.2023 06:06 20,4 °C 7,5 °C 54 % 81 % 1024,0 hPa 0,0 l/m² 2,1 km/h (1 Bft) W-NW 286 ° 0 min 21 W/m² 4,5 °C 7,5 °C 6,4 km/h (2 Bft)
30.05.2023 06:08 20,4 °C 7,5 °C 54 % 81 % 1024,0 hPa 0,0 l/m² 0,5 km/h (0 Bft) W 277 ° 0 min 23 W/m² 4,5 °C 7,5 °C 3,2 km/h (1 Bft)
30.05.2023 06:10 20,4 °C 7,4 °C 54 % 81 % 1024,0 hPa 0,0 l/m² 0,8 km/h (0 Bft) W-NW 285 ° 0 min 25 W/m² 4,4 °C 7,4 °C 4,8 km/h (1 Bft)
30.05.2023 06:11 20,4 °C 7,3 °C 54 % 81 % 1024,0 hPa 0,0 l/m² 2,3 km/h (1 Bft) W-SW 250 ° 0 min 25 W/m² 4,3 °C 7,3 °C 4,8 km/h (1 Bft)
30.05.2023 06:12 20,4 °C 7,3 °C 54 % 82 % 1024,1 hPa 0,0 l/m² 0,6 km/h (0 Bft) W 264 ° 0 min 25 W/m² 4,4 °C 7,3 °C 1,6 km/h (1 Bft)
30.05.2023 06:13 20,4 °C 7,3 °C 54 % 82 % 1024,0 hPa 0,0 l/m² 3,7 km/h (1 Bft) W 267 ° 0 min 26 W/m² 4,4 °C 7,3 °C 6,4 km/h (2 Bft)
30.05.2023 06:14 20,4 °C 7,4 °C 55 % 83 % 1024,0 hPa 0,0 l/m² 2,1 km/h (1 Bft) W-NW 291 ° 0 min 26 W/m² 4,7 °C 7,4 °C 4,8 km/h (1 Bft)
30.05.2023 06:16 20,4 °C 7,4 °C 54 % 83 % 1024,1 hPa 0,0 l/m² 0,6 km/h (0 Bft) SW 224 ° 0 min 26 W/m² 4,7 °C 7,4 °C 3,2 km/h (1 Bft)
30.05.2023 06:18 20,4 °C 7,4 °C 55 % 83 % 1024,1 hPa 0,0 l/m² 2,5 km/h (1 Bft) NW 306 ° 0 min 28 W/m² 4,7 °C 7,4 °C 6,4 km/h (2 Bft)
30.05.2023 06:20 20,4 °C 7,5 °C 55 % 83 % 1024,0 hPa 0,0 l/m² 2,8 km/h (1 Bft) W-NW 295 ° 0 min 30 W/m² 4,8 °C 7,5 °C 11,3 km/h (2 Bft)
30.05.2023 06:21 20,4 °C 7,6 °C 55 % 83 % 1024,1 hPa 0,0 l/m² 2,7 km/h (1 Bft) W 263 ° 0 min 32 W/m² 4,9 °C 7,6 °C 11,3 km/h (2 Bft)
30.05.2023 06:22 20,4 °C 7,6 °C 55 % 83 % 1024,1 hPa 0,0 l/m² 0,1 km/h (0 Bft) W 269 ° 0 min 32 W/m² 4,9 °C 7,6 °C 1,6 km/h (1 Bft)
30.05.2023 06:23 20,4 °C 7,7 °C 55 % 83 % 1024,1 hPa 0,0 l/m² 3,1 km/h (1 Bft) NW 323 ° 0 min 32 W/m² 5,0 °C 7,7 °C 4,8 km/h (1 Bft)
30.05.2023 06:24 20,4 °C 7,7 °C 55 % 83 % 1024,2 hPa 0,0 l/m² 3,2 km/h (1 Bft) NW 313 ° 0 min 33 W/m² 5,0 °C 7,7 °C 8,0 km/h (2 Bft)
30.05.2023 06:26 20,4 °C 7,7 °C 55 % 83 % 1024,1 hPa 0,0 l/m² 5,5 km/h (2 Bft) W-SW 251 ° 0 min 35 W/m² 5,0 °C 7,7 °C 9,7 km/h (2 Bft)
30.05.2023 06:28 20,4 °C 7,8 °C 55 % 83 % 1024,2 hPa 0,0 l/m² 2,8 km/h (1 Bft) S-SW 192 ° 0 min 39 W/m² 5,1 °C 7,8 °C 6,4 km/h (2 Bft)
30.05.2023 06:30 20,4 °C 7,7 °C 55 % 83 % 1024,2 hPa 0,0 l/m² 2,9 km/h (1 Bft) W 269 ° 2 min 63 W/m² 5,0 °C 7,7 °C 4,8 km/h (1 Bft)
30.05.2023 06:31 20,4 °C 7,7 °C 55 % 83 % 1024,2 hPa 0,0 l/m² 3,2 km/h (1 Bft) W-SW 244 ° 1 min 63 W/m² 5,0 °C 7,7 °C 4,8 km/h (1 Bft)
30.05.2023 06:32 20,4 °C 7,7 °C 55 % 83 % 1024,2 hPa 0,0 l/m² 1,9 km/h (1 Bft) W-SW 246 ° 1 min 95 W/m² 5,0 °C 7,7 °C 3,2 km/h (1 Bft)
30.05.2023 06:33 20,4 °C 7,7 °C 55 % 84 % 1024,2 hPa 0,0 l/m² 5,5 km/h (2 Bft) W-SW 238 ° 1 min 127 W/m² 5,2 °C 7,7 °C 8,0 km/h (2 Bft)
30.05.2023 06:34 20,4 °C 7,7 °C 55 % 84 % 1024,3 hPa 0,0 l/m² 3,9 km/h (1 Bft) W-SW 239 ° 1 min 130 W/m² 5,2 °C 7,7 °C 8,0 km/h (2 Bft)
30.05.2023 06:36 20,4 °C 7,7 °C 55 % 84 % 1024,2 hPa 0,0 l/m² 4,8 km/h (1 Bft) SW 233 ° 2 min 134 W/m² 5,2 °C 7,7 °C 8,0 km/h (2 Bft)
30.05.2023 06:38 20,4 °C 7,6 °C 55 % 84 % 1024,2 hPa 0,0 l/m² 4,6 km/h (1 Bft) S-SW 204 ° 2 min 144 W/m² 5,1 °C 7,6 °C 6,4 km/h (2 Bft)
30.05.2023 06:40 20,4 °C 7,7 °C 55 % 85 % 1024,2 hPa 0,0 l/m² 5,3 km/h (1 Bft) S-SW 211 ° 2 min 128 W/m² 5,3 °C 7,7 °C 8,0 km/h (2 Bft)
30.05.2023 06:41 20,4 °C 7,7 °C 55 % 85 % 1024,1 hPa 0,0 l/m² 7,0 km/h (2 Bft) S-SW 205 ° 1 min 102 W/m² 5,3 °C 7,2 °C 9,7 km/h (2 Bft)
30.05.2023 06:43 20,4 °C 7,7 °C 55 % 85 % 1024,2 hPa 0,0 l/m² 6,0 km/h (2 Bft) S-SW 196 ° 2 min 74 W/m² 5,3 °C 7,7 °C 8,0 km/h (2 Bft)
30.05.2023 06:45 20,4 °C 7,8 °C 55 % 85 % 1024,2 hPa 0,0 l/m² 5,7 km/h (2 Bft) SW 222 ° 2 min 81 W/m² 5,4 °C 7,8 °C 8,0 km/h (2 Bft)
30.05.2023 06:47 20,4 °C 7,7 °C 55 % 86 % 1024,2 hPa 0,0 l/m² 6,7 km/h (2 Bft) S-SW 203 ° 0 min 51 W/m² 5,5 °C 7,5 °C 9,7 km/h (2 Bft)
30.05.2023 06:48 20,5 °C 7,7 °C 55 % 86 % 1024,2 hPa 0,0 l/m² 4,3 km/h (1 Bft) S-SW 207 ° 0 min 51 W/m² 5,5 °C 7,7 °C 4,8 km/h (1 Bft)
30.05.2023 06:50 20,4 °C 7,7 °C 55 % 86 % 1024,3 hPa 0,0 l/m² 5,0 km/h (1 Bft) SW 214 ° 2 min 53 W/m² 5,5 °C 7,7 °C 6,4 km/h (2 Bft)
30.05.2023 06:51 20,5 °C 7,6 °C 55 % 86 % 1024,2 hPa 0,0 l/m² 5,0 km/h (1 Bft) S-SW 208 ° 1 min 54 W/m² 5,4 °C 7,6 °C 8,0 km/h (2 Bft)
30.05.2023 06:52 20,5 °C 7,6 °C 55 % 86 % 1024,3 hPa 0,0 l/m² 5,1 km/h (1 Bft) SW 217 ° 1 min 54 W/m² 5,4 °C 7,6 °C 6,4 km/h (2 Bft)
30.05.2023 06:53 20,5 °C 7,6 °C 55 % 86 % 1024,2 hPa 0,0 l/m² 5,2 km/h (1 Bft) SW 234 ° 1 min 56 W/m² 5,4 °C 7,6 °C 6,4 km/h (2 Bft)
30.05.2023 06:54 20,4 °C 7,6 °C 55 % 87 % 1024,3 hPa 0,0 l/m² 4,5 km/h (1 Bft) SW 227 ° 1 min 54 W/m² 5,6 °C 7,6 °C 6,4 km/h (2 Bft)
30.05.2023 06:56 20,5 °C 7,6 °C 55 % 87 % 1024,3 hPa 0,0 l/m² 4,5 km/h (1 Bft) SW 228 ° 2 min 56 W/m² 5,6 °C 7,6 °C 6,4 km/h (2 Bft)
30.05.2023 06:58 20,5 °C 7,6 °C 55 % 87 % 1024,3 hPa 0,0 l/m² 4,0 km/h (1 Bft) SW 222 ° 2 min 62 W/m² 5,6 °C 7,6 °C 6,4 km/h (2 Bft)
30.05.2023 07:00 20,5 °C 7,6 °C 55 % 87 % 1024,3 hPa 0,0 l/m² 4,0 km/h (1 Bft) SW 228 ° 2 min 77 W/m² 5,6 °C 7,6 °C 6,4 km/h (2 Bft)
30.05.2023 07:01 20,5 °C 7,6 °C 55 % 87 % 1024,3 hPa 0,0 l/m² 3,8 km/h (1 Bft) S-SW 207 ° 1 min 84 W/m² 5,6 °C 7,6 °C 6,4 km/h (2 Bft)
30.05.2023 07:03 20,5 °C 7,7 °C 55 % 88 % 1024,3 hPa 0,0 l/m² 4,5 km/h (1 Bft) SW 234 ° 2 min 90 W/m² 5,8 °C 7,7 °C 6,4 km/h (2 Bft)
30.05.2023 07:05 20,5 °C 7,9 °C 55 % 88 % 1024,3 hPa 0,0 l/m² 4,7 km/h (1 Bft) SW 235 ° 2 min 90 W/m² 6,0 °C 7,9 °C 8,0 km/h (2 Bft)
30.05.2023 07:07 20,5 °C 8,2 °C 55 % 88 % 1024,3 hPa 0,0 l/m² 4,6 km/h (1 Bft) W-SW 240 ° 2 min 165 W/m² 6,3 °C 8,2 °C 6,4 km/h (2 Bft)
30.05.2023 07:09 20,5 °C 8,4 °C 55 % 88 % 1024,3 hPa 0,0 l/m² 4,6 km/h (1 Bft) W 263 ° 2 min 243 W/m² 6,5 °C 8,4 °C 9,7 km/h (2 Bft)
30.05.2023 07:11 20,5 °C 8,7 °C 55 % 88 % 1024,3 hPa 0,0 l/m² 3,2 km/h (1 Bft) SW 235 ° 2 min 236 W/m² 6,8 °C 8,7 °C 6,4 km/h (2 Bft)
30.05.2023 07:12 20,4 °C 8,8 °C 55 % 88 % 1024,3 hPa 0,0 l/m² 5,6 km/h (2 Bft) W-SW 254 ° 1 min 250 W/m² 6,9 °C 8,8 °C 11,3 km/h (2 Bft)
30.05.2023 07:13 20,4 °C 8,9 °C 55 % 88 % 1024,3 hPa 0,0 l/m² 5,7 km/h (2 Bft) W-NW 284 ° 1 min 251 W/m² 7,0 °C 8,9 °C 8,0 km/h (2 Bft)
30.05.2023 07:15 20,5 °C 9,1 °C 55 % 87 % 1024,3 hPa 0,0 l/m² 3,5 km/h (1 Bft) W-SW 240 ° 2 min 255 W/m² 7,1 °C 9,1 °C 6,4 km/h (2 Bft)
30.05.2023 07:17 20,5 °C 9,4 °C 55 % 86 % 1024,3 hPa 0,0 l/m² 3,3 km/h (1 Bft) W-NW 284 ° 2 min 262 W/m² 7,2 °C 9,4 °C 6,4 km/h (2 Bft)
30.05.2023 07:19 20,5 °C 9,6 °C 55 % 85 % 1024,4 hPa 0,0 l/m² 3,5 km/h (1 Bft) W 264 ° 2 min 265 W/m² 7,2 °C 9,6 °C 6,4 km/h (2 Bft)
30.05.2023 07:21 20,4 °C 9,8 °C 54 % 84 % 1024,4 hPa 0,0 l/m² 3,2 km/h (1 Bft) W-SW 238 ° 2 min 271 W/m² 7,2 °C 9,8 °C 6,4 km/h (2 Bft)
30.05.2023 07:22 20,5 °C 9,9 °C 54 % 84 % 1024,3 hPa 0,0 l/m² 3,6 km/h (1 Bft) NW 326 ° 1 min 278 W/m² 7,3 °C 9,9 °C 8,0 km/h (2 Bft)
30.05.2023 07:23 20,5 °C 10,0 °C 54 % 83 % 1024,4 hPa 0,0 l/m² 5,5 km/h (2 Bft) SW 235 ° 1 min 281 W/m² 7,2 °C 10,0 °C 9,7 km/h (2 Bft)
30.05.2023 07:25 20,5 °C 10,1 °C 54 % 83 % 1024,4 hPa 0,0 l/m² 3,6 km/h (1 Bft) W-NW 289 ° 2 min 287 W/m² 7,3 °C 10,1 °C 9,7 km/h (2 Bft)
30.05.2023 07:27 20,4 °C 10,3 °C 54 % 82 % 1024,3 hPa 0,0 l/m² 2,0 km/h (1 Bft) W-SW 252 ° 2 min 292 W/m² 7,4 °C 10,3 °C 6,4 km/h (2 Bft)
30.05.2023 07:29 20,5 °C 10,5 °C 54 % 82 % 1024,4 hPa 0,0 l/m² 2,9 km/h (1 Bft) N-NW 348 ° 2 min 299 W/m² 7,6 °C 10,5 °C 8,0 km/h (2 Bft)
30.05.2023 07:31 20,4 °C 10,7 °C 54 % 82 % 1024,4 hPa 0,0 l/m² 1,0 km/h (0 Bft) S 184 ° 2 min 299 W/m² 7,8 °C 10,7 °C 4,8 km/h (1 Bft)
30.05.2023 07:32 20,4 °C 10,7 °C 54 % 81 % 1024,3 hPa 0,0 l/m² 2,4 km/h (1 Bft) S-SW 207 ° 1 min 299 W/m² 7,6 °C 10,7 °C 3,2 km/h (1 Bft)
30.05.2023 07:33 20,4 °C 10,8 °C 54 % 81 % 1024,4 hPa 0,0 l/m² 0,9 km/h (0 Bft) N-NW 336 ° 1 min 299 W/m² 7,7 °C 10,8 °C 3,2 km/h (1 Bft)
30.05.2023 07:35 20,4 °C 10,9 °C 54 % 81 % 1024,5 hPa 0,0 l/m² 4,6 km/h (1 Bft) N-NW 338 ° 2 min 294 W/m² 7,8 °C 10,9 °C 11,3 km/h (2 Bft)
30.05.2023 07:37 20,5 °C 11,2 °C 54 % 80 % 1024,4 hPa 0,0 l/m² 3,4 km/h (1 Bft) W-NW 298 ° 2 min 288 W/m² 7,9 °C 11,2 °C 9,7 km/h (2 Bft)
30.05.2023 07:39 20,5 °C 11,3 °C 54 % 80 % 1024,4 hPa 0,0 l/m² 5,4 km/h (2 Bft) W 277 ° 2 min 283 W/m² 8,0 °C 11,3 °C 14,5 km/h (3 Bft)
30.05.2023 07:41 20,5 °C 11,6 °C 54 % 79 % 1024,4 hPa 0,0 l/m² 6,3 km/h (2 Bft) N-NW 333 ° 2 min 278 W/m² 8,1 °C 11,6 °C 14,5 km/h (3 Bft)
30.05.2023 07:42 20,4 °C 11,6 °C 54 % 79 % 1024,4 hPa 0,0 l/m² 5,9 km/h (2 Bft) N-NW 341 ° 1 min 276 W/m² 8,1 °C 11,6 °C 14,5 km/h (3 Bft)
30.05.2023 07:43 20,4 °C 11,6 °C 54 % 78 % 1024,3 hPa 0,0 l/m² 6,0 km/h (2 Bft) N 355 ° 1 min 276 W/m² 7,9 °C 11,6 °C 17,7 km/h (3 Bft)
30.05.2023 07:45 20,5 °C 11,7 °C 54 % 78 % 1024,4 hPa 0,0 l/m² 9,7 km/h (2 Bft) W 281 ° 2 min 278 W/m² 8,0 °C 9,6 °C 19,3 km/h (3 Bft)
30.05.2023 07:47 20,5 °C 11,8 °C 54 % 78 % 1024,4 hPa 0,0 l/m² 4,7 km/h (1 Bft) N-NW 340 ° 2 min 287 W/m² 8,1 °C 11,8 °C 16,1 km/h (3 Bft)
30.05.2023 07:49 20,5 °C 11,9 °C 54 % 77 % 1024,4 hPa 0,0 l/m² 8,8 km/h (2 Bft) N 350 ° 2 min 295 W/m² 8,0 °C 10,4 °C 16,1 km/h (3 Bft)
30.05.2023 07:51 20,5 °C 11,9 °C 54 % 77 % 1024,4 hPa 0,0 l/m² 9,5 km/h (2 Bft) W-NW 285 ° 2 min 309 W/m² 8,0 °C 10,0 °C 17,7 km/h (3 Bft)
30.05.2023 07:52 20,5 °C 11,9 °C 54 % 77 % 1024,4 hPa 0,0 l/m² 9,1 km/h (2 Bft) N-NW 347 ° 1 min 323 W/m² 8,0 °C 10,2 °C 16,1 km/h (3 Bft)
30.05.2023 07:53 20,5 °C 11,9 °C 54 % 76 % 1024,4 hPa 0,0 l/m² 2,8 km/h (1 Bft) W-NW 297 ° 1 min 330 W/m² 7,8 °C 11,9 °C 4,8 km/h (1 Bft)
30.05.2023 07:55 20,5 °C 12,1 °C 54 % 77 % 1024,3 hPa 0,0 l/m² 7,5 km/h (2 Bft) W 275 ° 2 min 345 W/m² 8,2 °C 11,4 °C 16,1 km/h (3 Bft)
30.05.2023 07:57 20,5 °C 12,1 °C 54 % 76 % 1024,4 hPa 0,0 l/m² 9,0 km/h (2 Bft) N-NW 333 ° 2 min 360 W/m² 8,0 °C 10,5 °C 19,3 km/h (3 Bft)
30.05.2023 07:59 20,5 °C 12,3 °C 54 % 76 % 1024,4 hPa 0,0 l/m² 10,1 km/h (2 Bft) W 269 ° 2 min 374 W/m² 8,2 °C 10,1 °C 14,5 km/h (3 Bft)
30.05.2023 08:01 20,5 °C 12,4 °C 54 % 76 % 1024,3 hPa 0,0 l/m² 6,4 km/h (2 Bft) W-NW 301 ° 2 min 380 W/m² 8,3 °C 12,4 °C 14,5 km/h (3 Bft)
30.05.2023 08:02 20,5 °C 12,5 °C 54 % 76 % 1024,4 hPa 0,0 l/m² 2,9 km/h (1 Bft) NW 323 ° 1 min 381 W/m² 8,4 °C 12,5 °C 8,0 km/h (2 Bft)
30.05.2023 08:03 20,5 °C 12,6 °C 54 % 76 % 1024,3 hPa 0,0 l/m² 4,6 km/h (1 Bft) W 276 ° 1 min 383 W/m² 8,5 °C 12,6 °C 8,0 km/h (2 Bft)
30.05.2023 08:06 20,5 °C 12,7 °C 54 % 74 % 1024,3 hPa 0,0 l/m² 7,5 km/h (2 Bft) N-NW 327 ° 3 min 387 W/m² 8,2 °C 12,0 °C 14,5 km/h (3 Bft)
30.05.2023 08:08 20,5 °C 12,8 °C 54 % 75 % 1024,3 hPa 0,0 l/m² 5,4 km/h (2 Bft) W-NW 286 ° 2 min 385 W/m² 8,5 °C 12,8 °C 12,9 km/h (3 Bft)
30.05.2023 08:10 20,5 °C 12,8 °C 54 % 74 % 1024,3 hPa 0,0 l/m² 9,5 km/h (2 Bft) NW 307 ° 2 min 390 W/m² 8,3 °C 10,9 °C 17,7 km/h (3 Bft)
30.05.2023 08:11 20,5 °C 12,8 °C 54 % 74 % 1024,3 hPa 0,0 l/m² 9,8 km/h (2 Bft) N 351 ° 1 min 390 W/m² 8,3 °C 10,8 °C 16,1 km/h (3 Bft)
30.05.2023 08:12 20,5 °C 12,8 °C 54 % 73 % 1024,3 hPa 0,0 l/m² 6,2 km/h (2 Bft) N-NW 329 ° 1 min 376 W/m² 8,1 °C 12,8 °C 14,5 km/h (3 Bft)
30.05.2023 08:13 20,5 °C 12,9 °C 54 % 75 % 1024,3 hPa 0,0 l/m² 3,9 km/h (1 Bft) N-NW 336 ° 1 min 383 W/m² 8,6 °C 12,9 °C 8,0 km/h (2 Bft)
30.05.2023 08:15 20,6 °C 13,2 °C 54 % 72 % 1024,3 hPa 0,0 l/m² 5,5 km/h (2 Bft) W-NW 287 ° 2 min 383 W/m² 8,3 °C 13,2 °C 12,9 km/h (3 Bft)
30.05.2023 08:17 20,6 °C 13,2 °C 54 % 72 % 1024,4 hPa 0,0 l/m² 6,3 km/h (2 Bft) N 349 ° 2 min 376 W/m² 8,3 °C 13,2 °C 12,9 km/h (3 Bft)
30.05.2023 08:19 20,6 °C 13,3 °C 54 % 72 % 1024,4 hPa 0,0 l/m² 2,9 km/h (1 Bft) W-NW 290 ° 2 min 374 W/m² 8,4 °C 13,3 °C 8,0 km/h (2 Bft)
30.05.2023 08:21 20,6 °C 13,3 °C 54 % 71 % 1024,4 hPa 0,0 l/m² 11,2 km/h (2 Bft) N-NW 334 ° 2 min 360 W/m² 8,2 °C 10,7 °C 17,7 km/h (3 Bft)
30.05.2023 08:22 20,6 °C 13,3 °C 54 % 71 % 1024,3 hPa 0,0 l/m² 9,7 km/h (2 Bft) N 5 ° 1 min 369 W/m² 8,2 °C 11,4 °C 14,5 km/h (3 Bft)
30.05.2023 08:23 20,6 °C 13,3 °C 54 % 71 % 1024,4 hPa 0,0 l/m² 7,8 km/h (2 Bft) W-NW 296 ° 1 min 371 W/m² 8,2 °C 12,4 °C 12,9 km/h (3 Bft)
30.05.2023 08:26 20,6 °C 13,4 °C 54 % 71 % 1024,4 hPa 0,0 l/m² 9,1 km/h (2 Bft) NW 323 ° 3 min 369 W/m² 8,3 °C 11,8 °C 22,5 km/h (4 Bft)
30.05.2023 08:28 20,6 °C 13,4 °C 54 % 72 % 1024,5 hPa 0,0 l/m² 6,9 km/h (2 Bft) NW 325 ° 2 min 352 W/m² 8,5 °C 13,1 °C 14,5 km/h (3 Bft)
30.05.2023 08:30 20,6 °C 13,6 °C 54 % 71 % 1024,5 hPa 0,0 l/m² 7,7 km/h (2 Bft) N-NO 13 ° 2 min 338 W/m² 8,4 °C 12,8 °C 14,5 km/h (3 Bft)
30.05.2023 08:31 20,6 °C 13,6 °C 54 % 71 % 1024,5 hPa 0,0 l/m² 7,8 km/h (2 Bft) NW 326 ° 1 min 325 W/m² 8,4 °C 12,7 °C 14,5 km/h (3 Bft)
30.05.2023 08:33 20,6 °C 13,6 °C 54 % 71 % 1024,5 hPa 0,0 l/m² 8,0 km/h (2 Bft) W-NW 298 ° 2 min 325 W/m² 8,4 °C 12,6 °C 14,5 km/h (3 Bft)
30.05.2023 08:34 20,6 °C 13,7 °C 54 % 71 % 1024,5 hPa 0,0 l/m² 5,0 km/h (1 Bft) W 278 ° 1 min 322 W/m² 8,5 °C 13,7 °C 11,3 km/h (2 Bft)
30.05.2023 08:35 20,6 °C 13,8 °C 54 % 72 % 1024,5 hPa 0,0 l/m² 8,0 km/h (2 Bft) N-NW 348 ° 1 min 318 W/m² 8,8 °C 12,8 °C 17,7 km/h (3 Bft)
30.05.2023 08:37 20,6 °C 13,8 °C 54 % 70 % 1024,6 hPa 0,0 l/m² 9,1 km/h (2 Bft) W-NW 298 ° 2 min 318 W/m² 8,4 °C 12,2 °C 16,1 km/h (3 Bft)
30.05.2023 08:39 20,6 °C 13,8 °C 54 % 70 % 1024,5 hPa 0,0 l/m² 9,8 km/h (2 Bft) NW 312 ° 2 min 336 W/m² 8,4 °C 11,9 °C 19,3 km/h (3 Bft)
30.05.2023 08:41 20,6 °C 13,8 °C 54 % 70 % 1024,5 hPa 0,0 l/m² 9,8 km/h (2 Bft) NW 326 ° 2 min 348 W/m² 8,4 °C 11,9 °C 16,1 km/h (3 Bft)
30.05.2023 08:42 20,6 °C 13,8 °C 54 % 70 % 1024,5 hPa 0,0 l/m² 8,1 km/h (2 Bft) W 281 ° 1 min 369 W/m² 8,4 °C 12,8 °C 14,5 km/h (3 Bft)
30.05.2023 08:43 20,6 °C 13,9 °C 54 % 70 % 1024,5 hPa 0,0 l/m² 10,2 km/h (2 Bft) N-NW 341 ° 1 min 378 W/m² 8,5 °C 11,8 °C 14,5 km/h (3 Bft)
30.05.2023 08:46 20,6 °C 13,9 °C 54 % 70 % 1024,5 hPa 0,0 l/m² 9,0 km/h (2 Bft) W 261 ° 3 min 422 W/m² 8,5 °C 12,4 °C 17,7 km/h (3 Bft)
30.05.2023 08:48 20,6 °C 13,9 °C 54 % 70 % 1024,6 hPa 0,0 l/m² 3,2 km/h (1 Bft) NW 321 ° 2 min 438 W/m² 8,5 °C 13,9 °C 12,9 km/h (3 Bft)
30.05.2023 08:50 20,6 °C 14,1 °C 54 % 69 % 1024,6 hPa 0,0 l/m² 9,6 km/h (2 Bft) NW 315 ° 2 min 454 W/m² 8,5 °C 12,3 °C 14,5 km/h (3 Bft)
30.05.2023 08:51 20,6 °C 14,2 °C 54 % 70 % 1024,6 hPa 0,0 l/m² 9,7 km/h (2 Bft) W-NW 296 ° 1 min 468 W/m² 8,8 °C 12,4 °C 14,5 km/h (3 Bft)
30.05.2023 08:52 20,6 °C 14,2 °C 54 % 69 % 1024,6 hPa 0,0 l/m² 10,9 km/h (2 Bft) N-NW 328 ° 1 min 475 W/m² 8,6 °C 11,8 °C 17,7 km/h (3 Bft)
30.05.2023 08:53 20,6 °C 14,2 °C 54 % 69 % 1024,7 hPa 0,0 l/m² 8,2 km/h (2 Bft) W-NW 288 ° 1 min 480 W/m² 8,6 °C 13,2 °C 14,5 km/h (3 Bft)
30.05.2023 08:55 20,6 °C 14,4 °C 54 % 69 % 1024,7 hPa 0,0 l/m² 5,1 km/h (1 Bft) N-NW 331 ° 2 min 492 W/m² 8,8 °C 14,4 °C 12,9 km/h (3 Bft)
30.05.2023 08:56 20,6 °C 14,6 °C 54 % 69 % 1024,7 hPa 0,0 l/m² 5,6 km/h (2 Bft) NW 322 ° 1 min 499 W/m² 9,0 °C 14,6 °C 9,7 km/h (2 Bft)
30.05.2023 08:58 20,6 °C 14,6 °C 54 % 68 % 1024,8 hPa 0,0 l/m² 8,9 km/h (2 Bft) W-NW 284 ° 2 min 515 W/m² 8,8 °C 13,2 °C 16,1 km/h (3 Bft)
30.05.2023 09:00 20,6 °C 14,6 °C 54 % 68 % 1024,7 hPa 0,0 l/m² 7,3 km/h (2 Bft) W-NW 298 ° 2 min 529 W/m² 8,8 °C 14,1 °C 17,7 km/h (3 Bft)
30.05.2023 09:01 20,6 °C 14,7 °C 54 % 68 % 1024,8 hPa 0,0 l/m² 7,3 km/h (2 Bft) NW 317 ° 1 min 534 W/m² 8,9 °C 14,2 °C 14,5 km/h (3 Bft)
30.05.2023 09:03 20,6 °C 14,7 °C 54 % 67 % 1024,8 hPa 0,0 l/m² 6,9 km/h (2 Bft) W-NW 302 ° 2 min 548 W/m² 8,6 °C 14,4 °C 14,5 km/h (3 Bft)
30.05.2023 09:05 20,6 °C 14,8 °C 54 % 68 % 1024,8 hPa 0,0 l/m² 6,3 km/h (2 Bft) W 272 ° 2 min 557 W/m² 9,0 °C 14,8 °C 12,9 km/h (3 Bft)
30.05.2023 09:07 20,6 °C 14,9 °C 54 % 68 % 1024,8 hPa 0,0 l/m² 5,8 km/h (2 Bft) W 271 ° 2 min 563 W/m² 9,0 °C 14,9 °C 9,7 km/h (2 Bft)
30.05.2023 09:09 20,6 °C 14,8 °C 54 % 67 % 1024,8 hPa 0,0 l/m² 9,2 km/h (2 Bft) N-NW 340 ° 2 min 570 W/m² 8,7 °C 13,3 °C 16,1 km/h (3 Bft)
30.05.2023 09:11 20,6 °C 14,7 °C 54 % 67 % 1024,7 hPa 0,0 l/m² 9,1 km/h (2 Bft) NW 304 ° 2 min 575 W/m² 8,6 °C 13,2 °C 16,1 km/h (3 Bft)
30.05.2023 09:12 20,6 °C 14,8 °C 54 % 67 % 1024,7 hPa 0,0 l/m² 9,7 km/h (2 Bft) W-NW 303 ° 1 min 577 W/m² 8,7 °C 13,0 °C 16,1 km/h (3 Bft)
30.05.2023 09:13 20,6 °C 14,8 °C 54 % 68 % 1024,7 hPa 0,0 l/m² 11,4 km/h (2 Bft) NW 308 ° 1 min 582 W/m² 9,0 °C 12,3 °C 16,1 km/h (3 Bft)
30.05.2023 09:15 20,6 °C 14,7 °C 54 % 69 % 1024,8 hPa 0,0 l/m² 11,2 km/h (2 Bft) NW 308 ° 2 min 587 W/m² 9,1 °C 12,3 °C 17,7 km/h (3 Bft)
30.05.2023 09:16 20,6 °C 14,8 °C 54 % 68 % 1024,9 hPa 0,0 l/m² 11,9 km/h (2 Bft) W-NW 292 ° 1 min 591 W/m² 9,0 °C 12,1 °C 17,7 km/h (3 Bft)
30.05.2023 09:18 20,6 °C 14,8 °C 54 % 70 % 1024,7 hPa 0,0 l/m² 8,2 km/h (2 Bft) N-NW 334 ° 2 min 594 W/m² 9,4 °C 13,8 °C 16,1 km/h (3 Bft)
30.05.2023 09:20 20,6 °C 15,1 °C 54 % 67 % 1024,8 hPa 0,0 l/m² 7,4 km/h (2 Bft) N-NW 336 ° 2 min 601 W/m² 9,0 °C 14,5 °C 16,1 km/h (3 Bft)
30.05.2023 09:21 20,6 °C 15,2 °C 54 % 66 % 1024,8 hPa 0,0 l/m² 7,5 km/h (2 Bft) NW 311 ° 1 min 603 W/m² 8,9 °C 14,6 °C 11,3 km/h (2 Bft)
30.05.2023 09:23 20,6 °C 15,2 °C 54 % 65 % 1024,8 hPa 0,0 l/m² 5,3 km/h (1 Bft) NW 323 ° 2 min 605 W/m² 8,7 °C 15,2 °C 8,0 km/h (2 Bft)
30.05.2023 09:25 20,7 °C 15,2 °C 54 % 66 % 1024,8 hPa 0,0 l/m² 8,7 km/h (2 Bft) NW 311 ° 2 min 610 W/m² 8,9 °C 14,0 °C 16,1 km/h (3 Bft)
30.05.2023 09:27 20,7 °C 15,2 °C 54 % 67 % 1024,8 hPa 0,0 l/m² 10,1 km/h (2 Bft) NW 325 ° 2 min 617 W/m² 9,1 °C 13,3 °C 17,7 km/h (3 Bft)
30.05.2023 09:29 20,6 °C 15,3 °C 54 % 67 % 1024,8 hPa 0,0 l/m² 6,5 km/h (2 Bft) N-NO 29 ° 2 min 622 W/m² 9,2 °C 15,3 °C 12,9 km/h (3 Bft)
30.05.2023 09:31 20,7 °C 15,6 °C 54 % 66 % 1024,8 hPa 0,0 l/m² 6,7 km/h (2 Bft) N-NW 328 ° 2 min 628 W/m² 9,3 °C 15,4 °C 14,5 km/h (3 Bft)
30.05.2023 09:32 20,7 °C 15,7 °C 54 % 66 % 1024,8 hPa 0,0 l/m² 7,2 km/h (2 Bft) N-NW 336 ° 1 min 633 W/m² 9,4 °C 15,3 °C 14,5 km/h (3 Bft)
30.05.2023 09:33 20,6 °C 15,6 °C 54 % 65 % 1024,8 hPa 0,0 l/m² 5,3 km/h (1 Bft) N 5 ° 1 min 633 W/m² 9,0 °C 15,6 °C 8,0 km/h (2 Bft)
30.05.2023 09:36 20,7 °C 15,6 °C 54 % 64 % 1024,8 hPa 0,0 l/m² 6,7 km/h (2 Bft) NW 321 ° 3 min 640 W/m² 8,8 °C 15,4 °C 14,5 km/h (3 Bft)
30.05.2023 09:38 20,7 °C 15,7 °C 54 % 62 % 1024,8 hPa 0,0 l/m² 5,9 km/h (2 Bft) N 10 ° 2 min 645 W/m² 8,4 °C 15,7 °C 9,7 km/h (2 Bft)
30.05.2023 09:40 20,7 °C 15,5 °C 54 % 64 % 1024,9 hPa 0,0 l/m² 7,7 km/h (2 Bft) N-NW 347 ° 2 min 649 W/m² 8,7 °C 14,8 °C 12,9 km/h (3 Bft)
30.05.2023 09:41 20,7 °C 15,5 °C 54 % 65 % 1024,8 hPa 0,0 l/m² 8,6 km/h (2 Bft) N-NW 338 ° 1 min 652 W/m² 8,9 °C 14,3 °C 12,9 km/h (3 Bft)
30.05.2023 09:43 20,7 °C 15,6 °C 54 % 65 % 1024,8 hPa 0,0 l/m² 8,2 km/h (2 Bft) N-NW 344 ° 2 min 657 W/m² 9,0 °C 14,6 °C 16,1 km/h (3 Bft)
30.05.2023 09:45 20,7 °C 15,9 °C 54 % 65 % 1024,9 hPa 0,0 l/m² 4,7 km/h (1 Bft) W 278 ° 2 min 664 W/m² 9,3 °C 15,9 °C 8,0 km/h (2 Bft)
30.05.2023 09:48 20,7 °C 16,0 °C 54 % 63 % 1025,0 hPa 0,0 l/m² 5,2 km/h (1 Bft) NW 323 ° 3 min 668 W/m² 9,0 °C 16,0 °C 14,5 km/h (3 Bft)
30.05.2023 09:50 20,7 °C 15,9 °C 54 % 63 % 1024,9 hPa 0,0 l/m² 9,6 km/h (2 Bft) N 355 ° 2 min 677 W/m² 8,9 °C 14,3 °C 14,5 km/h (3 Bft)
30.05.2023 09:51 20,7 °C 15,9 °C 54 % 63 % 1024,9 hPa 0,0 l/m² 9,1 km/h (2 Bft) NW 309 ° 1 min 677 W/m² 8,9 °C 14,5 °C 16,1 km/h (3 Bft)
30.05.2023 09:53 20,7 °C 15,9 °C 54 % 62 % 1024,8 hPa 0,0 l/m² 6,4 km/h (2 Bft) W 269 ° 2 min 684 W/m² 8,6 °C 15,9 °C 11,3 km/h (2 Bft)
30.05.2023 09:55 20,7 °C 15,8 °C 54 % 63 % 1024,7 hPa 0,0 l/m² 7,6 km/h (2 Bft) W-NW 286 ° 2 min 687 W/m² 8,8 °C 15,1 °C 16,1 km/h (3 Bft)
30.05.2023 09:57 20,7 °C 15,9 °C 54 % 64 % 1024,8 hPa 0,0 l/m² 6,9 km/h (2 Bft) W-SW 258 ° 2 min 693 W/m² 9,1 °C 15,6 °C 12,9 km/h (3 Bft)
30.05.2023 09:59 20,7 °C 16,0 °C 54 % 63 % 1024,8 hPa 0,0 l/m² 8,6 km/h (2 Bft) NW 304 ° 2 min 698 W/m² 9,0 °C 14,9 °C 16,1 km/h (3 Bft)
30.05.2023 10:01 20,7 °C 16,2 °C 54 % 62 % 1024,8 hPa 0,0 l/m² 9,0 km/h (2 Bft) N-NW 331 ° 2 min 701 W/m² 8,9 °C 14,9 °C 14,5 km/h (3 Bft)
30.05.2023 10:02 20,7 °C 16,3 °C 54 % 62 % 1024,8 hPa 0,0 l/m² 8,8 km/h (2 Bft) N-NW 342 ° 1 min 703 W/m² 9,0 °C 15,1 °C 12,9 km/h (3 Bft)
30.05.2023 10:03 20,7 °C 16,2 °C 54 % 61 % 1024,8 hPa 0,0 l/m² 6,2 km/h (2 Bft) N 355 ° 1 min 707 W/m² 8,7 °C 16,2 °C 8,0 km/h (2 Bft)
30.05.2023 10:06 20,7 °C 16,2 °C 54 % 62 % 1024,7 hPa 0,0 l/m² 8,2 km/h (2 Bft) N 355 ° 3 min 708 W/m² 8,9 °C 15,3 °C 14,5 km/h (3 Bft)
30.05.2023 10:08 20,7 °C 16,2 °C 54 % 61 % 1024,8 hPa 0,0 l/m² 7,4 km/h (2 Bft) NW 322 ° 2 min 714 W/m² 8,7 °C 15,7 °C 14,5 km/h (3 Bft)
30.05.2023 10:10 20,7 °C 16,4 °C 54 % 62 % 1024,7 hPa 0,0 l/m² 6,9 km/h (2 Bft) N-NW 346 ° 2 min 722 W/m² 9,1 °C 16,1 °C 16,1 km/h (3 Bft)
30.05.2023 10:11 20,7 °C 16,4 °C 54 % 61 % 1024,8 hPa 0,0 l/m² 10,2 km/h (2 Bft) N-NW 341 ° 1 min 724 W/m² 8,9 °C 14,6 °C 16,1 km/h (3 Bft)
30.05.2023 10:12 20,7 °C 16,4 °C 54 % 61 % 1024,8 hPa 0,0 l/m² 6,6 km/h (2 Bft) N-NW 336 ° 1 min 729 W/m² 8,9 °C 16,3 °C 12,9 km/h (3 Bft)
30.05.2023 10:13 20,7 °C 16,3 °C 54 % 61 % 1024,7 hPa 0,0 l/m² 10,3 km/h (2 Bft) N-NW 348 ° 1 min 726 W/m² 8,8 °C 14,4 °C 16,1 km/h (3 Bft)
30.05.2023 10:15 20,7 °C 16,3 °C 54 % 62 % 1024,7 hPa 0,0 l/m² 9,0 km/h (2 Bft) N 349 ° 2 min 729 W/m² 9,0 °C 15,0 °C 16,1 km/h (3 Bft)
30.05.2023 10:17 20,7 °C 16,3 °C 54 % 63 % 1024,7 hPa 0,0 l/m² 11,0 km/h (2 Bft) NW 320 ° 2 min 735 W/m² 9,2 °C 14,1 °C 17,7 km/h (3 Bft)
30.05.2023 10:19 20,7 °C 16,6 °C 54 % 64 % 1024,8 hPa 0,0 l/m² 8,7 km/h (2 Bft) N 349 ° 2 min 745 W/m² 9,8 °C 15,5 °C 16,1 km/h (3 Bft)
30.05.2023 10:21 20,7 °C 16,6 °C 54 % 62 % 1024,8 hPa 0,0 l/m² 8,6 km/h (2 Bft) N-NW 327 ° 2 min 744 W/m² 9,3 °C 15,5 °C 16,1 km/h (3 Bft)
30.05.2023 10:23 20,7 °C 16,7 °C 54 % 63 % 1024,8 hPa 0,0 l/m² 6,4 km/h (2 Bft) N-NW 348 ° 2 min 749 W/m² 9,6 °C 16,7 °C 12,9 km/h (3 Bft)
30.05.2023 10:25 20,8 °C 17,0 °C 54 % 61 % 1024,7 hPa 0,0 l/m² 8,2 km/h (2 Bft) W-NW 300 ° 2 min 751 W/m² 9,4 °C 16,1 °C 14,5 km/h (3 Bft)
30.05.2023 10:27 20,7 °C 16,9 °C 54 % 61 % 1024,8 hPa 0,0 l/m² 9,0 km/h (2 Bft) NW 323 ° 2 min 759 W/m² 9,3 °C 15,6 °C 16,1 km/h (3 Bft)
30.05.2023 10:29 20,7 °C 16,7 °C 54 % 61 % 1024,8 hPa 0,0 l/m² 8,1 km/h (2 Bft) N-NW 339 ° 2 min 761 W/m² 9,1 °C 15,8 °C 14,5 km/h (3 Bft)
30.05.2023 10:31 20,8 °C 16,9 °C 54 % 62 % 1024,8 hPa 0,0 l/m² 10,0 km/h (2 Bft) N-NW 345 ° 2 min 763 W/m² 9,6 °C 15,2 °C 16,1 km/h (3 Bft)
30.05.2023 10:33 20,8 °C 16,9 °C 54 % 61 % 1024,9 hPa 0,0 l/m² 11,9 km/h (2 Bft) N 5 ° 2 min 768 W/m² 9,3 °C 14,5 °C 17,7 km/h (3 Bft)
30.05.2023 10:35 20,7 °C 16,7 °C 54 % 61 % 1024,9 hPa 0,0 l/m² 6,4 km/h (2 Bft) NW 310 ° 2 min 770 W/m² 9,1 °C 16,7 °C 11,3 km/h (2 Bft)
30.05.2023 10:37 20,8 °C 16,8 °C 54 % 60 % 1024,8 hPa 0,0 l/m² 4,9 km/h (1 Bft) N-NW 336 ° 2 min 773 W/m² 9,0 °C 16,8 °C 11,3 km/h (2 Bft)
30.05.2023 10:39 20,8 °C 17,1 °C 54 % 61 % 1024,9 hPa 0,0 l/m² 7,0 km/h (2 Bft) N 355 ° 2 min 779 W/m² 9,5 °C 16,8 °C 14,5 km/h (3 Bft)
30.05.2023 10:41 20,8 °C 17,1 °C 54 % 59 % 1024,9 hPa 0,0 l/m² 6,3 km/h (2 Bft) W-NW 282 ° 2 min 777 W/m² 9,0 °C 17,1 °C 12,9 km/h (3 Bft)
30.05.2023 10:43 20,8 °C 17,1 °C 54 % 61 % 1024,9 hPa 0,0 l/m² 2,5 km/h (1 Bft) N-NW 339 ° 2 min 780 W/m² 9,5 °C 17,1 °C 8,0 km/h (2 Bft)
30.05.2023 10:45 20,8 °C 17,2 °C 54 % 60 % 1024,9 hPa 0,0 l/m² 8,4 km/h (2 Bft) NW 311 ° 2 min 780 W/m² 9,4 °C 16,2 °C 19,3 km/h (3 Bft)
30.05.2023 10:47 20,8 °C 17,3 °C 54 % 61 % 1024,9 hPa 0,0 l/m² 3,3 km/h (1 Bft) N-NW 331 ° 2 min 777 W/m² 9,7 °C 17,3 °C 8,0 km/h (2 Bft)
30.05.2023 10:49 20,8 °C 17,5 °C 54 % 60 % 1025,0 hPa 0,0 l/m² 6,4 km/h (2 Bft) NW 309 ° 2 min 800 W/m² 9,6 °C 17,5 °C 12,9 km/h (3 Bft)
30.05.2023 10:51 20,8 °C 17,6 °C 54 % 59 % 1024,9 hPa 0,0 l/m² 6,3 km/h (2 Bft) N-NW 348 ° 2 min 807 W/m² 9,5 °C 17,6 °C 17,7 km/h (3 Bft)
30.05.2023 10:53 20,8 °C 17,7 °C 54 % 61 % 1024,9 hPa 0,0 l/m² 5,1 km/h (1 Bft) NW 310 ° 2 min 805 W/m² 10,1 °C 17,7 °C 9,7 km/h (2 Bft)
30.05.2023 10:55 20,8 °C 17,6 °C 54 % 59 % 1024,8 hPa 0,0 l/m² 7,2 km/h (2 Bft) W-NW 300 ° 2 min 809 W/m² 9,5 °C 17,2 °C 14,5 km/h (3 Bft)
30.05.2023 10:57 20,8 °C 17,6 °C 54 % 58 % 1024,9 hPa 0,0 l/m² 7,2 km/h (2 Bft) NW 322 ° 2 min 810 W/m² 9,2 °C 17,2 °C 14,5 km/h (3 Bft)
30.05.2023 10:59 20,8 °C 17,5 °C 54 % 59 % 1024,9 hPa 0,0 l/m² 7,6 km/h (2 Bft) NW 306 ° 2 min 816 W/m² 9,4 °C 16,9 °C 9,7 km/h (2 Bft)
30.05.2023 11:01 20,8 °C 17,5 °C 54 % 57 % 1024,9 hPa 0,0 l/m² 8,8 km/h (2 Bft) NW 325 ° 2 min 817 W/m² 8,9 °C 16,4 °C 16,1 km/h (3 Bft)
30.05.2023 11:03 20,8 °C 17,7 °C 54 % 57 % 1024,9 hPa 0,0 l/m² 7,8 km/h (2 Bft) NW 319 ° 2 min 817 W/m² 9,1 °C 17,0 °C 14,5 km/h (3 Bft)
30.05.2023 11:05 20,9 °C 17,8 °C 54 % 57 % 1024,9 hPa 0,0 l/m² 4,9 km/h (1 Bft) W-NW 302 ° 2 min 826 W/m² 9,2 °C 17,8 °C 8,0 km/h (2 Bft)
30.05.2023 11:07 20,8 °C 17,7 °C 54 % 56 % 1024,9 hPa 0,0 l/m² 5,9 km/h (2 Bft) N-NW 327 ° 2 min 791 W/m² 8,8 °C 17,7 °C 12,9 km/h (3 Bft)
30.05.2023 11:09 20,9 °C 17,7 °C 54 % 57 % 1024,9 hPa 0,0 l/m² 2,1 km/h (1 Bft) W-SW 245 ° 2 min 826 W/m² 9,1 °C 17,7 °C 6,4 km/h (2 Bft)
30.05.2023 11:11 20,9 °C 17,7 °C 54 % 58 % 1024,8 hPa 0,0 l/m² 10,1 km/h (2 Bft) NW 306 ° 2 min 835 W/m² 9,3 °C 16,1 °C 16,1 km/h (3 Bft)
30.05.2023 11:13 20,9 °C 17,7 °C 54 % 59 % 1024,8 hPa 0,0 l/m² 7,6 km/h (2 Bft) W-NW 294 ° 2 min 837 W/m² 9,6 °C 17,1 °C 12,9 km/h (3 Bft)
30.05.2023 11:15 20,9 °C 17,8 °C 54 % 56 % 1024,8 hPa 0,0 l/m² 3,2 km/h (1 Bft) NW 319 ° 2 min 842 W/m² 8,9 °C 17,8 °C 8,0 km/h (2 Bft)
30.05.2023 11:17 20,9 °C 17,9 °C 54 % 58 % 1024,8 hPa 0,0 l/m² 2,6 km/h (1 Bft) N-NW 333 ° 2 min 849 W/m² 9,5 °C 17,9 °C 8,0 km/h (2 Bft)
30.05.2023 11:19 20,9 °C 18,0 °C 54 % 57 % 1024,9 hPa 0,0 l/m² 4,0 km/h (1 Bft) N-NW 346 ° 2 min 847 W/m² 9,4 °C 18,0 °C 12,9 km/h (3 Bft)
30.05.2023 11:21 20,9 °C 18,2 °C 54 % 60 % 1024,8 hPa 0,0 l/m² 5,9 km/h (2 Bft) N-NW 348 ° 2 min 847 W/m² 10,3 °C 18,2 °C 12,9 km/h (3 Bft)
30.05.2023 11:23 20,9 °C 18,6 °C 54 % 59 % 1024,8 hPa 0,0 l/m² 6,3 km/h (2 Bft) NW 313 ° 2 min 844 W/m² 10,4 °C 18,6 °C 14,5 km/h (3 Bft)
30.05.2023 11:25 20,9 °C 18,4 °C 54 % 53 % 1024,8 hPa 0,0 l/m² 11,2 km/h (2 Bft) N-NO 15 ° 2 min 844 W/m² 8,6 °C 16,5 °C 19,3 km/h (3 Bft)
30.05.2023 11:27 21,0 °C 18,3 °C 54 % 54 % 1024,9 hPa 0,0 l/m² 6,1 km/h (2 Bft) N-NO 15 ° 2 min 842 W/m² 8,8 °C 18,3 °C 14,5 km/h (3 Bft)
30.05.2023 11:29 20,9 °C 18,0 °C 54 % 55 % 1024,9 hPa 0,0 l/m² 9,9 km/h (2 Bft) N-NO 22 ° 2 min 861 W/m² 8,8 °C 16,5 °C 16,1 km/h (3 Bft)
30.05.2023 11:31 21,0 °C 17,9 °C 54 % 55 % 1024,8 hPa 0,0 l/m² 4,8 km/h (1 Bft) O 92 ° 2 min 863 W/m² 8,7 °C 17,9 °C 8,0 km/h (2 Bft)
30.05.2023 11:33 21,0 °C 17,9 °C 54 % 58 % 1024,7 hPa 0,0 l/m² 3,8 km/h (1 Bft) O-NO 57 ° 2 min 861 W/m² 9,5 °C 17,9 °C 6,4 km/h (2 Bft)
30.05.2023 11:35 21,0 °C 18,2 °C 54 % 56 % 1024,8 hPa 0,0 l/m² 4,2 km/h (1 Bft) N 349 ° 2 min 861 W/m² 9,3 °C 18,2 °C 8,0 km/h (2 Bft)
30.05.2023 11:37 21,0 °C 18,4 °C 54 % 57 % 1024,8 hPa 0,0 l/m² 6,4 km/h (2 Bft) W-NW 296 ° 2 min 867 W/m² 9,7 °C 18,4 °C 12,9 km/h (3 Bft)
30.05.2023 11:39 21,0 °C 18,6 °C 54 % 54 % 1024,9 hPa 0,0 l/m² 5,2 km/h (1 Bft) NW 320 ° 2 min 874 W/m² 9,1 °C 18,6 °C 9,7 km/h (2 Bft)
30.05.2023 11:41 21,0 °C 18,5 °C 54 % 51 % 1024,8 hPa 0,0 l/m² 9,1 km/h (2 Bft) W-NW 297 ° 2 min 879 W/m² 8,2 °C 17,3 °C 17,7 km/h (3 Bft)
30.05.2023 11:43 21,0 °C 18,4 °C 54 % 52 % 1024,8 hPa 0,0 l/m² 6,2 km/h (2 Bft) NW 319 ° 2 min 884 W/m² 8,4 °C 18,4 °C 12,9 km/h (3 Bft)
30.05.2023 11:45 21,1 °C 18,7 °C 54 % 52 % 1024,8 hPa 0,0 l/m² 8,0 km/h (2 Bft) N-NW 331 ° 2 min 884 W/m² 8,6 °C 18,0 °C 12,9 km/h (3 Bft)
30.05.2023 11:47 21,1 °C 18,7 °C 54 % 53 % 1024,8 hPa 0,0 l/m² 7,4 km/h (2 Bft) N-NW 329 ° 2 min 884 W/m² 8,9 °C 18,2 °C 14,5 km/h (3 Bft)
30.05.2023 11:49 21,1 °C 18,7 °C 54 % 53 % 1024,9 hPa 0,0 l/m² 9,6 km/h (2 Bft) W-NW 298 ° 2 min 891 W/m² 8,9 °C 17,4 °C 16,1 km/h (3 Bft)
30.05.2023 11:51 21,1 °C 18,6 °C 54 % 53 % 1024,8 hPa 0,0 l/m² 10,7 km/h (2 Bft) N-NW 337 ° 2 min 905 W/m² 8,8 °C 16,8 °C 14,5 km/h (3 Bft)
30.05.2023 11:53 21,1 °C 18,6 °C 54 % 54 % 1024,9 hPa 0,0 l/m² 7,4 km/h (2 Bft) W-NW 290 ° 2 min 898 W/m² 9,1 °C 18,1 °C 12,9 km/h (3 Bft)
30.05.2023 11:55 21,1 °C 18,6 °C 54 % 53 % 1024,9 hPa 0,0 l/m² 9,1 km/h (2 Bft) NW 304 ° 2 min 898 W/m² 8,8 °C 17,4 °C 16,1 km/h (3 Bft)
30.05.2023 11:57 21,1 °C 18,4 °C 54 % 52 % 1024,8 hPa 0,0 l/m² 2,7 km/h (1 Bft) W 276 ° 2 min 891 W/m² 8,4 °C 18,4 °C 8,0 km/h (2 Bft)
30.05.2023 11:59 21,1 °C 18,4 °C 54 % 54 % 1024,8 hPa 0,0 l/m² 1,9 km/h (1 Bft) NW 305 ° 2 min 900 W/m² 8,9 °C 18,4 °C 4,8 km/h (1 Bft)
30.05.2023 12:01 21,1 °C 19,0 °C 54 % 54 % 1024,9 hPa 0,0 l/m² 6,3 km/h (2 Bft) NW 317 ° 2 min 904 W/m² 9,5 °C 19,0 °C 12,9 km/h (3 Bft)
30.05.2023 12:02 21,1 °C 19,1 °C 54 % 51 % 1024,8 hPa 0,0 l/m² 7,5 km/h (2 Bft) N 349 ° 1 min 900 W/m² 8,7 °C 18,6 °C 12,9 km/h (3 Bft)
30.05.2023 12:03 21,1 °C 19,2 °C 54 % 52 % 1024,8 hPa 0,0 l/m² 8,2 km/h (2 Bft) NW 321 ° 1 min 898 W/m² 9,1 °C 18,4 °C 14,5 km/h (3 Bft)
30.05.2023 12:05 21,1 °C 19,4 °C 54 % 54 % 1024,8 hPa 0,0 l/m² 6,2 km/h (2 Bft) O-NO 76 ° 2 min 909 W/m² 9,8 °C 19,4 °C 14,5 km/h (3 Bft)
30.05.2023 12:07 21,1 °C 19,1 °C 54 % 50 % 1024,8 hPa 0,0 l/m² 2,7 km/h (1 Bft) O-NO 64 ° 2 min 893 W/m² 8,4 °C 19,1 °C 8,0 km/h (2 Bft)
30.05.2023 12:09 21,1 °C 19,1 °C 54 % 53 % 1024,8 hPa 0,0 l/m² 3,5 km/h (1 Bft) NO 44 ° 2 min 893 W/m² 9,3 °C 19,1 °C 8,0 km/h (2 Bft)
30.05.2023 12:11 21,1 °C 19,3 °C 54 % 53 % 1024,8 hPa 0,0 l/m² 5,3 km/h (1 Bft) N-NO 27 ° 2 min 904 W/m² 9,5 °C 19,3 °C 9,7 km/h (2 Bft)
30.05.2023 12:13 21,1 °C 19,4 °C 54 % 50 % 1024,9 hPa 0,0 l/m² 11,7 km/h (2 Bft) NW 320 ° 2 min 909 W/m² 8,7 °C 17,4 °C 19,3 km/h (3 Bft)
30.05.2023 12:14 21,1 °C 19,5 °C 54 % 51 % 1024,8 hPa 0,0 l/m² 4,6 km/h (1 Bft) NW 310 ° 1 min 911 W/m² 9,1 °C 19,5 °C 9,7 km/h (2 Bft)
30.05.2023 12:15 21,2 °C 19,6 °C 54 % 49 % 1024,9 hPa 0,0 l/m² 4,5 km/h (1 Bft) NW 310 ° 1 min 900 W/m² 8,6 °C 19,6 °C 6,4 km/h (2 Bft)
30.05.2023 12:17 21,2 °C 19,3 °C 54 % 48 % 1024,9 hPa 0,0 l/m² 4,1 km/h (1 Bft) N-NW 333 ° 2 min 912 W/m² 8,0 °C 19,3 °C 8,0 km/h (2 Bft)
30.05.2023 12:19 21,2 °C 19,3 °C 54 % 52 % 1024,9 hPa 0,0 l/m² 9,3 km/h (2 Bft) N-NW 346 ° 2 min 916 W/m² 9,2 °C 18,1 °C 17,7 km/h (3 Bft)
30.05.2023 12:21 21,2 °C 19,2 °C 54 % 49 % 1024,8 hPa 0,0 l/m² 5,7 km/h (2 Bft) W 273 ° 2 min 909 W/m² 8,2 °C 19,2 °C 12,9 km/h (3 Bft)
30.05.2023 12:23 21,2 °C 19,2 °C 54 % 48 % 1024,8 hPa 0,0 l/m² 10,6 km/h (2 Bft) NW 306 ° 2 min 914 W/m² 7,9 °C 17,6 °C 20,9 km/h (4 Bft)
30.05.2023 12:25 21,2 °C 19,3 °C 54 % 47 % 1024,8 hPa 0,0 l/m² 8,3 km/h (2 Bft) W-NW 296 ° 2 min 914 W/m² 7,7 °C 18,5 °C 14,5 km/h (3 Bft)
30.05.2023 12:27 21,2 °C 19,3 °C 54 % 51 % 1024,8 hPa 0,0 l/m² 11,5 km/h (2 Bft) N-NW 331 ° 2 min 916 W/m² 8,9 °C 17,4 °C 19,3 km/h (3 Bft)
30.05.2023 12:29 21,2 °C 19,1 °C 54 % 49 % 1024,8 hPa 0,0 l/m² 6,6 km/h (2 Bft) N-NW 341 ° 2 min 918 W/m² 8,1 °C 19,0 °C 12,9 km/h (3 Bft)
30.05.2023 12:31 21,2 °C 19,1 °C 54 % 50 % 1024,9 hPa 0,0 l/m² 7,8 km/h (2 Bft) NW 304 ° 2 min 921 W/m² 8,4 °C 18,5 °C 16,1 km/h (3 Bft)
30.05.2023 12:33 21,2 °C 19,3 °C 54 % 50 % 1024,9 hPa 0,0 l/m² 7,2 km/h (2 Bft) W-NW 297 ° 2 min 918 W/m² 8,6 °C 19,0 °C 14,5 km/h (3 Bft)
30.05.2023 12:35 21,2 °C 19,4 °C 54 % 51 % 1024,9 hPa 0,0 l/m² 5,6 km/h (2 Bft) NW 304 ° 2 min 921 W/m² 9,0 °C 19,4 °C 14,5 km/h (3 Bft)
30.05.2023 12:37 21,2 °C 19,7 °C 54 % 49 % 1024,8 hPa 0,0 l/m² 4,8 km/h (1 Bft) N 350 ° 2 min 918 W/m² 8,7 °C 19,7 °C 9,7 km/h (2 Bft)
30.05.2023 12:39 21,2 °C 19,9 °C 54 % 52 % 1024,8 hPa 0,0 l/m² 4,7 km/h (1 Bft) W-NW 292 ° 2 min 925 W/m² 9,7 °C 19,9 °C 11,3 km/h (2 Bft)
30.05.2023 12:41 21,2 °C 20,3 °C 53 % 48 % 1024,9 hPa 0,0 l/m² 6,0 km/h (2 Bft) N-NW 327 ° 2 min 921 W/m² 8,9 °C 20,3 °C 12,9 km/h (3 Bft)
30.05.2023 12:43 21,2 °C 20,2 °C 54 % 45 % 1024,8 hPa 0,0 l/m² 8,4 km/h (2 Bft) N-NW 331 ° 2 min 933 W/m² 7,9 °C 19,4 °C 14,5 km/h (3 Bft)
30.05.2023 12:45 21,2 °C 19,9 °C 54 % 47 % 1024,8 hPa 0,0 l/m² 8,7 km/h (2 Bft) N-NO 32 ° 2 min 932 W/m² 8,3 °C 19,0 °C 14,5 km/h (3 Bft)
30.05.2023 12:46 21,2 °C 19,7 °C 53 % 46 % 1024,8 hPa 0,0 l/m² 5,0 km/h (1 Bft) W 270 ° 1 min 930 W/m² 7,8 °C 19,7 °C 6,4 km/h (2 Bft)
30.05.2023 12:48 21,2 °C 19,7 °C 53 % 49 % 1024,8 hPa 0,0 l/m² 10,1 km/h (2 Bft) W-NW 288 ° 2 min 919 W/m² 8,7 °C 18,3 °C 20,9 km/h (4 Bft)
30.05.2023 12:50 21,2 °C 19,7 °C 53 % 52 % 1024,8 hPa 0,0 l/m² 8,4 km/h (2 Bft) N 360 ° 2 min 895 W/m² 9,6 °C 18,9 °C 17,7 km/h (3 Bft)
30.05.2023 12:52 21,2 °C 19,9 °C 53 % 50 % 1024,8 hPa 0,0 l/m² 11,3 km/h (2 Bft) N-NW 327 ° 2 min 923 W/m² 9,2 °C 18,1 °C 19,3 km/h (3 Bft)
30.05.2023 12:54 21,2 °C 19,9 °C 53 % 51 % 1024,8 hPa 0,0 l/m² 8,4 km/h (2 Bft) N-NW 345 ° 2 min 921 W/m² 9,5 °C 19,1 °C 14,5 km/h (3 Bft)
30.05.2023 12:56 21,2 °C 19,9 °C 53 % 50 % 1024,8 hPa 0,0 l/m² 4,5 km/h (1 Bft) N 355 ° 2 min 923 W/m² 9,2 °C 19,9 °C 11,3 km/h (2 Bft)
30.05.2023 12:58 21,3 °C 19,9 °C 53 % 50 % 1024,8 hPa 0,0 l/m² 5,4 km/h (2 Bft) W-NW 283 ° 2 min 928 W/m² 9,2 °C 19,9 °C 8,0 km/h (2 Bft)
30.05.2023 13:00 21,3 °C 19,8 °C 53 % 48 % 1024,7 hPa 0,0 l/m² 5,6 km/h (2 Bft) W-NW 292 ° 2 min 925 W/m² 8,5 °C 19,8 °C 14,5 km/h (3 Bft)
30.05.2023 13:02 21,3 °C 19,9 °C 53 % 48 % 1024,7 hPa 0,0 l/m² 13,1 km/h (3 Bft) N-NW 348 ° 2 min 923 W/m² 8,6 °C 17,6 °C 20,9 km/h (4 Bft)
30.05.2023 13:04 21,2 °C 19,7 °C 53 % 46 % 1024,6 hPa 0,0 l/m² 16,0 km/h (3 Bft) N-NW 348 ° 2 min 923 W/m² 7,8 °C 16,6 °C 20,9 km/h (4 Bft)
30.05.2023 13:06 21,3 °C 19,7 °C 53 % 49 % 1024,6 hPa 0,0 l/m² 11,9 km/h (2 Bft) N 351 ° 2 min 928 W/m² 8,7 °C 17,7 °C 19,3 km/h (3 Bft)
30.05.2023 13:08 21,3 °C 19,8 °C 53 % 47 % 1024,5 hPa 0,0 l/m² 7,8 km/h (2 Bft) N 355 ° 2 min 923 W/m² 8,2 °C 19,2 °C 16,1 km/h (3 Bft)
30.05.2023 13:10 21,3 °C 19,8 °C 53 % 50 % 1024,6 hPa 0,0 l/m² 6,2 km/h (2 Bft) NW 314 ° 2 min 919 W/m² 9,1 °C 19,8 °C 9,7 km/h (2 Bft)
30.05.2023 13:12 21,3 °C 19,8 °C 53 % 49 % 1024,5 hPa 0,0 l/m² 6,2 km/h (2 Bft) N 355 ° 2 min 919 W/m² 8,8 °C 19,8 °C 17,7 km/h (3 Bft)
30.05.2023 13:14 21,3 °C 19,9 °C 53 % 47 % 1024,5 hPa 0,0 l/m² 12,8 km/h (3 Bft) N-NW 348 ° 2 min 923 W/m² 8,3 °C 17,7 °C 20,9 km/h (4 Bft)
30.05.2023 13:16 21,3 °C 19,8 °C 53 % 45 % 1024,6 hPa 0,0 l/m² 14,9 km/h (3 Bft) N 5 ° 2 min 921 W/m² 7,5 °C 17,0 °C 24,1 km/h (4 Bft)
30.05.2023 13:18 21,3 °C 19,7 °C 53 % 49 % 1024,5 hPa 0,0 l/m² 7,3 km/h (2 Bft) N-NO 33 ° 2 min 932 W/m² 8,7 °C 19,3 °C 16,1 km/h (3 Bft)
30.05.2023 13:20 21,3 °C 19,8 °C 53 % 47 % 1024,6 hPa 0,0 l/m² 7,1 km/h (2 Bft) N-NO 26 ° 2 min 926 W/m² 8,2 °C 19,5 °C 16,1 km/h (3 Bft)
30.05.2023 13:22 21,3 °C 20,1 °C 53 % 47 % 1024,6 hPa 0,0 l/m² 9,5 km/h (2 Bft) W-NW 300 ° 2 min 921 W/m² 8,4 °C 18,9 °C 20,9 km/h (4 Bft)
30.05.2023 13:24 21,3 °C 19,9 °C 53 % 49 % 1024,5 hPa 0,0 l/m² 11,6 km/h (2 Bft) W 268 ° 2 min 932 W/m² 8,9 °C 18,0 °C 24,1 km/h (4 Bft)
30.05.2023 13:26 21,3 °C 20,1 °C 53 % 47 % 1024,4 hPa 0,0 l/m² 7,7 km/h (2 Bft) W-NW 284 ° 2 min 932 W/m² 8,4 °C 19,6 °C 14,5 km/h (3 Bft)
30.05.2023 13:27 21,3 °C 20,2 °C 53 % 47 % 1024,4 hPa 0,0 l/m² 16,1 km/h (3 Bft) N-NW 338 ° 1 min 947 W/m² 8,5 °C 17,2 °C 27,4 km/h (5 Bft)
30.05.2023 13:28 21,3 °C 20,3 °C 53 % 48 % 1024,5 hPa 0,0 l/m² 15,9 km/h (3 Bft) N-NW 328 ° 1 min 947 W/m² 8,9 °C 17,4 °C 19,3 km/h (3 Bft)
30.05.2023 13:30 21,3 °C 20,3 °C 53 % 45 % 1024,5 hPa 0,0 l/m² 16,6 km/h (3 Bft) N-NW 344 ° 2 min 947 W/m² 8,0 °C 17,3 °C 24,1 km/h (4 Bft)
30.05.2023 13:32 21,4 °C 19,9 °C 53 % 45 % 1024,5 hPa 0,0 l/m² 8,8 km/h (2 Bft) N 360 ° 2 min 171 W/m² 7,6 °C 18,9 °C 14,5 km/h (3 Bft)
30.05.2023 13:34 21,3 °C 19,9 °C 53 % 46 % 1024,5 hPa 0,0 l/m² 14,9 km/h (3 Bft) N 355 ° 2 min 171 W/m² 7,9 °C 17,2 °C 22,5 km/h (4 Bft)
30.05.2023 13:36 21,3 °C 19,9 °C 53 % 48 % 1024,5 hPa 0,0 l/m² 7,5 km/h (2 Bft) O-NO 60 ° 2 min 923 W/m² 8,6 °C 19,4 °C 12,9 km/h (3 Bft)
30.05.2023 13:38 21,3 °C 20,1 °C 53 % 48 % 1024,4 hPa 0,0 l/m² 6,1 km/h (2 Bft) N 351 ° 2 min 918 W/m² 8,7 °C 20,1 °C 14,5 km/h (3 Bft)
30.05.2023 13:40 21,3 °C 20,3 °C 53 % 50 % 1024,5 hPa 0,0 l/m² 3,6 km/h (1 Bft) W-NW 300 ° 2 min 918 W/m² 9,5 °C 20,3 °C 6,4 km/h (2 Bft)
30.05.2023 13:42 21,3 °C 20,2 °C 53 % 46 % 1024,4 hPa 0,0 l/m² 4,5 km/h (1 Bft) N-NW 327 ° 2 min 914 W/m² 8,2 °C 20,2 °C 6,4 km/h (2 Bft)
30.05.2023 13:44 21,4 °C 20,1 °C 53 % 48 % 1024,4 hPa 0,0 l/m² 8,0 km/h (2 Bft) N 11 ° 2 min 912 W/m² 8,7 °C 19,5 °C 17,7 km/h (3 Bft)
30.05.2023 13:46 21,3 °C 20,3 °C 53 % 47 % 1024,4 hPa 0,0 l/m² 10,9 km/h (2 Bft) N-NO 19 ° 2 min 921 W/m² 8,6 °C 18,7 °C 22,5 km/h (4 Bft)
30.05.2023 13:48 21,4 °C 20,3 °C 53 % 45 % 1024,3 hPa 0,0 l/m² 12,2 km/h (2 Bft) N-NO 32 ° 2 min 921 W/m² 8,0 °C 18,3 °C 22,5 km/h (4 Bft)
30.05.2023 13:50 21,3 °C 20,1 °C 53 % 47 % 1024,3 hPa 0,0 l/m² 6,8 km/h (2 Bft) N 11 ° 2 min 911 W/m² 8,4 °C 19,9 °C 17,7 km/h (3 Bft)
30.05.2023 13:52 21,4 °C 20,4 °C 53 % 48 % 1024,3 hPa 0,0 l/m² 10,6 km/h (2 Bft) N-NW 339 ° 2 min 907 W/m² 9,0 °C 18,9 °C 19,3 km/h (3 Bft)
30.05.2023 13:54 21,4 °C 20,1 °C 53 % 46 % 1024,4 hPa 0,0 l/m² 7,8 km/h (2 Bft) N 9 ° 2 min 911 W/m² 8,1 °C 19,5 °C 12,9 km/h (3 Bft)
30.05.2023 13:56 21,3 °C 19,9 °C 53 % 48 % 1024,3 hPa 0,0 l/m² 10,2 km/h (2 Bft) W-NW 296 ° 2 min 916 W/m² 8,6 °C 18,5 °C 17,7 km/h (3 Bft)
30.05.2023 13:58 21,4 °C 20,1 °C 53 % 49 % 1024,2 hPa 0,0 l/m² 10,6 km/h (2 Bft) W-NW 301 ° 2 min 912 W/m² 9,0 °C 18,6 °C 17,7 km/h (3 Bft)
30.05.2023 14:00 21,4 °C 20,3 °C 53 % 45 % 1024,2 hPa 0,0 l/m² 9,7 km/h (2 Bft) NW 325 ° 2 min 909 W/m² 8,0 °C 19,1 °C 20,9 km/h (4 Bft)
30.05.2023 14:02 21,4 °C 20,4 °C 53 % 47 % 1024,1 hPa 0,0 l/m² 13,4 km/h (3 Bft) N-NW 335 ° 2 min 905 W/m² 8,7 °C 18,1 °C 19,3 km/h (3 Bft)
30.05.2023 14:04 21,4 °C 20,7 °C 53 % 47 % 1024,1 hPa 0,0 l/m² 11,8 km/h (2 Bft) N-NO 22 ° 2 min 905 W/m² 9,0 °C 18,9 °C 24,1 km/h (4 Bft)
30.05.2023 14:06 21,4 °C 20,8 °C 53 % 46 % 1024,2 hPa 0,0 l/m² 8,9 km/h (2 Bft) N 355 ° 2 min 895 W/m² 8,8 °C 19,9 °C 17,7 km/h (3 Bft)
30.05.2023 14:08 21,4 °C 20,6 °C 53 % 47 % 1024,1 hPa 0,0 l/m² 3,9 km/h (1 Bft) N-NW 330 ° 2 min 900 W/m² 8,9 °C 20,6 °C 16,1 km/h (3 Bft)
30.05.2023 14:10 21,4 °C 20,4 °C 53 % 45 % 1024,1 hPa 0,0 l/m² 14,5 km/h (3 Bft) N 355 ° 2 min 904 W/m² 8,1 °C 17,9 °C 19,3 km/h (3 Bft)
30.05.2023 14:12 21,4 °C 20,6 °C 53 % 47 % 1024,2 hPa 0,0 l/m² 11,4 km/h (2 Bft) W-NW 302 ° 2 min 902 W/m² 8,9 °C 18,9 °C 20,9 km/h (4 Bft)
30.05.2023 14:14 21,4 °C 20,7 °C 53 % 45 % 1024,1 hPa 0,0 l/m² 5,9 km/h (2 Bft) NW 319 ° 2 min 898 W/m² 8,3 °C 20,7 °C 12,9 km/h (3 Bft)
30.05.2023 14:16 21,4 °C 20,7 °C 53 % 47 % 1024,1 hPa 0,0 l/m² 7,4 km/h (2 Bft) NW 311 ° 2 min 896 W/m² 9,0 °C 20,3 °C 12,9 km/h (3 Bft)
30.05.2023 14:18 21,4 °C 20,4 °C 53 % 44 % 1024,0 hPa 0,0 l/m² 5,6 km/h (2 Bft) N-NO 15 ° 2 min 895 W/m² 7,7 °C 20,4 °C 14,5 km/h (3 Bft)
30.05.2023 14:20 21,4 °C 20,5 °C 53 % 48 % 1024,0 hPa 0,0 l/m² 4,6 km/h (1 Bft) N-NW 344 ° 2 min 889 W/m² 9,1 °C 20,5 °C 11,3 km/h (2 Bft)
30.05.2023 14:22 21,4 °C 20,8 °C 53 % 46 % 1024,1 hPa 0,0 l/m² 11,4 km/h (2 Bft) NW 319 ° 2 min 882 W/m² 8,8 °C 19,1 °C 17,7 km/h (3 Bft)
30.05.2023 14:24 21,4 °C 21,1 °C 53 % 48 % 1024,0 hPa 0,0 l/m² 10,2 km/h (2 Bft) N-NO 18 ° 2 min 891 W/m² 9,7 °C 19,8 °C 16,1 km/h (3 Bft)
30.05.2023 14:26 21,4 °C 21,1 °C 53 % 45 % 1024,0 hPa 0,0 l/m² 15,5 km/h (3 Bft) NW 324 ° 2 min 884 W/m² 8,7 °C 18,5 °C 24,1 km/h (4 Bft)
30.05.2023 14:28 21,4 °C 20,8 °C 53 % 45 % 1023,9 hPa 0,0 l/m² 9,3 km/h (2 Bft) W-NW 298 ° 2 min 888 W/m² 8,4 °C 19,7 °C 14,5 km/h (3 Bft)
30.05.2023 14:30 21,4 °C 20,5 °C 53 % 48 % 1023,9 hPa 0,0 l/m² 5,3 km/h (1 Bft) N 360 ° 2 min 879 W/m² 9,1 °C 20,5 °C 11,3 km/h (2 Bft)
30.05.2023 14:32 21,4 °C 20,9 °C 53 % 48 % 1023,9 hPa 0,0 l/m² 5,4 km/h (2 Bft) NW 321 ° 2 min 877 W/m² 9,5 °C 20,9 °C 9,7 km/h (2 Bft)
30.05.2023 14:34 21,4 °C 21,2 °C 53 % 46 % 1023,9 hPa 0,0 l/m² 15,7 km/h (3 Bft) N-NW 340 ° 2 min 877 W/m² 9,1 °C 18,6 °C 22,5 km/h (4 Bft)
30.05.2023 14:36 21,4 °C 21,0 °C 53 % 47 % 1024,0 hPa 0,0 l/m² 12,7 km/h (3 Bft) N-NW 332 ° 2 min 881 W/m² 9,3 °C 19,0 °C 20,9 km/h (4 Bft)
30.05.2023 14:38 21,4 °C 20,9 °C 53 % 46 % 1023,9 hPa 0,0 l/m² 10,7 km/h (2 Bft) N-NW 342 ° 2 min 868 W/m² 8,8 °C 19,4 °C 19,3 km/h (3 Bft)
30.05.2023 14:40 21,4 °C 21,1 °C 53 % 48 % 1023,9 hPa 0,0 l/m² 3,8 km/h (1 Bft) N 9 ° 2 min 865 W/m² 9,7 °C 21,1 °C 8,0 km/h (2 Bft)
30.05.2023 14:42 21,4 °C 21,3 °C 53 % 47 % 1023,9 hPa 0,0 l/m² 3,0 km/h (1 Bft) NW 305 ° 2 min 863 W/m² 9,5 °C 21,3 °C 4,8 km/h (1 Bft)
30.05.2023 14:44 21,4 °C 20,7 °C 53 % 46 % 1023,9 hPa 0,0 l/m² 4,5 km/h (1 Bft) N-NW 341 ° 2 min 865 W/m² 8,7 °C 20,7 °C 17,7 km/h (3 Bft)
30.05.2023 14:46 21,4 °C 20,7 °C 53 % 47 % 1024,0 hPa 0,0 l/m² 12,8 km/h (3 Bft) N-NO 17 ° 2 min 865 W/m² 9,0 °C 18,6 °C 20,9 km/h (4 Bft)
30.05.2023 14:48 21,4 °C 21,2 °C 53 % 48 % 1024,0 hPa 0,0 l/m² 8,0 km/h (2 Bft) N-NO 19 ° 2 min 860 W/m² 9,7 °C 20,6 °C 16,1 km/h (3 Bft)
30.05.2023 14:50 21,4 °C 21,4 °C 53 % 46 % 1023,9 hPa 0,0 l/m² 9,3 km/h (2 Bft) N-NO 32 ° 2 min 861 W/m² 9,3 °C 20,4 °C 16,1 km/h (3 Bft)
30.05.2023 14:52 21,4 °C 21,7 °C 53 % 44 % 1024,0 hPa 0,0 l/m² 9,7 km/h (2 Bft) N-NW 343 ° 2 min 870 W/m² 8,9 °C 20,6 °C 20,9 km/h (4 Bft)
30.05.2023 14:54 21,4 °C 21,6 °C 53 % 45 % 1023,9 hPa 0,0 l/m² 9,8 km/h (2 Bft) N-NO 29 ° 2 min 860 W/m² 9,2 °C 20,5 °C 16,1 km/h (3 Bft)
30.05.2023 14:56 21,4 °C 21,8 °C 53 % 46 % 1023,9 hPa 0,0 l/m² 8,8 km/h (2 Bft) NO 51 ° 2 min 863 W/m² 9,7 °C 21,0 °C 14,5 km/h (3 Bft)
30.05.2023 14:58 21,4 °C 21,6 °C 53 % 44 % 1023,8 hPa 0,0 l/m² 5,4 km/h (2 Bft) N-NW 338 ° 2 min 856 W/m² 8,8 °C 21,6 °C 9,7 km/h (2 Bft)
30.05.2023 15:00 21,4 °C 21,6 °C 53 % 46 % 1023,9 hPa 0,0 l/m² 9,1 km/h (2 Bft) N-NO 32 ° 2 min 853 W/m² 9,5 °C 20,7 °C 16,1 km/h (3 Bft)
30.05.2023 15:02 21,5 °C 21,6 °C 53 % 44 % 1023,9 hPa 0,0 l/m² 10,7 km/h (2 Bft) N-NW 347 ° 2 min 838 W/m² 8,8 °C 20,2 °C 19,3 km/h (3 Bft)
30.05.2023 15:04 21,4 °C 21,3 °C 53 % 45 % 1023,9 hPa 0,0 l/m² 13,0 km/h (3 Bft) NW 311 ° 2 min 840 W/m² 8,9 °C 19,3 °C 17,7 km/h (3 Bft)
30.05.2023 15:06 21,5 °C 21,5 °C 53 % 46 % 1023,8 hPa 0,0 l/m² 8,0 km/h (2 Bft) NO 44 ° 2 min 858 W/m² 9,4 °C 20,9 °C 16,1 km/h (3 Bft)
30.05.2023 15:08 21,4 °C 21,6 °C 53 % 46 % 1023,9 hPa 0,0 l/m² 7,2 km/h (2 Bft) NO 35 ° 2 min 854 W/m² 9,5 °C 21,3 °C 12,9 km/h (3 Bft)
30.05.2023 15:10 21,5 °C 21,6 °C 53 % 46 % 1023,8 hPa 0,0 l/m² 3,6 km/h (1 Bft) N-NO 23 ° 2 min 847 W/m² 9,5 °C 21,6 °C 9,7 km/h (2 Bft)
30.05.2023 15:12 21,5 °C 21,7 °C 53 % 46 % 1023,8 hPa 0,0 l/m² 10,3 km/h (2 Bft) N-NW 340 ° 2 min 840 W/m² 9,6 °C 20,4 °C 20,9 km/h (4 Bft)
30.05.2023 15:13 21,5 °C 21,8 °C 53 % 47 % 1023,9 hPa 0,0 l/m² 9,0 km/h (2 Bft) N-NW 338 ° 1 min 837 W/m² 10,0 °C 20,9 °C 14,5 km/h (3 Bft)
30.05.2023 15:14 21,5 °C 21,8 °C 53 % 43 % 1023,9 hPa 0,0 l/m² 12,0 km/h (2 Bft) NO 39 ° 1 min 823 W/m² 8,7 °C 20,1 °C 19,3 km/h (3 Bft)
30.05.2023 15:15 21,5 °C 21,8 °C 53 % 44 % 1023,9 hPa 0,0 l/m² 6,4 km/h (2 Bft) N-NO 19 ° 1 min 823 W/m² 9,0 °C 21,8 °C 9,7 km/h (2 Bft)
30.05.2023 15:17 21,5 °C 21,6 °C 54 % 45 % 1023,9 hPa 0,0 l/m² 9,7 km/h (2 Bft) N-NO 28 ° 2 min 819 W/m² 9,2 °C 20,5 °C 14,5 km/h (3 Bft)
30.05.2023 15:19 21,5 °C 21,9 °C 54 % 47 % 1023,8 hPa 0,0 l/m² 6,2 km/h (2 Bft) O-NO 61 ° 2 min 817 W/m² 10,1 °C 21,9 °C 14,5 km/h (3 Bft)
30.05.2023 15:20 21,5 °C 21,9 °C 54 % 46 % 1023,9 hPa 0,0 l/m² 8,7 km/h (2 Bft) N-NO 16 ° 1 min 824 W/m² 9,7 °C 21,1 °C 14,5 km/h (3 Bft)
30.05.2023 15:21 21,6 °C 22,1 °C 54 % 46 % 1023,9 hPa 0,0 l/m² 5,8 km/h (2 Bft) N-NO 32 ° 1 min 823 W/m² 9,9 °C 22,1 °C 8,0 km/h (2 Bft)
30.05.2023 15:23 21,5 °C 22,5 °C 54 % 46 % 1023,9 hPa 0,0 l/m² 5,4 km/h (2 Bft) NO 48 ° 2 min 817 W/m² 10,3 °C 22,5 °C 12,9 km/h (3 Bft)
30.05.2023 15:24 21,5 °C 22,4 °C 54 % 44 % 1023,8 hPa 0,0 l/m² 6,0 km/h (2 Bft) N-NW 348 ° 1 min 824 W/m² 9,5 °C 22,4 °C 8,0 km/h (2 Bft)
30.05.2023 15:25 21,5 °C 22,2 °C 54 % 41 % 1023,8 hPa 0,0 l/m² 1,1 km/h (1 Bft) N 355 ° 1 min 816 W/m² 8,3 °C 22,2 °C 4,8 km/h (1 Bft)
30.05.2023 15:27 21,5 °C 22,0 °C 54 % 44 % 1023,7 hPa 0,0 l/m² 5,6 km/h (2 Bft) N-NW 336 ° 2 min 828 W/m² 9,2 °C 22,0 °C 16,1 km/h (3 Bft)
30.05.2023 15:28 21,5 °C 21,9 °C 54 % 42 % 1023,8 hPa 0,0 l/m² 7,6 km/h (2 Bft) N 355 ° 1 min 837 W/m² 8,4 °C 21,5 °C 16,1 km/h (3 Bft)
30.05.2023 15:29 21,5 °C 21,8 °C 54 % 44 % 1023,8 hPa 0,0 l/m² 18,3 km/h (3 Bft) N 355 ° 1 min 807 W/m² 9,0 °C 18,8 °C 24,1 km/h (4 Bft)
30.05.2023 15:30 21,5 °C 21,7 °C 54 % 44 % 1023,8 hPa 0,0 l/m² 12,6 km/h (3 Bft) N-NW 336 ° 1 min 807 W/m² 8,9 °C 19,8 °C 16,1 km/h (3 Bft)
30.05.2023 15:31 21,6 °C 21,7 °C 54 % 45 % 1023,8 hPa 0,0 l/m² 11,3 km/h (2 Bft) NW 315 ° 1 min 800 W/m² 9,2 °C 20,2 °C 20,9 km/h (4 Bft)
30.05.2023 15:32 21,5 °C 21,7 °C 54 % 44 % 1023,8 hPa 0,0 l/m² 11,3 km/h (2 Bft) N-NW 337 ° 1 min 788 W/m² 8,9 °C 20,2 °C 20,9 km/h (4 Bft)
30.05.2023 15:33 21,5 °C 21,6 °C 54 % 44 % 1023,8 hPa 0,0 l/m² 17,7 km/h (3 Bft) N-NW 337 ° 1 min 789 W/m² 8,8 °C 18,7 °C 22,5 km/h (4 Bft)
30.05.2023 15:34 21,6 °C 21,6 °C 54 % 45 % 1023,7 hPa 0,0 l/m² 14,5 km/h (3 Bft) N 360 ° 1 min 786 W/m² 9,2 °C 19,3 °C 20,9 km/h (4 Bft)
30.05.2023 15:35 21,6 °C 21,6 °C 54 % 44 % 1023,8 hPa 0,0 l/m² 8,0 km/h (2 Bft) N 360 ° 1 min 789 W/m² 8,8 °C 21,0 °C 12,9 km/h (3 Bft)
30.05.2023 15:36 21,6 °C 21,6 °C 54 % 44 % 1023,7 hPa 0,0 l/m² 12,9 km/h (3 Bft) N-NO 22 ° 1 min 793 W/m² 8,8 °C 19,7 °C 19,3 km/h (3 Bft)
30.05.2023 15:37 21,5 °C 21,4 °C 54 % 44 % 1023,7 hPa 0,0 l/m² 12,9 km/h (3 Bft) N 360 ° 1 min 788 W/m² 8,6 °C 19,4 °C 19,3 km/h (3 Bft)
30.05.2023 15:38 21,6 °C 21,4 °C 54 % 44 % 1023,7 hPa 0,0 l/m² 12,9 km/h (3 Bft) NO 45 ° 1 min 786 W/m² 8,6 °C 19,4 °C 19,3 km/h (3 Bft)
30.05.2023 15:39 21,5 °C 21,5 °C 54 % 45 % 1023,7 hPa 0,0 l/m² 8,0 km/h (2 Bft) NO 45 ° 1 min 788 W/m² 9,1 °C 20,9 °C 14,5 km/h (3 Bft)
30.05.2023 15:40 21,5 °C 21,5 °C 54 % 44 % 1023,7 hPa 0,0 l/m² 9,7 km/h (2 Bft) N 360 ° 1 min 786 W/m² 8,7 °C 20,4 °C 20,9 km/h (4 Bft)
30.05.2023 15:41 21,5 °C 21,5 °C 54 % 45 % 1023,7 hPa 0,0 l/m² 3,2 km/h (1 Bft) O-NO 67 ° 1 min 782 W/m² 9,1 °C 21,5 °C 8,0 km/h (2 Bft)
30.05.2023 15:42 21,6 °C 21,6 °C 54 % 47 % 1023,7 hPa 0,0 l/m² 3,2 km/h (1 Bft) O-NO 67 ° 1 min 784 W/m² 9,8 °C 21,6 °C 8,0 km/h (2 Bft)
30.05.2023 15:43 21,5 °C 21,7 °C 54 % 45 % 1023,7 hPa 0,0 l/m² 8,0 km/h (2 Bft) NO 45 ° 1 min 782 W/m² 9,2 °C 21,1 °C 11,3 km/h (2 Bft)
30.05.2023 15:44 21,5 °C 21,9 °C 54 % 47 % 1023,7 hPa 0,0 l/m² 9,7 km/h (2 Bft) N 360 ° 1 min 775 W/m² 10,1 °C 20,8 °C 20,9 km/h (4 Bft)
30.05.2023 15:45 21,5 °C 21,9 °C 54 % 44 % 1023,7 hPa 0,0 l/m² 14,5 km/h (3 Bft) N-NW 337 ° 1 min 772 W/m² 9,1 °C 19,7 °C 22,5 km/h (4 Bft)
30.05.2023 15:46 21,5 °C 21,8 °C 54 % 44 % 1023,7 hPa 0,0 l/m² 14,5 km/h (3 Bft) N-NW 337 ° 1 min 758 W/m² 9,0 °C 19,5 °C 22,5 km/h (4 Bft)
30.05.2023 15:47 21,5 °C 21,7 °C 54 % 44 % 1023,7 hPa 0,0 l/m² 12,9 km/h (3 Bft) N-NW 337 ° 1 min 758 W/m² 8,9 °C 19,8 °C 17,7 km/h (3 Bft)
30.05.2023 15:48 21,5 °C 21,6 °C 54 % 44 % 1023,7 hPa 0,0 l/m² 12,9 km/h (3 Bft) N-NW 337 ° 1 min 759 W/m² 8,8 °C 19,7 °C 16,1 km/h (3 Bft)
30.05.2023 15:49 21,5 °C 21,6 °C 54 % 46 % 1023,7 hPa 0,0 l/m² 12,9 km/h (3 Bft) N-NW 337 ° 1 min 756 W/m² 9,5 °C 19,7 °C 16,1 km/h (3 Bft)
30.05.2023 15:50 21,5 °C 21,7 °C 54 % 45 % 1023,7 hPa 0,0 l/m² 9,7 km/h (2 Bft) N-NW 337 ° 1 min 758 W/m² 9,2 °C 20,6 °C 17,7 km/h (3 Bft)
30.05.2023 15:51 21,5 °C 21,7 °C 54 % 45 % 1023,6 hPa 0,0 l/m² 9,7 km/h (2 Bft) NW 315 ° 1 min 758 W/m² 9,2 °C 20,6 °C 17,7 km/h (3 Bft)
30.05.2023 15:52 21,5 °C 21,6 °C 54 % 45 % 1023,6 hPa 0,0 l/m² 6,4 km/h (2 Bft) NW 315 ° 1 min 758 W/m² 9,2 °C 21,6 °C 19,3 km/h (3 Bft)
30.05.2023 15:53 21,5 °C 21,6 °C 54 % 45 % 1023,6 hPa 0,0 l/m² 11,3 km/h (2 Bft) N-NW 337 ° 1 min 752 W/m² 9,2 °C 20,1 °C 20,9 km/h (4 Bft)
30.05.2023 15:54 21,5 °C 21,6 °C 54 % 44 % 1023,6 hPa 0,0 l/m² 16,1 km/h (3 Bft) N-NW 337 ° 1 min 747 W/m² 8,8 °C 19,0 °C 20,9 km/h (4 Bft)
30.05.2023 15:55 21,5 °C 21,6 °C 54 % 44 % 1023,7 hPa 0,0 l/m² 12,9 km/h (3 Bft) N-NW 337 ° 1 min 745 W/m² 8,8 °C 19,7 °C 16,1 km/h (3 Bft)
30.05.2023 15:56 21,5 °C 21,4 °C 54 % 44 % 1023,6 hPa 0,0 l/m² 12,9 km/h (3 Bft) N-NW 337 ° 1 min 744 W/m² 8,6 °C 19,4 °C 16,1 km/h (3 Bft)
30.05.2023 15:57 21,5 °C 21,6 °C 54 % 45 % 1023,6 hPa 0,0 l/m² 11,3 km/h (2 Bft) NW 315 ° 1 min 738 W/m² 9,2 °C 20,1 °C 16,1 km/h (3 Bft)
30.05.2023 15:58 21,4 °C 21,6 °C 54 % 45 % 1023,5 hPa 0,0 l/m² 12,9 km/h (3 Bft) N-NW 337 ° 1 min 738 W/m² 9,2 °C 19,7 °C 17,7 km/h (3 Bft)
30.05.2023 15:59 21,5 °C 21,6 °C 54 % 45 % 1023,6 hPa 0,0 l/m² 12,9 km/h (3 Bft) N-NW 337 ° 1 min 740 W/m² 9,2 °C 19,7 °C 16,1 km/h (3 Bft)
30.05.2023 16:00 21,5 °C 21,7 °C 54 % 44 % 1023,7 hPa 0,0 l/m² 11,3 km/h (2 Bft) N 360 ° 1 min 735 W/m² 8,9 °C 20,2 °C 16,1 km/h (3 Bft)
30.05.2023 16:01 21,5 °C 21,8 °C 54 % 45 % 1023,6 hPa 0,0 l/m² 8,0 km/h (2 Bft) N-NW 337 ° 1 min 731 W/m² 9,3 °C 21,2 °C 12,9 km/h (3 Bft)
30.05.2023 16:02 21,5 °C 21,9 °C 54 % 45 % 1023,6 hPa 0,0 l/m² 3,2 km/h (1 Bft) O-NO 67 ° 1 min 735 W/m² 9,4 °C 21,9 °C 6,4 km/h (2 Bft)
30.05.2023 16:03 21,5 °C 22,0 °C 54 % 45 % 1023,6 hPa 0,0 l/m² 6,4 km/h (2 Bft) N-NO 22 ° 1 min 729 W/m² 9,5 °C 22,0 °C 11,3 km/h (2 Bft)
30.05.2023 16:04 21,4 °C 22,0 °C 54 % 43 % 1023,5 hPa 0,0 l/m² 4,8 km/h (1 Bft) N-NW 337 ° 1 min 729 W/m² 8,8 °C 22,0 °C 8,0 km/h (2 Bft)
30.05.2023 16:05 21,4 °C 21,9 °C 54 % 44 % 1023,5 hPa 0,0 l/m² 9,7 km/h (2 Bft) N-NW 337 ° 1 min 724 W/m² 9,1 °C 20,8 °C 16,1 km/h (3 Bft)
30.05.2023 16:06 21,4 °C 21,9 °C 54 % 44 % 1023,5 hPa 0,0 l/m² 9,7 km/h (2 Bft) N 360 ° 1 min 721 W/m² 9,1 °C 20,8 °C 19,3 km/h (3 Bft)
30.05.2023 16:07 21,4 °C 21,9 °C 54 % 45 % 1023,6 hPa 0,0 l/m² 8,0 km/h (2 Bft) N-NO 22 ° 1 min 717 W/m² 9,4 °C 21,3 °C 14,5 km/h (3 Bft)
30.05.2023 16:08 21,4 °C 21,9 °C 54 % 46 % 1023,5 hPa 0,0 l/m² 4,8 km/h (1 Bft) NO 45 ° 1 min 715 W/m² 9,7 °C 21,9 °C 6,4 km/h (2 Bft)
30.05.2023 16:09 21,4 °C 21,9 °C 54 % 46 % 1023,5 hPa 0,0 l/m² 6,4 km/h (2 Bft) N-NO 22 ° 1 min 715 W/m² 9,7 °C 21,9 °C 12,9 km/h (3 Bft)
30.05.2023 16:10 21,4 °C 21,9 °C 54 % 44 % 1023,5 hPa 0,0 l/m² 3,2 km/h (1 Bft) N 360 ° 1 min 715 W/m² 9,1 °C 21,9 °C 6,4 km/h (2 Bft)
30.05.2023 16:11 21,4 °C 21,8 °C 54 % 43 % 1023,5 hPa 0,0 l/m² 3,2 km/h (1 Bft) N-NW 337 ° 1 min 714 W/m² 8,7 °C 21,8 °C 9,7 km/h (2 Bft)
30.05.2023 16:12 21,4 °C 21,8 °C 54 % 46 % 1023,5 hPa 0,0 l/m² 6,4 km/h (2 Bft) N 360 ° 1 min 708 W/m² 9,7 °C 21,8 °C 14,5 km/h (3 Bft)
30.05.2023 16:13 21,4 °C 21,8 °C 54 % 44 % 1024,0 hPa 0,0 l/m² 9,7 km/h (2 Bft) N-NW 337 ° 1 min 712 W/m² 9,0 °C 20,7 °C 17,7 km/h (3 Bft)
30.05.2023 16:14 21,4 °C 21,9 °C 54 % 43 % 1023,5 hPa 0,0 l/m² 12,9 km/h (3 Bft) NW 315 ° 1 min 707 W/m² 8,7 °C 20,0 °C 17,7 km/h (3 Bft)
30.05.2023 16:15 21,4 °C 21,9 °C 54 % 43 % 1023,5 hPa 0,0 l/m² 12,9 km/h (3 Bft) NW 315 ° 1 min 708 W/m² 8,7 °C 20,0 °C 17,7 km/h (3 Bft)
30.05.2023 16:16 21,4 °C 21,9 °C 54 % 43 % 1023,5 hPa 0,0 l/m² 11,3 km/h (2 Bft) N-NW 337 ° 1 min 708 W/m² 8,7 °C 20,4 °C 17,7 km/h (3 Bft)
30.05.2023 16:17 21,4 °C 21,9 °C 54 % 44 % 1023,5 hPa 0,0 l/m² 9,7 km/h (2 Bft) N-NW 337 ° 1 min 701 W/m² 9,1 °C 20,8 °C 14,5 km/h (3 Bft)
30.05.2023 16:18 21,4 °C 21,8 °C 54 % 43 % 1023,4 hPa 0,0 l/m² 9,7 km/h (2 Bft) N 360 ° 1 min 696 W/m² 8,7 °C 20,7 °C 14,5 km/h (3 Bft)
30.05.2023 16:19 21,4 °C 21,7 °C 54 % 42 % 1023,5 hPa 0,0 l/m² 4,8 km/h (1 Bft) N 360 ° 1 min 694 W/m² 8,2 °C 21,7 °C 9,7 km/h (2 Bft)
30.05.2023 16:20 21,4 °C 21,7 °C 54 % 43 % 1023,4 hPa 0,0 l/m² 4,8 km/h (1 Bft) N-NW 337 ° 1 min 691 W/m² 8,6 °C 21,7 °C 6,4 km/h (2 Bft)
30.05.2023 16:21 21,4 °C 21,7 °C 54 % 43 % 1023,4 hPa 0,0 l/m² 6,4 km/h (2 Bft) N 360 ° 1 min 686 W/m² 8,6 °C 21,7 °C 8,0 km/h (2 Bft)
30.05.2023 16:22 21,4 °C 21,7 °C 54 % 45 % 1023,4 hPa 0,0 l/m² 4,8 km/h (1 Bft) N-NW 337 ° 1 min 686 W/m² 9,2 °C 21,7 °C 8,0 km/h (2 Bft)
30.05.2023 16:23 21,4 °C 21,7 °C 54 % 43 % 1023,4 hPa 0,0 l/m² 6,4 km/h (2 Bft) N-NW 337 ° 1 min 682 W/m² 8,6 °C 21,7 °C 9,7 km/h (2 Bft)
30.05.2023 16:24 21,4 °C 21,9 °C 54 % 44 % 1023,4 hPa 0,0 l/m² 6,4 km/h (2 Bft) N 360 ° 1 min 675 W/m² 9,1 °C 21,9 °C 12,9 km/h (3 Bft)
30.05.2023 16:25 21,4 °C 22,2 °C 54 % 47 % 1023,4 hPa 0,0 l/m² 8,0 km/h (2 Bft) N-NO 22 ° 1 min 675 W/m² 10,3 °C 21,7 °C 16,1 km/h (3 Bft)
30.05.2023 16:26 21,4 °C 22,2 °C 54 % 43 % 1023,4 hPa 0,0 l/m² 14,5 km/h (3 Bft) N-NW 337 ° 1 min 679 W/m² 9,0 °C 20,0 °C 20,9 km/h (4 Bft)
30.05.2023 16:27 21,4 °C 22,1 °C 54 % 42 % 1023,4 hPa 0,0 l/m² 17,7 km/h (3 Bft) N-NW 337 ° 1 min 677 W/m² 8,6 °C 19,3 °C 25,7 km/h (4 Bft)
30.05.2023 16:28 21,4 °C 21,9 °C 54 % 43 % 1023,4 hPa 0,0 l/m² 16,1 km/h (3 Bft) N-NW 337 ° 1 min 680 W/m² 8,7 °C 19,3 °C 22,5 km/h (4 Bft)
30.05.2023 16:29 21,4 °C 21,9 °C 54 % 43 % 1023,4 hPa 0,0 l/m² 14,5 km/h (3 Bft) N-NW 337 ° 1 min 680 W/m² 8,7 °C 19,7 °C 17,7 km/h (3 Bft)
30.05.2023 16:30 21,4 °C 21,8 °C 54 % 42 % 1023,4 hPa 0,0 l/m² 9,7 km/h (2 Bft) N-NW 337 ° 1 min 680 W/m² 8,3 °C 20,7 °C 14,5 km/h (3 Bft)
30.05.2023 16:31 21,4 °C 21,7 °C 54 % 43 % 1023,5 hPa 0,0 l/m² 9,7 km/h (2 Bft) N-NW 337 ° 1 min 680 W/m² 8,6 °C 20,6 °C 14,5 km/h (3 Bft)
30.05.2023 16:32 21,4 °C 21,7 °C 54 % 46 % 1023,5 hPa 0,0 l/m² 12,9 km/h (3 Bft) NW 315 ° 1 min 671 W/m² 9,6 °C 19,8 °C 19,3 km/h (3 Bft)
30.05.2023 16:33 21,4 °C 21,8 °C 54 % 44 % 1023,5 hPa 0,0 l/m² 8,0 km/h (2 Bft) NW 315 ° 1 min 670 W/m² 9,0 °C 21,2 °C 14,5 km/h (3 Bft)
30.05.2023 16:34 21,4 °C 21,9 °C 54 % 44 % 1023,4 hPa 0,0 l/m² 6,4 km/h (2 Bft) NW 315 ° 1 min 671 W/m² 9,1 °C 21,9 °C 9,7 km/h (2 Bft)
30.05.2023 16:35 21,4 °C 22,1 °C 54 % 45 % 1023,4 hPa 0,0 l/m² 6,4 km/h (2 Bft) W-NW 292 ° 1 min 671 W/m² 9,6 °C 22,1 °C 17,7 km/h (3 Bft)
30.05.2023 16:36 21,4 °C 22,2 °C 54 % 44 % 1023,4 hPa 0,0 l/m² 6,4 km/h (2 Bft) NW 315 ° 1 min 673 W/m² 9,4 °C 22,2 °C 11,3 km/h (2 Bft)
30.05.2023 16:37 21,3 °C 22,2 °C 54 % 44 % 1023,4 hPa 0,0 l/m² 4,8 km/h (1 Bft) W-NW 292 ° 1 min 675 W/m² 9,4 °C 22,2 °C 12,9 km/h (3 Bft)
30.05.2023 16:38 21,4 °C 22,3 °C 54 % 45 % 1023,4 hPa 0,0 l/m² 4,8 km/h (1 Bft) NW 315 ° 1 min 677 W/m² 9,8 °C 22,3 °C 12,9 km/h (3 Bft)
30.05.2023 16:39 21,4 °C 22,3 °C 54 % 43 % 1023,4 hPa 0,0 l/m² 6,4 km/h (2 Bft) NW 315 ° 1 min 677 W/m² 9,1 °C 22,3 °C 12,9 km/h (3 Bft)
30.05.2023 16:40 21,3 °C 22,3 °C 54 % 44 % 1023,3 hPa 0,0 l/m² 4,8 km/h (1 Bft) W-NW 292 ° 1 min 673 W/m² 9,5 °C 22,3 °C 8,0 km/h (2 Bft)
30.05.2023 16:41 21,3 °C 22,4 °C 54 % 44 % 1023,3 hPa 0,0 l/m² 12,9 km/h (3 Bft) N-NW 337 ° 1 min 657 W/m² 9,5 °C 20,6 °C 19,3 km/h (3 Bft)
30.05.2023 16:42 21,3 °C 22,3 °C 54 % 42 % 1023,4 hPa 0,0 l/m² 12,9 km/h (3 Bft) N-NW 337 ° 1 min 649 W/m² 8,8 °C 20,5 °C 19,3 km/h (3 Bft)
30.05.2023 16:43 21,4 °C 22,3 °C 54 % 42 % 1023,3 hPa 0,0 l/m² 9,7 km/h (2 Bft) N-NW 337 ° 1 min 647 W/m² 8,8 °C 21,3 °C 14,5 km/h (3 Bft)
30.05.2023 16:44 21,3 °C 22,2 °C 54 % 42 % 1023,3 hPa 0,0 l/m² 11,3 km/h (2 Bft) NW 315 ° 1 min 643 W/m² 8,7 °C 20,7 °C 16,1 km/h (3 Bft)
30.05.2023 16:45 21,3 °C 22,1 °C 54 % 43 % 1023,3 hPa 0,0 l/m² 8,0 km/h (2 Bft) N-NW 337 ° 1 min 643 W/m² 8,9 °C 21,6 °C 14,5 km/h (3 Bft)
30.05.2023 16:46 21,3 °C 22,1 °C 54 % 43 % 1023,3 hPa 0,0 l/m² 9,7 km/h (2 Bft) N 360 ° 1 min 638 W/m² 8,9 °C 21,0 °C 19,3 km/h (3 Bft)
30.05.2023 16:47 21,3 °C 22,1 °C 54 % 43 % 1023,3 hPa 0,0 l/m² 11,3 km/h (2 Bft) N 360 ° 1 min 629 W/m² 8,9 °C 20,6 °C 17,7 km/h (3 Bft)
30.05.2023 16:48 21,3 °C 22,1 °C 54 % 43 % 1023,3 hPa 0,0 l/m² 8,0 km/h (2 Bft) N 360 ° 1 min 624 W/m² 8,9 °C 21,6 °C 14,5 km/h (3 Bft)
30.05.2023 16:49 21,3 °C 22,1 °C 54 % 43 % 1023,4 hPa 0,0 l/m² 11,3 km/h (2 Bft) N-NW 337 ° 1 min 619 W/m² 8,9 °C 20,6 °C 17,7 km/h (3 Bft)
30.05.2023 16:50 21,3 °C 22,1 °C 54 % 44 % 1023,3 hPa 0,0 l/m² 12,9 km/h (3 Bft) N-NW 337 ° 1 min 617 W/m² 9,3 °C 20,2 °C 22,5 km/h (4 Bft)
30.05.2023 16:51 21,3 °C 21,9 °C 54 % 42 % 1023,3 hPa 0,0 l/m² 14,5 km/h (3 Bft) N-NW 337 ° 1 min 613 W/m² 8,4 °C 19,7 °C 19,3 km/h (3 Bft)
30.05.2023 16:52 21,3 °C 21,8 °C 54 % 44 % 1023,4 hPa 0,0 l/m² 8,0 km/h (2 Bft) N 360 ° 1 min 613 W/m² 9,0 °C 21,2 °C 14,5 km/h (3 Bft)
30.05.2023 16:53 21,3 °C 21,9 °C 54 % 46 % 1023,3 hPa 0,0 l/m² 4,8 km/h (1 Bft) NW 315 ° 1 min 606 W/m² 9,7 °C 21,9 °C 8,0 km/h (2 Bft)
30.05.2023 16:54 21,3 °C 21,9 °C 54 % 45 % 1023,4 hPa 0,0 l/m² 8,0 km/h (2 Bft) N 360 ° 1 min 606 W/m² 9,4 °C 21,3 °C 16,1 km/h (3 Bft)
30.05.2023 16:55 21,3 °C 21,9 °C 54 % 44 % 1023,3 hPa 0,0 l/m² 8,0 km/h (2 Bft) N-NW 337 ° 1 min 608 W/m² 9,1 °C 21,3 °C 17,7 km/h (3 Bft)
30.05.2023 16:56 21,3 °C 21,9 °C 54 % 45 % 1023,4 hPa 0,0 l/m² 9,7 km/h (2 Bft) N-NW 337 ° 1 min 610 W/m² 9,4 °C 20,8 °C 16,1 km/h (3 Bft)
30.05.2023 16:57 21,3 °C 22,0 °C 54 % 44 % 1023,4 hPa 0,0 l/m² 14,5 km/h (3 Bft) NW 315 ° 1 min 608 W/m² 9,2 °C 19,8 °C 17,7 km/h (3 Bft)
30.05.2023 16:58 21,3 °C 22,1 °C 54 % 43 % 1023,4 hPa 0,0 l/m² 17,7 km/h (3 Bft) N-NW 337 ° 1 min 608 W/m² 8,9 °C 19,3 °C 22,5 km/h (4 Bft)
30.05.2023 16:59 21,3 °C 22,0 °C 54 % 42 % 1023,4 hPa 0,0 l/m² 12,9 km/h (3 Bft) N 360 ° 1 min 608 W/m² 8,5 °C 20,1 °C 16,1 km/h (3 Bft)
30.05.2023 17:00 21,3 °C 22,0 °C 54 % 43 % 1023,4 hPa 0,0 l/m² 11,3 km/h (2 Bft) N 360 ° 1 min 605 W/m² 8,8 °C 20,5 °C 17,7 km/h (3 Bft)
30.05.2023 17:01 21,3 °C 22,1 °C 54 % 43 % 1023,4 hPa 0,0 l/m² 9,7 km/h (2 Bft) N-NW 337 ° 1 min 605 W/m² 8,9 °C 21,0 °C 16,1 km/h (3 Bft)
30.05.2023 17:02 21,3 °C 22,1 °C 54 % 43 % 1023,4 hPa 0,0 l/m² 6,4 km/h (2 Bft) N 360 ° 1 min 601 W/m² 8,9 °C 22,1 °C 11,3 km/h (2 Bft)
30.05.2023 17:03 21,3 °C 22,1 °C 54 % 42 % 1023,3 hPa 0,0 l/m² 6,4 km/h (2 Bft) N 360 ° 1 min 599 W/m² 8,6 °C 22,1 °C 8,0 km/h (2 Bft)
30.05.2023 17:04 21,3 °C 21,9 °C 54 % 41 % 1023,3 hPa 0,0 l/m² 0,0 km/h (0 Bft) N-NW 337 ° 1 min 598 W/m² 8,0 °C 21,9 °C 3,2 km/h (1 Bft)
30.05.2023 17:05 21,3 °C 21,8 °C 54 % 44 % 1023,4 hPa 0,0 l/m² 3,2 km/h (1 Bft) N 360 ° 1 min 605 W/m² 9,0 °C 21,8 °C 9,7 km/h (2 Bft)
30.05.2023 17:06 21,3 °C 21,8 °C 54 % 43 % 1023,4 hPa 0,0 l/m² 6,4 km/h (2 Bft) N 360 ° 1 min 603 W/m² 8,7 °C 21,8 °C 12,9 km/h (3 Bft)
30.05.2023 17:07 21,3 °C 21,9 °C 54 % 43 % 1023,3 hPa 0,0 l/m² 3,2 km/h (1 Bft) N-NW 337 ° 1 min 601 W/m² 8,7 °C 21,9 °C 9,7 km/h (2 Bft)
30.05.2023 17:08 21,3 °C 22,0 °C 54 % 46 % 1023,3 hPa 0,0 l/m² 6,4 km/h (2 Bft) N 360 ° 1 min 598 W/m² 9,8 °C 22,0 °C 9,7 km/h (2 Bft)
30.05.2023 17:09 21,3 °C 22,1 °C 54 % 44 % 1023,4 hPa 0,0 l/m² 4,8 km/h (1 Bft) N 360 ° 1 min 592 W/m² 9,3 °C 22,1 °C 8,0 km/h (2 Bft)
30.05.2023 17:10 21,3 °C 22,2 °C 54 % 45 % 1023,3 hPa 0,0 l/m² 9,7 km/h (2 Bft) N 360 ° 1 min 592 W/m² 9,7 °C 21,2 °C 17,7 km/h (3 Bft)
30.05.2023 17:11 21,3 °C 22,2 °C 54 % 42 % 1023,3 hPa 0,0 l/m² 9,7 km/h (2 Bft) N-NW 337 ° 1 min 594 W/m² 8,7 °C 21,2 °C 17,7 km/h (3 Bft)
30.05.2023 17:12 21,3 °C 22,2 °C 54 % 43 % 1023,4 hPa 0,0 l/m² 9,7 km/h (2 Bft) N 360 ° 1 min 587 W/m² 9,0 °C 21,2 °C 17,7 km/h (3 Bft)
30.05.2023 17:13 21,3 °C 22,1 °C 54 % 42 % 1023,3 hPa 0,0 l/m² 8,0 km/h (2 Bft) N 360 ° 1 min 585 W/m² 8,6 °C 21,6 °C 11,3 km/h (2 Bft)
30.05.2023 17:14 21,3 °C 22,1 °C 54 % 43 % 1023,3 hPa 0,0 l/m² 8,0 km/h (2 Bft) N-NW 337 ° 1 min 582 W/m² 8,9 °C 21,6 °C 12,9 km/h (3 Bft)
30.05.2023 17:15 21,3 °C 22,2 °C 54 % 44 % 1023,3 hPa 0,0 l/m² 8,0 km/h (2 Bft) NW 315 ° 1 min 587 W/m² 9,4 °C 21,7 °C 12,9 km/h (3 Bft)
30.05.2023 17:16 21,3 °C 22,3 °C 54 % 43 % 1023,3 hPa 0,0 l/m² 4,8 km/h (1 Bft) NW 315 ° 1 min 596 W/m² 9,1 °C 22,3 °C 14,5 km/h (3 Bft)
30.05.2023 17:17 21,3 °C 22,3 °C 54 % 43 % 1023,3 hPa 0,0 l/m² 9,7 km/h (2 Bft) N-NW 337 ° 1 min 603 W/m² 9,1 °C 21,3 °C 16,1 km/h (3 Bft)
30.05.2023 17:18 21,4 °C 22,3 °C 54 % 43 % 1023,2 hPa 0,0 l/m² 11,3 km/h (2 Bft) N-NW 337 ° 1 min 612 W/m² 9,1 °C 20,8 °C 17,7 km/h (3 Bft)
30.05.2023 17:19 21,3 °C 22,3 °C 54 % 43 % 1023,3 hPa 0,0 l/m² 8,0 km/h (2 Bft) NW 315 ° 1 min 613 W/m² 9,1 °C 21,8 °C 16,1 km/h (3 Bft)
30.05.2023 17:20 21,4 °C 22,3 °C 54 % 44 % 1023,2 hPa 0,0 l/m² 9,7 km/h (2 Bft) N-NW 337 ° 1 min 617 W/m² 9,5 °C 21,3 °C 22,5 km/h (4 Bft)
30.05.2023 17:21 21,3 °C 22,4 °C 54 % 43 % 1023,3 hPa 0,0 l/m² 14,5 km/h (3 Bft) NW 315 ° 1 min 626 W/m² 9,2 °C 20,3 °C 20,9 km/h (4 Bft)
30.05.2023 17:22 21,3 °C 22,4 °C 54 % 42 % 1023,3 hPa 0,0 l/m² 12,9 km/h (3 Bft) N-NW 337 ° 1 min 640 W/m² 8,9 °C 20,6 °C 17,7 km/h (3 Bft)
30.05.2023 17:23 21,4 °C 22,3 °C 54 % 43 % 1023,3 hPa 0,0 l/m² 11,3 km/h (2 Bft) NW 315 ° 1 min 640 W/m² 9,1 °C 20,8 °C 16,1 km/h (3 Bft)
30.05.2023 17:24 21,4 °C 22,3 °C 54 % 43 % 1023,3 hPa 0,0 l/m² 8,0 km/h (2 Bft) N-NW 337 ° 1 min 640 W/m² 9,1 °C 21,8 °C 12,9 km/h (3 Bft)
30.05.2023 17:25 21,4 °C 22,2 °C 54 % 43 % 1023,3 hPa 0,0 l/m² 11,3 km/h (2 Bft) N-NW 337 ° 1 min 629 W/m² 9,0 °C 20,7 °C 17,7 km/h (3 Bft)
30.05.2023 17:26 21,4 °C 22,3 °C 54 % 44 % 1023,2 hPa 0,0 l/m² 8,0 km/h (2 Bft) N-NW 337 ° 1 min 628 W/m² 9,5 °C 21,8 °C 12,9 km/h (3 Bft)
30.05.2023 17:27 21,4 °C 22,3 °C 54 % 43 % 1023,4 hPa 0,0 l/m² 8,0 km/h (2 Bft) N-NW 337 ° 1 min 624 W/m² 9,1 °C 21,8 °C 12,9 km/h (3 Bft)
30.05.2023 17:28 21,4 °C 22,4 °C 54 % 46 % 1023,3 hPa 0,0 l/m² 4,8 km/h (1 Bft) W 270 ° 1 min 606 W/m² 10,2 °C 22,4 °C 6,4 km/h (2 Bft)
30.05.2023 17:29 21,4 °C 22,6 °C 54 % 46 % 1023,3 hPa 0,0 l/m² 8,0 km/h (2 Bft) NW 315 ° 1 min 596 W/m² 10,4 °C 22,1 °C 14,5 km/h (3 Bft)
30.05.2023 17:30 21,4 °C 22,6 °C 54 % 43 % 1023,2 hPa 0,0 l/m² 12,9 km/h (3 Bft) N-NW 337 ° 1 min 587 W/m² 9,4 °C 20,8 °C 19,3 km/h (3 Bft)
30.05.2023 17:31 21,4 °C 22,7 °C 54 % 42 % 1023,4 hPa 0,0 l/m² 9,7 km/h (2 Bft) N 360 ° 1 min 580 W/m² 9,1 °C 21,7 °C 20,9 km/h (4 Bft)
30.05.2023 17:32 21,4 °C 22,6 °C 54 % 41 % 1023,3 hPa 0,0 l/m² 9,7 km/h (2 Bft) N 360 ° 1 min 527 W/m² 8,7 °C 21,6 °C 17,7 km/h (3 Bft)
30.05.2023 17:33 21,4 °C 22,5 °C 54 % 43 % 1023,3 hPa 0,0 l/m² 8,0 km/h (2 Bft) N-NW 337 ° 1 min 547 W/m² 9,3 °C 22,0 °C 16,1 km/h (3 Bft)
30.05.2023 17:34 21,4 °C 22,3 °C 54 % 42 % 1023,4 hPa 0,0 l/m² 12,9 km/h (3 Bft) N-NW 337 ° 1 min 536 W/m² 8,8 °C 20,5 °C 19,3 km/h (3 Bft)
30.05.2023 17:35 21,4 °C 22,2 °C 54 % 43 % 1023,4 hPa 0,0 l/m² 14,5 km/h (3 Bft) N-NW 337 ° 1 min 536 W/m² 9,0 °C 20,0 °C 17,7 km/h (3 Bft)
30.05.2023 17:36 21,4 °C 22,0 °C 54 % 42 % 1023,3 hPa 0,0 l/m² 12,9 km/h (3 Bft) N-NW 337 ° 1 min 536 W/m² 8,5 °C 20,1 °C 17,7 km/h (3 Bft)
30.05.2023 17:37 21,4 °C 21,8 °C 54 % 42 % 1023,3 hPa 0,0 l/m² 9,7 km/h (2 Bft) NW 315 ° 1 min 529 W/m² 8,3 °C 20,7 °C 14,5 km/h (3 Bft)
30.05.2023 17:38 21,4 °C 21,7 °C 54 % 42 % 1023,3 hPa 0,0 l/m² 8,0 km/h (2 Bft) N-NW 337 ° 1 min 540 W/m² 8,2 °C 21,1 °C 9,7 km/h (2 Bft)
30.05.2023 17:39 21,4 °C 21,7 °C 54 % 44 % 1023,3 hPa 0,0 l/m² 8,0 km/h (2 Bft) N-NW 337 ° 1 min 533 W/m² 8,9 °C 21,1 °C 14,5 km/h (3 Bft)
30.05.2023 17:40 21,4 °C 21,7 °C 54 % 44 % 1023,3 hPa 0,0 l/m² 3,2 km/h (1 Bft) NW 315 ° 1 min 522 W/m² 8,9 °C 21,7 °C 9,7 km/h (2 Bft)
30.05.2023 17:41 21,4 °C 21,8 °C 54 % 44 % 1023,2 hPa 0,0 l/m² 3,2 km/h (1 Bft) W-NW 292 ° 1 min 526 W/m² 9,0 °C 21,8 °C 8,0 km/h (2 Bft)
30.05.2023 17:42 21,4 °C 22,1 °C 54 % 44 % 1023,2 hPa 0,0 l/m² 8,0 km/h (2 Bft) W-NW 292 ° 1 min 527 W/m² 9,3 °C 21,6 °C 16,1 km/h (3 Bft)
30.05.2023 17:43 21,4 °C 22,2 °C 53 % 44 % 1023,3 hPa 0,0 l/m² 6,4 km/h (2 Bft) NW 315 ° 1 min 527 W/m² 9,4 °C 22,2 °C 11,3 km/h (2 Bft)
30.05.2023 17:44 21,4 °C 22,2 °C 53 % 44 % 1023,2 hPa 0,0 l/m² 3,2 km/h (1 Bft) N 360 ° 1 min 531 W/m² 9,4 °C 22,2 °C 8,0 km/h (2 Bft)
30.05.2023 17:45 21,4 °C 22,2 °C 53 % 44 % 1023,3 hPa 0,0 l/m² 8,0 km/h (2 Bft) NW 315 ° 1 min 526 W/m² 9,4 °C 21,7 °C 12,9 km/h (3 Bft)
30.05.2023 17:46 21,4 °C 22,3 °C 53 % 45 % 1023,2 hPa 0,0 l/m² 8,0 km/h (2 Bft) N-NW 337 ° 1 min 526 W/m² 9,8 °C 21,8 °C 19,3 km/h (3 Bft)
30.05.2023 17:47 21,4 °C 22,2 °C 53 % 44 % 1023,2 hPa 0,0 l/m² 11,3 km/h (2 Bft) N 360 ° 1 min 526 W/m² 9,4 °C 20,7 °C 19,3 km/h (3 Bft)
30.05.2023 17:48 21,4 °C 22,2 °C 53 % 44 % 1023,3 hPa 0,0 l/m² 8,0 km/h (2 Bft) N-NW 337 ° 1 min 512 W/m² 9,4 °C 21,7 °C 14,5 km/h (3 Bft)
30.05.2023 17:49 21,4 °C 22,2 °C 53 % 45 % 1023,3 hPa 0,0 l/m² 8,0 km/h (2 Bft) N-NW 337 ° 1 min 512 W/m² 9,7 °C 21,7 °C 12,9 km/h (3 Bft)
30.05.2023 17:50 21,4 °C 22,2 °C 53 % 44 % 1023,2 hPa 0,0 l/m² 8,0 km/h (2 Bft) NW 315 ° 1 min 512 W/m² 9,4 °C 21,7 °C 16,1 km/h (3 Bft)
30.05.2023 17:51 21,4 °C 22,2 °C 53 % 44 % 1023,2 hPa 0,0 l/m² 9,7 km/h (2 Bft) NW 315 ° 1 min 512 W/m² 9,4 °C 21,2 °C 17,7 km/h (3 Bft)
30.05.2023 17:52 21,4 °C 22,1 °C 53 % 44 % 1023,2 hPa 0,0 l/m² 11,3 km/h (2 Bft) NW 315 ° 1 min 512 W/m² 9,3 °C 20,6 °C 17,7 km/h (3 Bft)
30.05.2023 17:53 21,4 °C 22,1 °C 53 % 43 % 1023,3 hPa 0,0 l/m² 9,7 km/h (2 Bft) NW 315 ° 1 min 499 W/m² 8,9 °C 21,0 °C 17,7 km/h (3 Bft)
30.05.2023 17:54 21,4 °C 22,1 °C 53 % 45 % 1023,2 hPa 0,0 l/m² 11,3 km/h (2 Bft) N-NW 337 ° 1 min 496 W/m² 9,6 °C 20,6 °C 22,5 km/h (4 Bft)
30.05.2023 17:55 21,4 °C 22,1 °C 53 % 44 % 1023,2 hPa 0,0 l/m² 12,9 km/h (3 Bft) NW 315 ° 1 min 496 W/m² 9,3 °C 20,2 °C 20,9 km/h (4 Bft)
30.05.2023 17:56 21,4 °C 22,1 °C 53 % 44 % 1023,2 hPa 0,0 l/m² 11,3 km/h (2 Bft) NW 315 ° 1 min 475 W/m² 9,3 °C 20,6 °C 17,7 km/h (3 Bft)
30.05.2023 17:57 21,4 °C 22,1 °C 53 % 44 % 1023,2 hPa 0,0 l/m² 11,3 km/h (2 Bft) NW 315 ° 1 min 464 W/m² 9,3 °C 20,6 °C 16,1 km/h (3 Bft)
30.05.2023 17:58 21,4 °C 22,1 °C 52 % 44 % 1023,2 hPa 0,0 l/m² 6,4 km/h (2 Bft) NW 315 ° 1 min 476 W/m² 9,3 °C 22,1 °C 17,7 km/h (3 Bft)
30.05.2023 17:59 21,4 °C 22,1 °C 52 % 43 % 1023,2 hPa 0,0 l/m² 11,3 km/h (2 Bft) NW 315 ° 1 min 469 W/m² 8,9 °C 20,6 °C 16,1 km/h (3 Bft)
30.05.2023 18:00 21,4 °C 22,0 °C 52 % 45 % 1023,1 hPa 0,0 l/m² 4,8 km/h (1 Bft) NW 315 ° 1 min 468 W/m² 9,5 °C 22,0 °C 8,0 km/h (2 Bft)
30.05.2023 18:01 21,4 °C 22,1 °C 52 % 45 % 1023,1 hPa 0,0 l/m² 6,4 km/h (2 Bft) NW 315 ° 1 min 459 W/m² 9,6 °C 22,1 °C 12,9 km/h (3 Bft)
30.05.2023 18:02 21,3 °C 22,1 °C 52 % 45 % 1023,1 hPa 0,0 l/m² 8,0 km/h (2 Bft) N-NW 337 ° 1 min 454 W/m² 9,6 °C 21,6 °C 14,5 km/h (3 Bft)
30.05.2023 18:03 21,4 °C 22,1 °C 52 % 44 % 1023,1 hPa 0,0 l/m² 6,4 km/h (2 Bft) N-NW 337 ° 1 min 441 W/m² 9,3 °C 22,1 °C 11,3 km/h (2 Bft)
30.05.2023 18:04 21,4 °C 22,1 °C 52 % 46 % 1023,1 hPa 0,0 l/m² 8,0 km/h (2 Bft) N-NW 337 ° 1 min 446 W/m² 9,9 °C 21,6 °C 12,9 km/h (3 Bft)
30.05.2023 18:05 21,3 °C 22,1 °C 51 % 44 % 1023,0 hPa 0,0 l/m² 12,9 km/h (3 Bft) N-NW 337 ° 1 min 445 W/m² 9,3 °C 20,2 °C 16,1 km/h (3 Bft)
30.05.2023 18:06 21,3 °C 22,0 °C 51 % 45 % 1023,1 hPa 0,0 l/m² 6,4 km/h (2 Bft) N-NW 337 ° 1 min 443 W/m² 9,5 °C 22,0 °C 9,7 km/h (2 Bft)
30.05.2023 18:07 21,3 °C 22,0 °C 51 % 44 % 1023,0 hPa 0,0 l/m² 6,4 km/h (2 Bft) N-NW 337 ° 1 min 441 W/m² 9,2 °C 22,0 °C 11,3 km/h (2 Bft)
30.05.2023 18:08 21,3 °C 22,0 °C 51 % 45 % 1023,1 hPa 0,0 l/m² 1,6 km/h (1 Bft) N-NW 337 ° 1 min 441 W/m² 9,5 °C 22,0 °C 4,8 km/h (1 Bft)
30.05.2023 18:09 21,4 °C 22,1 °C 51 % 44 % 1023,1 hPa 0,0 l/m² 6,4 km/h (2 Bft) NO 45 ° 1 min 120 W/m² 9,3 °C 22,1 °C 9,7 km/h (2 Bft)
30.05.2023 18:10 21,3 °C 22,0 °C 51 % 44 % 1023,1 hPa 0,0 l/m² 4,8 km/h (1 Bft) N-NW 337 ° 1 min 135 W/m² 9,2 °C 22,0 °C 8,0 km/h (2 Bft)
30.05.2023 18:11 21,3 °C 21,9 °C 51 % 45 % 1023,1 hPa 0,0 l/m² 4,8 km/h (1 Bft) N-NW 337 ° 1 min 107 W/m² 9,4 °C 21,9 °C 9,7 km/h (2 Bft)
30.05.2023 18:12 21,3 °C 21,8 °C 51 % 43 % 1023,1 hPa 0,0 l/m² 6,4 km/h (2 Bft) N-NW 337 ° 1 min 111 W/m² 8,7 °C 21,8 °C 9,7 km/h (2 Bft)
30.05.2023 18:13 21,3 °C 21,7 °C 51 % 44 % 1023,1 hPa 0,0 l/m² 4,8 km/h (1 Bft) N-NW 337 ° 1 min 113 W/m² 8,9 °C 21,7 °C 8,0 km/h (2 Bft)
30.05.2023 18:14 21,3 °C 21,6 °C 51 % 44 % 1023,1 hPa 0,0 l/m² 4,8 km/h (1 Bft) N-NW 337 ° 1 min 144 W/m² 8,8 °C 21,6 °C 8,0 km/h (2 Bft)
30.05.2023 18:15 21,3 °C 21,5 °C 51 % 44 % 1023,1 hPa 0,0 l/m² 6,4 km/h (2 Bft) N 360 ° 1 min 165 W/m² 8,7 °C 21,5 °C 8,0 km/h (2 Bft)
30.05.2023 18:16 21,3 °C 21,4 °C 51 % 45 % 1023,1 hPa 0,0 l/m² 6,4 km/h (2 Bft) N 360 ° 1 min 148 W/m² 9,0 °C 21,4 °C 14,5 km/h (3 Bft)
30.05.2023 18:17 21,3 °C 21,4 °C 51 % 44 % 1023,1 hPa 0,0 l/m² 9,7 km/h (2 Bft) N-NO 22 ° 1 min 151 W/m² 8,6 °C 20,3 °C 16,1 km/h (3 Bft)
30.05.2023 18:18 21,3 °C 21,3 °C 51 % 45 % 1023,1 hPa 0,0 l/m² 4,8 km/h (1 Bft) N-NO 22 ° 1 min 144 W/m² 8,9 °C 21,3 °C 9,7 km/h (2 Bft)
30.05.2023 18:19 21,3 °C 21,3 °C 51 % 44 % 1023,1 hPa 0,0 l/m² 6,4 km/h (2 Bft) N-NW 337 ° 1 min 431 W/m² 8,5 °C 21,3 °C 12,9 km/h (3 Bft)
30.05.2023 18:20 21,3 °C 21,3 °C 51 % 44 % 1023,1 hPa 0,0 l/m² 6,4 km/h (2 Bft) N-NW 337 ° 1 min 431 W/m² 8,5 °C 21,3 °C 8,0 km/h (2 Bft)
30.05.2023 18:21 21,3 °C 21,3 °C 51 % 44 % 1023,1 hPa 0,0 l/m² 6,4 km/h (2 Bft) N-NW 337 ° 1 min 171 W/m² 8,5 °C 21,3 °C 8,0 km/h (2 Bft)
30.05.2023 18:22 21,3 °C 21,3 °C 50 % 45 % 1023,1 hPa 0,0 l/m² 4,8 km/h (1 Bft) NW 315 ° 1 min 239 W/m² 8,9 °C 21,3 °C 6,4 km/h (2 Bft)
30.05.2023 18:23 21,3 °C 21,3 °C 50 % 46 % 1023,1 hPa 0,0 l/m² 8,0 km/h (2 Bft) NW 315 ° 1 min 178 W/m² 9,2 °C 20,7 °C 16,1 km/h (3 Bft)
30.05.2023 18:24 21,3 °C 21,4 °C 51 % 45 % 1023,1 hPa 0,0 l/m² 12,9 km/h (3 Bft) N-NW 337 ° 1 min 178 W/m² 9,0 °C 19,4 °C 16,1 km/h (3 Bft)
30.05.2023 18:25 21,3 °C 21,4 °C 51 % 45 % 1023,0 hPa 0,0 l/m² 9,7 km/h (2 Bft) N-NW 337 ° 1 min 311 W/m² 9,0 °C 20,3 °C 17,7 km/h (3 Bft)
30.05.2023 18:26 21,3 °C 21,5 °C 51 % 44 % 1023,0 hPa 0,0 l/m² 8,0 km/h (2 Bft) N-NW 337 ° 1 min 311 W/m² 8,7 °C 20,9 °C 12,9 km/h (3 Bft)
30.05.2023 18:27 21,3 °C 21,6 °C 51 % 45 % 1023,0 hPa 0,0 l/m² 4,8 km/h (1 Bft) NW 315 ° 1 min 443 W/m² 9,2 °C 21,6 °C 11,3 km/h (2 Bft)
30.05.2023 18:28 21,3 °C 21,6 °C 51 % 44 % 1023,1 hPa 0,0 l/m² 6,4 km/h (2 Bft) N-NW 337 ° 1 min 434 W/m² 8,8 °C 21,6 °C 9,7 km/h (2 Bft)
30.05.2023 18:29 21,3 °C 21,6 °C 51 % 46 % 1023,0 hPa 0,0 l/m² 4,8 km/h (1 Bft) NW 315 ° 1 min 424 W/m² 9,5 °C 21,6 °C 6,4 km/h (2 Bft)
30.05.2023 18:30 21,3 °C 21,7 °C 51 % 45 % 1023,1 hPa 0,0 l/m² 4,8 km/h (1 Bft) NW 315 ° 1 min 411 W/m² 9,2 °C 21,7 °C 8,0 km/h (2 Bft)
30.05.2023 18:31 21,3 °C 21,8 °C 51 % 46 % 1023,0 hPa 0,0 l/m² 8,0 km/h (2 Bft) N 360 ° 1 min 408 W/m² 9,7 °C 21,2 °C 12,9 km/h (3 Bft)
30.05.2023 18:32 21,3 °C 21,8 °C 51 % 46 % 1023,0 hPa 0,0 l/m² 6,4 km/h (2 Bft) N-NW 337 ° 1 min 408 W/m² 9,7 °C 21,8 °C 19,3 km/h (3 Bft)
30.05.2023 18:33 21,3 °C 21,9 °C 51 % 45 % 1023,0 hPa 0,0 l/m² 9,7 km/h (2 Bft) N-NW 337 ° 1 min 149 W/m² 9,4 °C 20,8 °C 17,7 km/h (3 Bft)
30.05.2023 18:34 21,3 °C 21,9 °C 51 % 44 % 1023,0 hPa 0,0 l/m² 9,7 km/h (2 Bft) N-NW 337 ° 1 min 155 W/m² 9,1 °C 20,8 °C 14,5 km/h (3 Bft)
30.05.2023 18:35 21,3 °C 21,8 °C 51 % 44 % 1023,0 hPa 0,0 l/m² 11,3 km/h (2 Bft) N-NW 337 ° 1 min 163 W/m² 9,0 °C 20,3 °C 16,1 km/h (3 Bft)
30.05.2023 18:36 21,3 °C 21,7 °C 51 % 44 % 1023,1 hPa 0,0 l/m² 11,3 km/h (2 Bft) N-NW 337 ° 1 min 163 W/m² 8,9 °C 20,2 °C 16,1 km/h (3 Bft)
30.05.2023 18:37 21,3 °C 21,7 °C 51 % 44 % 1023,0 hPa 0,0 l/m² 12,9 km/h (3 Bft) N-NW 337 ° 1 min 262 W/m² 8,9 °C 19,8 °C 14,5 km/h (3 Bft)
30.05.2023 18:38 21,3 °C 21,6 °C 51 % 44 % 1023,0 hPa 0,0 l/m² 9,7 km/h (2 Bft) N-NW 337 ° 1 min 174 W/m² 8,8 °C 20,5 °C 12,9 km/h (3 Bft)
30.05.2023 18:39 21,3 °C 21,6 °C 51 % 45 % 1023,0 hPa 0,0 l/m² 11,3 km/h (2 Bft) N-NW 337 ° 1 min 204 W/m² 9,2 °C 20,1 °C 14,5 km/h (3 Bft)
30.05.2023 18:40 21,3 °C 21,4 °C 51 % 45 % 1023,1 hPa 0,0 l/m² 11,3 km/h (2 Bft) N-NW 337 ° 1 min 169 W/m² 9,0 °C 19,8 °C 16,1 km/h (3 Bft)
30.05.2023 18:41 21,3 °C 21,4 °C 51 % 45 % 1023,1 hPa 0,0 l/m² 4,8 km/h (1 Bft) N-NW 337 ° 1 min 169 W/m² 9,0 °C 21,4 °C 9,7 km/h (2 Bft)
30.05.2023 18:42 21,3 °C 21,4 °C 51 % 46 % 1023,0 hPa 0,0 l/m² 4,8 km/h (1 Bft) N-NW 337 ° 1 min 169 W/m² 9,3 °C 21,4 °C 9,7 km/h (2 Bft)
30.05.2023 18:43 21,2 °C 21,4 °C 51 % 46 % 1023,1 hPa 0,0 l/m² 3,2 km/h (1 Bft) NW 315 ° 1 min 172 W/m² 9,3 °C 21,4 °C 4,8 km/h (1 Bft)
30.05.2023 18:44 21,2 °C 21,4 °C 51 % 46 % 1023,0 hPa 0,0 l/m² 8,0 km/h (2 Bft) N-NW 337 ° 1 min 294 W/m² 9,3 °C 20,8 °C 12,9 km/h (3 Bft)
30.05.2023 18:45 21,2 °C 21,5 °C 51 % 46 % 1023,0 hPa 0,0 l/m² 4,8 km/h (1 Bft) N-NW 337 ° 1 min 211 W/m² 9,4 °C 21,5 °C 6,4 km/h (2 Bft)
30.05.2023 18:46 21,3 °C 21,6 °C 51 % 47 % 1023,1 hPa 0,0 l/m² 6,4 km/h (2 Bft) N-NW 337 ° 1 min 204 W/m² 9,8 °C 21,6 °C 12,9 km/h (3 Bft)
30.05.2023 18:47 21,2 °C 21,6 °C 51 % 47 % 1023,0 hPa 0,0 l/m² 4,8 km/h (1 Bft) N-NW 337 ° 1 min 165 W/m² 9,8 °C 21,6 °C 11,3 km/h (2 Bft)
30.05.2023 18:48 21,2 °C 21,6 °C 51 % 46 % 1023,0 hPa 0,0 l/m² 4,8 km/h (1 Bft) N-NW 337 ° 1 min 141 W/m² 9,5 °C 21,6 °C 8,0 km/h (2 Bft)
30.05.2023 18:49 21,3 °C 21,7 °C 51 % 47 % 1023,1 hPa 0,0 l/m² 9,7 km/h (2 Bft) N-NW 337 ° 1 min 134 W/m² 9,9 °C 20,6 °C 19,3 km/h (3 Bft)
30.05.2023 18:50 21,2 °C 21,6 °C 51 % 45 % 1023,0 hPa 0,0 l/m² 14,5 km/h (3 Bft) N-NW 337 ° 1 min 134 W/m² 9,2 °C 19,3 °C 16,1 km/h (3 Bft)
30.05.2023 18:51 21,2 °C 21,6 °C 51 % 45 % 1023,1 hPa 0,0 l/m² 11,3 km/h (2 Bft) N-NW 337 ° 1 min 135 W/m² 9,2 °C 20,1 °C 14,5 km/h (3 Bft)
30.05.2023 18:52 21,2 °C 21,5 °C 51 % 45 % 1023,1 hPa 0,0 l/m² 8,0 km/h (2 Bft) N-NW 337 ° 1 min 137 W/m² 9,1 °C 20,9 °C 12,9 km/h (3 Bft)
30.05.2023 18:53 21,2 °C 21,4 °C 51 % 45 % 1023,0 hPa 0,0 l/m² 9,7 km/h (2 Bft) N 360 ° 1 min 137 W/m² 9,0 °C 20,3 °C 14,5 km/h (3 Bft)
30.05.2023 18:54 21,2 °C 21,4 °C 51 % 46 % 1023,0 hPa 0,0 l/m² 9,7 km/h (2 Bft) N 360 ° 1 min 141 W/m² 9,3 °C 20,3 °C 16,1 km/h (3 Bft)
30.05.2023 18:55 21,2 °C 21,4 °C 51 % 45 % 1023,0 hPa 0,0 l/m² 9,7 km/h (2 Bft) N-NW 337 ° 1 min 135 W/m² 9,0 °C 20,3 °C 17,7 km/h (3 Bft)
30.05.2023 18:56 21,2 °C 21,4 °C 51 % 45 % 1023,1 hPa 0,0 l/m² 14,5 km/h (3 Bft) N 360 ° 1 min 132 W/m² 9,0 °C 19,1 °C 17,7 km/h (3 Bft)
30.05.2023 18:57 21,2 °C 21,4 °C 51 % 46 % 1023,0 hPa 0,0 l/m² 11,3 km/h (2 Bft) N-NO 22 ° 1 min 137 W/m² 9,3 °C 19,8 °C 17,7 km/h (3 Bft)
30.05.2023 18:58 21,2 °C 21,4 °C 51 % 46 % 1023,1 hPa 0,0 l/m² 8,0 km/h (2 Bft) N-NW 337 ° 1 min 134 W/m² 9,3 °C 20,8 °C 14,5 km/h (3 Bft)
30.05.2023 18:59 21,2 °C 21,4 °C 51 % 45 % 1023,1 hPa 0,0 l/m² 12,9 km/h (3 Bft) N 360 ° 1 min 134 W/m² 9,0 °C 19,4 °C 16,1 km/h (3 Bft)
30.05.2023 19:00 21,2 °C 21,3 °C 51 % 45 % 1023,1 hPa 0,0 l/m² 11,3 km/h (2 Bft) N-NW 337 ° 1 min 125 W/m² 8,9 °C 19,7 °C 14,5 km/h (3 Bft)
30.05.2023 19:01 21,2 °C 21,3 °C 51 % 45 % 1023,1 hPa 0,0 l/m² 6,4 km/h (2 Bft) N-NW 337 ° 1 min 121 W/m² 8,9 °C 21,3 °C 9,7 km/h (2 Bft)
30.05.2023 19:02 21,2 °C 21,2 °C 51 % 46 % 1023,1 hPa 0,0 l/m² 6,4 km/h (2 Bft) N 360 ° 1 min 121 W/m² 9,1 °C 21,2 °C 12,9 km/h (3 Bft)
30.05.2023 19:03 21,2 °C 21,2 °C 51 % 46 % 1023,1 hPa 0,0 l/m² 8,0 km/h (2 Bft) N-NW 337 ° 1 min 121 W/m² 9,1 °C 20,6 °C 12,9 km/h (3 Bft)
30.05.2023 19:04 21,2 °C 21,2 °C 52 % 47 % 1023,0 hPa 0,0 l/m² 8,0 km/h (2 Bft) N-NW 337 ° 1 min 120 W/m² 9,4 °C 20,6 °C 9,7 km/h (2 Bft)
30.05.2023 19:05 21,2 °C 21,1 °C 52 % 47 % 1023,1 hPa 0,0 l/m² 8,0 km/h (2 Bft) N-NW 337 ° 1 min 120 W/m² 9,3 °C 20,5 °C 14,5 km/h (3 Bft)
30.05.2023 19:06 21,2 °C 21,2 °C 52 % 46 % 1023,1 hPa 0,0 l/m² 8,0 km/h (2 Bft) N 360 ° 1 min 118 W/m² 9,1 °C 20,6 °C 14,5 km/h (3 Bft)
30.05.2023 19:07 21,2 °C 21,1 °C 52 % 45 % 1023,1 hPa 0,0 l/m² 11,3 km/h (2 Bft) N-NW 337 ° 1 min 114 W/m² 8,7 °C 19,5 °C 14,5 km/h (3 Bft)
30.05.2023 19:08 21,2 °C 21,1 °C 52 % 45 % 1023,1 hPa 0,0 l/m² 11,3 km/h (2 Bft) N-NW 337 ° 1 min 113 W/m² 8,7 °C 19,5 °C 16,1 km/h (3 Bft)
30.05.2023 19:09 21,2 °C 21,1 °C 52 % 45 % 1023,2 hPa 0,0 l/m² 9,7 km/h (2 Bft) N-NW 337 ° 1 min 111 W/m² 8,7 °C 19,9 °C 14,5 km/h (3 Bft)
30.05.2023 19:10 21,2 °C 21,1 °C 52 % 45 % 1023,2 hPa 0,0 l/m² 11,3 km/h (2 Bft) N 360 ° 1 min 109 W/m² 8,7 °C 19,5 °C 14,5 km/h (3 Bft)
30.05.2023 19:11 21,2 °C 21,1 °C 52 % 46 % 1023,2 hPa 0,0 l/m² 6,4 km/h (2 Bft) N 360 ° 1 min 105 W/m² 9,0 °C 21,1 °C 8,0 km/h (2 Bft)
30.05.2023 19:12 21,2 °C 21,1 °C 52 % 45 % 1023,2 hPa 0,0 l/m² 6,4 km/h (2 Bft) N 360 ° 1 min 104 W/m² 8,7 °C 21,1 °C 11,3 km/h (2 Bft)
30.05.2023 19:13 21,2 °C 21,1 °C 53 % 46 % 1023,2 hPa 0,0 l/m² 3,2 km/h (1 Bft) N-NO 22 ° 1 min 98 W/m² 9,0 °C 21,1 °C 6,4 km/h (2 Bft)
30.05.2023 19:14 21,3 °C 21,1 °C 53 % 46 % 1023,2 hPa 0,0 l/m² 3,2 km/h (1 Bft) NO 45 ° 1 min 95 W/m² 9,0 °C 21,1 °C 6,4 km/h (2 Bft)
30.05.2023 19:15 21,3 °C 21,1 °C 53 % 46 % 1023,1 hPa 0,0 l/m² 3,2 km/h (1 Bft) N-NO 22 ° 1 min 93 W/m² 9,0 °C 21,1 °C 6,4 km/h (2 Bft)
30.05.2023 19:16 21,3 °C 21,1 °C 53 % 47 % 1023,2 hPa 0,0 l/m² 3,2 km/h (1 Bft) N 360 ° 1 min 90 W/m² 9,3 °C 21,1 °C 6,4 km/h (2 Bft)
30.05.2023 19:17 21,3 °C 21,1 °C 53 % 47 % 1023,2 hPa 0,0 l/m² 3,2 km/h (1 Bft) N-NO 22 ° 1 min 86 W/m² 9,3 °C 21,1 °C 8,0 km/h (2 Bft)
30.05.2023 19:18 21,3 °C 21,1 °C 53 % 47 % 1023,2 hPa 0,0 l/m² 4,8 km/h (1 Bft) N-NO 22 ° 1 min 84 W/m² 9,3 °C 21,1 °C 6,4 km/h (2 Bft)
30.05.2023 19:19 21,3 °C 21,1 °C 53 % 48 % 1023,2 hPa 0,0 l/m² 3,2 km/h (1 Bft) NO 45 ° 1 min 81 W/m² 9,7 °C 21,1 °C 4,8 km/h (1 Bft)
30.05.2023 19:20 21,3 °C 21,0 °C 53 % 48 % 1023,2 hPa 0,0 l/m² 4,8 km/h (1 Bft) NO 45 ° 1 min 79 W/m² 9,6 °C 21,0 °C 8,0 km/h (2 Bft)
30.05.2023 19:21 21,3 °C 20,9 °C 53 % 47 % 1023,2 hPa 0,0 l/m² 3,2 km/h (1 Bft) N-NO 22 ° 1 min 77 W/m² 9,2 °C 20,9 °C 6,4 km/h (2 Bft)
30.05.2023 19:22 21,3 °C 20,9 °C 53 % 47 % 1023,2 hPa 0,0 l/m² 6,4 km/h (2 Bft) N-NO 22 ° 1 min 76 W/m² 9,2 °C 20,9 °C 9,7 km/h (2 Bft)
30.05.2023 19:23 21,3 °C 20,9 °C 53 % 47 % 1023,2 hPa 0,0 l/m² 8,0 km/h (2 Bft) N-NO 22 ° 1 min 74 W/m² 9,2 °C 20,3 °C 11,3 km/h (2 Bft)
30.05.2023 19:24 21,3 °C 20,8 °C 53 % 48 % 1023,2 hPa 0,0 l/m² 4,8 km/h (1 Bft) N-NO 22 ° 1 min 74 W/m² 9,4 °C 20,8 °C 6,4 km/h (2 Bft)
30.05.2023 19:25 21,3 °C 20,8 °C 53 % 47 % 1023,2 hPa 0,0 l/m² 4,8 km/h (1 Bft) NO 45 ° 1 min 72 W/m² 9,1 °C 20,8 °C 8,0 km/h (2 Bft)
30.05.2023 19:26 21,3 °C 20,8 °C 53 % 48 % 1023,2 hPa 0,0 l/m² 3,2 km/h (1 Bft) NO 45 ° 1 min 70 W/m² 9,4 °C 20,8 °C 6,4 km/h (2 Bft)
30.05.2023 19:27 21,3 °C 20,7 °C 53 % 48 % 1023,3 hPa 0,0 l/m² 4,8 km/h (1 Bft) NO 45 ° 1 min 67 W/m² 9,3 °C 20,7 °C 6,4 km/h (2 Bft)
30.05.2023 19:28 21,3 °C 20,7 °C 53 % 48 % 1023,2 hPa 0,0 l/m² 4,8 km/h (1 Bft) NO 45 ° 1 min 63 W/m² 9,3 °C 20,7 °C 4,8 km/h (1 Bft)
30.05.2023 19:29 21,3 °C 20,7 °C 53 % 48 % 1023,2 hPa 0,0 l/m² 3,2 km/h (1 Bft) N-NO 22 ° 1 min 62 W/m² 9,3 °C 20,7 °C 6,4 km/h (2 Bft)
30.05.2023 19:30 21,3 °C 20,6 °C 53 % 48 % 1023,2 hPa 0,0 l/m² 1,6 km/h (1 Bft) N-NO 22 ° 1 min 60 W/m² 9,2 °C 20,6 °C 4,8 km/h (1 Bft)
30.05.2023 19:31 21,3 °C 20,6 °C 53 % 48 % 1023,2 hPa 0,0 l/m² 3,2 km/h (1 Bft) N-NO 22 ° 1 min 58 W/m² 9,2 °C 20,6 °C 6,4 km/h (2 Bft)
30.05.2023 19:32 21,3 °C 20,6 °C 53 % 47 % 1023,2 hPa 0,0 l/m² 4,8 km/h (1 Bft) NO 45 ° 1 min 56 W/m² 8,9 °C 20,6 °C 8,0 km/h (2 Bft)
30.05.2023 19:33 21,3 °C 20,6 °C 53 % 48 % 1023,2 hPa 0,0 l/m² 3,2 km/h (1 Bft) N-NO 22 ° 1 min 53 W/m² 9,2 °C 20,6 °C 6,4 km/h (2 Bft)
30.05.2023 19:34 21,3 °C 20,5 °C 53 % 48 % 1023,2 hPa 0,0 l/m² 6,4 km/h (2 Bft) N-NO 22 ° 0 min 49 W/m² 9,1 °C 20,5 °C 9,7 km/h (2 Bft)
30.05.2023 19:35 21,3 °C 20,5 °C 53 % 48 % 1023,2 hPa 0,0 l/m² 3,2 km/h (1 Bft) N-NO 22 ° 0 min 44 W/m² 9,1 °C 20,5 °C 4,8 km/h (1 Bft)
30.05.2023 19:36 21,3 °C 20,5 °C 53 % 48 % 1023,2 hPa 0,0 l/m² 3,2 km/h (1 Bft) N-NO 22 ° 0 min 40 W/m² 9,1 °C 20,5 °C 6,4 km/h (2 Bft)
30.05.2023 19:37 21,3 °C 20,4 °C 53 % 48 % 1023,2 hPa 0,0 l/m² 4,8 km/h (1 Bft) N-NO 22 ° 0 min 40 W/m² 9,0 °C 20,4 °C 8,0 km/h (2 Bft)
30.05.2023 19:38 21,3 °C 20,4 °C 53 % 48 % 1023,2 hPa 0,0 l/m² 3,2 km/h (1 Bft) N-NO 22 ° 0 min 40 W/m² 9,0 °C 20,4 °C 8,0 km/h (2 Bft)
30.05.2023 19:39 21,3 °C 20,3 °C 53 % 49 % 1023,2 hPa 0,0 l/m² 4,8 km/h (1 Bft) N-NW 337 ° 0 min 40 W/m² 9,2 °C 20,3 °C 6,4 km/h (2 Bft)
30.05.2023 19:40 21,3 °C 20,3 °C 53 % 49 % 1023,2 hPa 0,0 l/m² 3,2 km/h (1 Bft) N-NO 22 ° 0 min 40 W/m² 9,2 °C 20,3 °C 6,4 km/h (2 Bft)
30.05.2023 19:41 21,3 °C 20,3 °C 53 % 49 % 1023,3 hPa 0,0 l/m² 1,6 km/h (1 Bft) N 360 ° 0 min 40 W/m² 9,2 °C 20,3 °C 3,2 km/h (1 Bft)
30.05.2023 19:42 21,3 °C 20,2 °C 53 % 49 % 1023,3 hPa 0,0 l/m² 4,8 km/h (1 Bft) N-NO 22 ° 0 min 40 W/m² 9,1 °C 20,2 °C 6,4 km/h (2 Bft)
30.05.2023 19:43 21,3 °C 20,2 °C 53 % 49 % 1023,3 hPa 0,0 l/m² 4,8 km/h (1 Bft) N-NO 22 ° 0 min 40 W/m² 9,1 °C 20,2 °C 6,4 km/h (2 Bft)
30.05.2023 19:44 21,3 °C 20,1 °C 53 % 49 % 1023,3 hPa 0,0 l/m² 3,2 km/h (1 Bft) NO 45 ° 0 min 39 W/m² 9,0 °C 20,1 °C 4,8 km/h (1 Bft)
30.05.2023 19:45 21,3 °C 20,1 °C 53 % 50 % 1023,2 hPa 0,0 l/m² 3,2 km/h (1 Bft) N-NO 22 ° 0 min 39 W/m² 9,3 °C 20,1 °C 6,4 km/h (2 Bft)
30.05.2023 19:46 21,3 °C 20,1 °C 53 % 50 % 1023,3 hPa 0,0 l/m² 3,2 km/h (1 Bft) NO 45 ° 0 min 37 W/m² 9,3 °C 20,1 °C 8,0 km/h (2 Bft)
30.05.2023 19:47 21,3 °C 19,9 °C 53 % 50 % 1023,3 hPa 0,0 l/m² 3,2 km/h (1 Bft) N-NO 22 ° 0 min 37 W/m² 9,2 °C 19,9 °C 6,4 km/h (2 Bft)
30.05.2023 19:48 21,3 °C 19,9 °C 53 % 50 % 1023,3 hPa 0,0 l/m² 1,6 km/h (1 Bft) N-NO 22 ° 0 min 35 W/m² 9,2 °C 19,9 °C 3,2 km/h (1 Bft)
30.05.2023 19:49 21,3 °C 19,9 °C 53 % 50 % 1023,3 hPa 0,0 l/m² 1,6 km/h (1 Bft) N-NO 22 ° 0 min 35 W/m² 9,2 °C 19,9 °C 3,2 km/h (1 Bft)
30.05.2023 19:50 21,3 °C 19,9 °C 53 % 50 % 1023,3 hPa 0,0 l/m² 3,2 km/h (1 Bft) N-NO 22 ° 0 min 32 W/m² 9,2 °C 19,9 °C 6,4 km/h (2 Bft)
30.05.2023 19:51 21,3 °C 19,8 °C 53 % 51 % 1023,3 hPa 0,0 l/m² 1,6 km/h (1 Bft) N-NO 22 ° 0 min 30 W/m² 9,4 °C 19,8 °C 3,2 km/h (1 Bft)
30.05.2023 19:52 21,3 °C 19,8 °C 53 % 51 % 1023,3 hPa 0,0 l/m² 3,2 km/h (1 Bft) N-NO 22 ° 0 min 30 W/m² 9,4 °C 19,8 °C 6,4 km/h (2 Bft)
30.05.2023 19:53 21,3 °C 19,7 °C 53 % 51 % 1023,3 hPa 0,0 l/m² 3,2 km/h (1 Bft) N 360 ° 0 min 30 W/m² 9,3 °C 19,7 °C 4,8 km/h (1 Bft)
30.05.2023 19:54 21,3 °C 19,7 °C 53 % 51 % 1023,3 hPa 0,0 l/m² 3,2 km/h (1 Bft) N 360 ° 0 min 30 W/m² 9,3 °C 19,7 °C 6,4 km/h (2 Bft)
30.05.2023 19:55 21,3 °C 19,6 °C 53 % 52 % 1023,2 hPa 0,0 l/m² 3,2 km/h (1 Bft) N 360 ° 0 min 28 W/m² 9,5 °C 19,6 °C 6,4 km/h (2 Bft)
30.05.2023 19:56 21,3 °C 19,6 °C 53 % 52 % 1023,3 hPa 0,0 l/m² 3,2 km/h (1 Bft) N 360 ° 0 min 28 W/m² 9,5 °C 19,6 °C 4,8 km/h (1 Bft)
30.05.2023 19:57 21,3 °C 19,5 °C 53 % 52 % 1023,3 hPa 0,0 l/m² 3,2 km/h (1 Bft) N 360 ° 0 min 28 W/m² 9,4 °C 19,5 °C 4,8 km/h (1 Bft)
30.05.2023 19:58 21,3 °C 19,5 °C 53 % 52 % 1023,3 hPa 0,0 l/m² 3,2 km/h (1 Bft) N-NO 22 ° 0 min 28 W/m² 9,4 °C 19,5 °C 6,4 km/h (2 Bft)
30.05.2023 19:59 21,3 °C 19,4 °C 53 % 53 % 1023,3 hPa 0,0 l/m² 3,2 km/h (1 Bft) N-NO 22 ° 0 min 28 W/m² 9,6 °C 19,4 °C 8,0 km/h (2 Bft)
30.05.2023 20:00 21,3 °C 19,4 °C 53 % 53 % 1023,3 hPa 0,0 l/m² 3,2 km/h (1 Bft) N 360 ° 0 min 28 W/m² 9,6 °C 19,4 °C 4,8 km/h (1 Bft)
30.05.2023 20:01 21,3 °C 19,3 °C 54 % 53 % 1023,3 hPa 0,0 l/m² 3,2 km/h (1 Bft) N 360 ° 0 min 28 W/m² 9,5 °C 19,3 °C 3,2 km/h (1 Bft)
30.05.2023 20:02 21,3 °C 19,3 °C 53 % 53 % 1023,3 hPa 0,0 l/m² 3,2 km/h (1 Bft) N-NO 22 ° 0 min 26 W/m² 9,5 °C 19,3 °C 6,4 km/h (2 Bft)
30.05.2023 20:03 21,3 °C 19,3 °C 54 % 53 % 1023,3 hPa 0,0 l/m² 1,6 km/h (1 Bft) NO 45 ° 0 min 26 W/m² 9,5 °C 19,3 °C 3,2 km/h (1 Bft)
30.05.2023 20:04 21,3 °C 19,3 °C 54 % 54 % 1023,3 hPa 0,0 l/m² 3,2 km/h (1 Bft) N 360 ° 0 min 26 W/m² 9,8 °C 19,3 °C 6,4 km/h (2 Bft)
30.05.2023 20:05 21,3 °C 19,2 °C 54 % 54 % 1023,4 hPa 0,0 l/m² 3,2 km/h (1 Bft) N 360 ° 0 min 26 W/m² 9,7 °C 19,2 °C 4,8 km/h (1 Bft)
30.05.2023 20:06 21,3 °C 19,1 °C 54 % 54 % 1023,4 hPa 0,0 l/m² 3,2 km/h (1 Bft) N-NO 22 ° 0 min 26 W/m² 9,6 °C 19,1 °C 8,0 km/h (2 Bft)
30.05.2023 20:07 21,3 °C 19,1 °C 54 % 53 % 1023,3 hPa 0,0 l/m² 4,8 km/h (1 Bft) N 360 ° 0 min 26 W/m² 9,3 °C 19,1 °C 6,4 km/h (2 Bft)
30.05.2023 20:08 21,3 °C 19,1 °C 54 % 53 % 1023,5 hPa 0,0 l/m² 4,8 km/h (1 Bft) N 360 ° 0 min 26 W/m² 9,3 °C 19,1 °C 8,0 km/h (2 Bft)
30.05.2023 20:09 21,3 °C 19,1 °C 54 % 53 % 1023,4 hPa 0,0 l/m² 3,2 km/h (1 Bft) NO 45 ° 0 min 26 W/m² 9,3 °C 19,1 °C 6,4 km/h (2 Bft)
30.05.2023 20:10 21,3 °C 19,0 °C 54 % 54 % 1023,4 hPa 0,0 l/m² 3,2 km/h (1 Bft) NO 45 ° 0 min 26 W/m² 9,5 °C 19,0 °C 4,8 km/h (1 Bft)
30.05.2023 20:11 21,3 °C 18,9 °C 54 % 54 % 1023,4 hPa 0,0 l/m² 3,2 km/h (1 Bft) NO 45 ° 0 min 26 W/m² 9,4 °C 18,9 °C 4,8 km/h (1 Bft)
30.05.2023 20:12 21,3 °C 19,0 °C 54 % 54 % 1023,5 hPa 0,0 l/m² 3,2 km/h (1 Bft) NO 45 ° 0 min 26 W/m² 9,5 °C 19,0 °C 4,8 km/h (1 Bft)
30.05.2023 20:13 21,3 °C 18,9 °C 54 % 54 % 1023,4 hPa 0,0 l/m² 3,2 km/h (1 Bft) N-NO 22 ° 0 min 26 W/m² 9,4 °C 18,9 °C 4,8 km/h (1 Bft)
30.05.2023 20:14 21,3 °C 18,9 °C 54 % 54 % 1023,5 hPa 0,0 l/m² 3,2 km/h (1 Bft) N-NO 22 ° 0 min 26 W/m² 9,4 °C 18,9 °C 6,4 km/h (2 Bft)
30.05.2023 20:15 21,3 °C 18,9 °C 54 % 55 % 1023,4 hPa 0,0 l/m² 3,2 km/h (1 Bft) N-NO 22 ° 0 min 25 W/m² 9,7 °C 18,9 °C 4,8 km/h (1 Bft)
30.05.2023 20:16 21,3 °C 18,9 °C 54 % 55 % 1023,5 hPa 0,0 l/m² 3,2 km/h (1 Bft) NO 45 ° 0 min 25 W/m² 9,7 °C 18,9 °C 6,4 km/h (2 Bft)
30.05.2023 20:17 21,3 °C 18,9 °C 54 % 54 % 1023,4 hPa 0,0 l/m² 4,8 km/h (1 Bft) N-NO 22 ° 0 min 25 W/m² 9,4 °C 18,9 °C 8,0 km/h (2 Bft)
30.05.2023 20:18 21,3 °C 18,9 °C 54 % 54 % 1023,4 hPa 0,0 l/m² 1,6 km/h (1 Bft) N 360 ° 0 min 25 W/m² 9,4 °C 18,9 °C 4,8 km/h (1 Bft)
30.05.2023 20:19 21,3 °C 18,9 °C 54 % 54 % 1023,4 hPa 0,0 l/m² 1,6 km/h (1 Bft) N 360 ° 0 min 25 W/m² 9,4 °C 18,9 °C 3,2 km/h (1 Bft)
30.05.2023 20:20 21,3 °C 18,9 °C 54 % 55 % 1023,4 hPa 0,0 l/m² 1,6 km/h (1 Bft) N 360 ° 0 min 23 W/m² 9,7 °C 18,9 °C 3,2 km/h (1 Bft)
30.05.2023 20:21 21,3 °C 18,9 °C 54 % 55 % 1023,5 hPa 0,0 l/m² 1,6 km/h (1 Bft) N 360 ° 0 min 23 W/m² 9,7 °C 18,9 °C 4,8 km/h (1 Bft)
30.05.2023 20:22 21,3 °C 18,9 °C 54 % 55 % 1023,4 hPa 0,0 l/m² 1,6 km/h (1 Bft) N 360 ° 0 min 23 W/m² 9,7 °C 18,9 °C 4,8 km/h (1 Bft)
30.05.2023 20:23 21,3 °C 18,9 °C 54 % 54 % 1023,4 hPa 0,0 l/m² 3,2 km/h (1 Bft) N 360 ° 0 min 21 W/m² 9,4 °C 18,9 °C 4,8 km/h (1 Bft)
30.05.2023 20:24 21,3 °C 18,9 °C 54 % 54 % 1023,4 hPa 0,0 l/m² 3,2 km/h (1 Bft) N-NO 22 ° 0 min 21 W/m² 9,4 °C 18,9 °C 4,8 km/h (1 Bft)
30.05.2023 20:25 21,3 °C 18,9 °C 54 % 54 % 1023,3 hPa 0,0 l/m² 1,6 km/h (1 Bft) N-NO 22 ° 0 min 21 W/m² 9,4 °C 18,9 °C 3,2 km/h (1 Bft)
30.05.2023 20:26 21,3 °C 18,8 °C 54 % 55 % 1023,4 hPa 0,0 l/m² 3,2 km/h (1 Bft) N 360 ° 0 min 21 W/m² 9,6 °C 18,8 °C 4,8 km/h (1 Bft)
30.05.2023 20:27 21,3 °C 18,8 °C 54 % 55 % 1023,4 hPa 0,0 l/m² 3,2 km/h (1 Bft) N-NO 22 ° 0 min 21 W/m² 9,6 °C 18,8 °C 6,4 km/h (2 Bft)
30.05.2023 20:28 21,3 °C 18,8 °C 54 % 55 % 1023,4 hPa 0,0 l/m² 3,2 km/h (1 Bft) N-NO 22 ° 0 min 21 W/m² 9,6 °C 18,8 °C 4,8 km/h (1 Bft)
30.05.2023 20:29 21,3 °C 18,8 °C 54 % 55 % 1023,4 hPa 0,0 l/m² 3,2 km/h (1 Bft) N-NO 22 ° 0 min 21 W/m² 9,6 °C 18,8 °C 4,8 km/h (1 Bft)
30.05.2023 20:30 21,3 °C 18,7 °C 54 % 55 % 1023,4 hPa 0,0 l/m² 3,2 km/h (1 Bft) N-NO 22 ° 0 min 19 W/m² 9,5 °C 18,7 °C 4,8 km/h (1 Bft)
30.05.2023 20:31 21,3 °C 18,7 °C 54 % 55 % 1023,3 hPa 0,0 l/m² 3,2 km/h (1 Bft) N-NO 22 ° 0 min 19 W/m² 9,5 °C 18,7 °C 4,8 km/h (1 Bft)
30.05.2023 20:32 21,3 °C 18,7 °C 54 % 55 % 1023,4 hPa 0,0 l/m² 1,6 km/h (1 Bft) N-NO 22 ° 0 min 19 W/m² 9,5 °C 18,7 °C 3,2 km/h (1 Bft)
30.05.2023 20:33 21,3 °C 18,6 °C 54 % 56 % 1023,4 hPa 0,0 l/m² 3,2 km/h (1 Bft) N 360 ° 0 min 19 W/m² 9,6 °C 18,6 °C 6,4 km/h (2 Bft)
30.05.2023 20:34 21,3 °C 18,6 °C 54 % 55 % 1023,4 hPa 0,0 l/m² 4,8 km/h (1 Bft) N 360 ° 0 min 19 W/m² 9,4 °C 18,6 °C 6,4 km/h (2 Bft)
30.05.2023 20:35 21,3 °C 18,5 °C 54 % 55 % 1023,4 hPa 0,0 l/m² 3,2 km/h (1 Bft) N 360 ° 0 min 18 W/m² 9,3 °C 18,5 °C 4,8 km/h (1 Bft)
30.05.2023 20:36 21,3 °C 18,5 °C 54 % 55 % 1023,4 hPa 0,0 l/m² 3,2 km/h (1 Bft) N 360 ° 0 min 18 W/m² 9,3 °C 18,5 °C 4,8 km/h (1 Bft)
30.05.2023 20:37 21,3 °C 18,4 °C 54 % 56 % 1023,4 hPa 0,0 l/m² 3,2 km/h (1 Bft) N 360 ° 0 min 18 W/m² 9,5 °C 18,4 °C 4,8 km/h (1 Bft)
30.05.2023 20:38 21,3 °C 18,4 °C 53 % 56 % 1023,4 hPa 0,0 l/m² 4,8 km/h (1 Bft) N 360 ° 0 min 18 W/m² 9,5 °C 18,4 °C 6,4 km/h (2 Bft)
30.05.2023 20:39 21,3 °C 18,3 °C 53 % 56 % 1023,5 hPa 0,0 l/m² 3,2 km/h (1 Bft) N 360 ° 0 min 18 W/m² 9,4 °C 18,3 °C 6,4 km/h (2 Bft)
30.05.2023 20:40 21,3 °C 18,3 °C 53 % 56 % 1023,4 hPa 0,0 l/m² 3,2 km/h (1 Bft) N-NO 22 ° 0 min 18 W/m² 9,4 °C 18,3 °C 4,8 km/h (1 Bft)
30.05.2023 20:41 21,2 °C 18,2 °C 53 % 56 % 1023,4 hPa 0,0 l/m² 3,2 km/h (1 Bft) N 360 ° 0 min 16 W/m² 9,3 °C 18,2 °C 4,8 km/h (1 Bft)
30.05.2023 20:42 21,2 °C 18,2 °C 53 % 56 % 1023,4 hPa 0,0 l/m² 3,2 km/h (1 Bft) N 360 ° 0 min 16 W/m² 9,3 °C 18,2 °C 4,8 km/h (1 Bft)
30.05.2023 20:43 21,3 °C 18,1 °C 53 % 56 % 1023,5 hPa 0,0 l/m² 3,2 km/h (1 Bft) N 360 ° 0 min 16 W/m² 9,2 °C 18,1 °C 4,8 km/h (1 Bft)
30.05.2023 20:44 21,2 °C 18,1 °C 53 % 56 % 1023,4 hPa 0,0 l/m² 3,2 km/h (1 Bft) N 360 ° 0 min 16 W/m² 9,2 °C 18,1 °C 4,8 km/h (1 Bft)
30.05.2023 20:45 21,2 °C 18,1 °C 53 % 56 % 1023,4 hPa 0,0 l/m² 3,2 km/h (1 Bft) N 360 ° 0 min 14 W/m² 9,2 °C 18,1 °C 6,4 km/h (2 Bft)
30.05.2023 20:46 21,3 °C 18,1 °C 53 % 56 % 1023,5 hPa 0,0 l/m² 4,8 km/h (1 Bft) N 360 ° 0 min 14 W/m² 9,2 °C 18,1 °C 6,4 km/h (2 Bft)
30.05.2023 20:47 21,3 °C 18,0 °C 53 % 56 % 1023,4 hPa 0,0 l/m² 4,8 km/h (1 Bft) N 360 ° 0 min 14 W/m² 9,1 °C 18,0 °C 8,0 km/h (2 Bft)
30.05.2023 20:48 21,3 °C 17,9 °C 53 % 56 % 1023,4 hPa 0,0 l/m² 4,8 km/h (1 Bft) N-NO 22 ° 0 min 14 W/m² 9,0 °C 17,9 °C 8,0 km/h (2 Bft)
30.05.2023 20:49 21,3 °C 18,0 °C 53 % 56 % 1023,5 hPa 0,0 l/m² 3,2 km/h (1 Bft) N-NO 22 ° 0 min 12 W/m² 9,1 °C 18,0 °C 4,8 km/h (1 Bft)
30.05.2023 20:50 21,3 °C 17,9 °C 53 % 56 % 1023,4 hPa 0,0 l/m² 3,2 km/h (1 Bft) N-NO 22 ° 0 min 12 W/m² 9,0 °C 17,9 °C 4,8 km/h (1 Bft)
30.05.2023 20:51 21,3 °C 17,9 °C 53 % 56 % 1023,4 hPa 0,0 l/m² 3,2 km/h (1 Bft) N 360 ° 0 min 12 W/m² 9,0 °C 17,9 °C 3,2 km/h (1 Bft)
30.05.2023 20:52 21,3 °C 17,9 °C 53 % 57 % 1023,5 hPa 0,0 l/m² 3,2 km/h (1 Bft) N 360 ° 0 min 12 W/m² 9,3 °C 17,9 °C 4,8 km/h (1 Bft)
30.05.2023 20:53 21,3 °C 17,8 °C 53 % 57 % 1023,5 hPa 0,0 l/m² 3,2 km/h (1 Bft) N 360 ° 0 min 12 W/m² 9,2 °C 17,8 °C 4,8 km/h (1 Bft)
30.05.2023 20:54 21,3 °C 17,8 °C 53 % 57 % 1023,5 hPa 0,0 l/m² 3,2 km/h (1 Bft) N 360 ° 0 min 11 W/m² 9,2 °C 17,8 °C 4,8 km/h (1 Bft)
30.05.2023 20:55 21,3 °C 17,8 °C 53 % 57 % 1023,5 hPa 0,0 l/m² 3,2 km/h (1 Bft) N 360 ° 0 min 11 W/m² 9,2 °C 17,8 °C 4,8 km/h (1 Bft)
30.05.2023 20:56 21,3 °C 17,7 °C 53 % 57 % 1023,5 hPa 0,0 l/m² 1,6 km/h (1 Bft) N 360 ° 0 min 11 W/m² 9,1 °C 17,7 °C 3,2 km/h (1 Bft)
30.05.2023 20:57 21,3 °C 17,7 °C 53 % 58 % 1023,5 hPa 0,0 l/m² 1,6 km/h (1 Bft) N 360 ° 0 min 11 W/m² 9,3 °C 17,7 °C 3,2 km/h (1 Bft)
30.05.2023 20:58 21,3 °C 17,6 °C 53 % 58 % 1023,5 hPa 0,0 l/m² 3,2 km/h (1 Bft) N 360 ° 0 min 11 W/m² 9,2 °C 17,6 °C 4,8 km/h (1 Bft)
30.05.2023 20:59 21,3 °C 17,6 °C 53 % 58 % 1023,5 hPa 0,0 l/m² 3,2 km/h (1 Bft) N 360 ° 0 min 9 W/m² 9,2 °C 17,6 °C 4,8 km/h (1 Bft)
30.05.2023 21:00 21,3 °C 17,6 °C 53 % 58 % 1023,5 hPa 0,0 l/m² 4,8 km/h (1 Bft) N-NO 22 ° 0 min 9 W/m² 9,2 °C 17,6 °C 4,8 km/h (1 Bft)
30.05.2023 21:01 21,3 °C 17,5 °C 53 % 58 % 1023,6 hPa 0,0 l/m² 3,2 km/h (1 Bft) N 360 ° 0 min 9 W/m² 9,1 °C 17,5 °C 4,8 km/h (1 Bft)
30.05.2023 21:02 21,3 °C 17,4 °C 53 % 58 % 1023,6 hPa 0,0 l/m² 3,2 km/h (1 Bft) N 360 ° 0 min 9 W/m² 9,1 °C 17,4 °C 4,8 km/h (1 Bft)
30.05.2023 21:03 21,3 °C 17,4 °C 53 % 59 % 1023,5 hPa 0,0 l/m² 3,2 km/h (1 Bft) N-NO 22 ° 0 min 9 W/m² 9,3 °C 17,4 °C 4,8 km/h (1 Bft)
30.05.2023 21:04 21,3 °C 17,3 °C 53 % 59 % 1023,5 hPa 0,0 l/m² 3,2 km/h (1 Bft) N 360 ° 0 min 7 W/m² 9,2 °C 17,3 °C 4,8 km/h (1 Bft)
30.05.2023 21:05 21,3 °C 17,3 °C 53 % 59 % 1023,6 hPa 0,0 l/m² 3,2 km/h (1 Bft) N-NO 22 ° 0 min 7 W/m² 9,2 °C 17,3 °C 4,8 km/h (1 Bft)
30.05.2023 21:06 21,3 °C 17,3 °C 53 % 59 % 1023,6 hPa 0,0 l/m² 3,2 km/h (1 Bft) N 360 ° 0 min 7 W/m² 9,2 °C 17,3 °C 4,8 km/h (1 Bft)
30.05.2023 21:07 21,3 °C 17,2 °C 53 % 59 % 1023,5 hPa 0,0 l/m² 3,2 km/h (1 Bft) N 360 ° 0 min 7 W/m² 9,1 °C 17,2 °C 4,8 km/h (1 Bft)
30.05.2023 21:08 21,3 °C 17,2 °C 53 % 59 % 1023,6 hPa 0,0 l/m² 4,8 km/h (1 Bft) N 360 ° 0 min 7 W/m² 9,1 °C 17,2 °C 6,4 km/h (2 Bft)
30.05.2023 21:09 21,3 °C 17,2 °C 53 % 59 % 1023,6 hPa 0,0 l/m² 4,8 km/h (1 Bft) N 360 ° 0 min 5 W/m² 9,1 °C 17,2 °C 6,4 km/h (2 Bft)
30.05.2023 21:10 21,3 °C 17,1 °C 53 % 59 % 1023,5 hPa 0,0 l/m² 3,2 km/h (1 Bft) N-NO 22 ° 0 min 5 W/m² 9,0 °C 17,1 °C 6,4 km/h (2 Bft)
30.05.2023 21:11 21,3 °C 17,1 °C 53 % 60 % 1023,5 hPa 0,0 l/m² 3,2 km/h (1 Bft) N 360 ° 0 min 5 W/m² 9,3 °C 17,1 °C 6,4 km/h (2 Bft)
30.05.2023 21:12 21,3 °C 17,1 °C 53 % 60 % 1023,6 hPa 0,0 l/m² 3,2 km/h (1 Bft) N-NO 22 ° 0 min 5 W/m² 9,3 °C 17,1 °C 4,8 km/h (1 Bft)
30.05.2023 21:13 21,3 °C 17,1 °C 53 % 60 % 1023,5 hPa 0,0 l/m² 3,2 km/h (1 Bft) N-NO 22 ° 0 min 5 W/m² 9,3 °C 17,1 °C 4,8 km/h (1 Bft)
30.05.2023 21:14 21,3 °C 17,0 °C 53 % 60 % 1023,6 hPa 0,0 l/m² 3,2 km/h (1 Bft) N 360 ° 0 min 5 W/m² 9,2 °C 17,0 °C 4,8 km/h (1 Bft)
30.05.2023 21:15 21,3 °C 16,9 °C 53 % 60 % 1023,6 hPa 0,0 l/m² 3,2 km/h (1 Bft) N 360 ° 0 min 5 W/m² 9,1 °C 16,9 °C 4,8 km/h (1 Bft)
30.05.2023 21:16 21,3 °C 16,9 °C 53 % 60 % 1023,6 hPa 0,0 l/m² 3,2 km/h (1 Bft) N 360 ° 0 min 0 W/m² 9,1 °C 16,9 °C 4,8 km/h (1 Bft)
30.05.2023 21:17 21,3 °C 16,9 °C 53 % 60 % 1023,6 hPa 0,0 l/m² 4,8 km/h (1 Bft) N 360 ° 0 min 0 W/m² 9,1 °C 16,9 °C 4,8 km/h (1 Bft)
30.05.2023 21:18 21,3 °C 16,9 °C 53 % 60 % 1023,6 hPa 0,0 l/m² 3,2 km/h (1 Bft) N 360 ° 0 min 0 W/m² 9,1 °C 16,9 °C 6,4 km/h (2 Bft)
30.05.2023 21:19 21,3 °C 16,9 °C 53 % 60 % 1023,6 hPa 0,0 l/m² 4,8 km/h (1 Bft) N 360 ° 0 min 0 W/m² 9,1 °C 16,9 °C 8,0 km/h (2 Bft)
30.05.2023 21:20 21,3 °C 16,9 °C 53 % 60 % 1023,6 hPa 0,0 l/m² 3,2 km/h (1 Bft) N 360 ° 0 min 0 W/m² 9,1 °C 16,9 °C 4,8 km/h (1 Bft)
30.05.2023 21:21 21,3 °C 16,8 °C 53 % 60 % 1023,6 hPa 0,0 l/m² 3,2 km/h (1 Bft) N 360 ° 0 min 0 W/m² 9,0 °C 16,8 °C 4,8 km/h (1 Bft)
30.05.2023 21:22 21,3 °C 16,8 °C 53 % 60 % 1023,7 hPa 0,0 l/m² 3,2 km/h (1 Bft) N-NO 22 ° 0 min 0 W/m² 9,0 °C 16,8 °C 6,4 km/h (2 Bft)
30.05.2023 21:23 21,3 °C 16,8 °C 53 % 60 % 1023,7 hPa 0,0 l/m² 3,2 km/h (1 Bft) N-NO 22 ° 0 min 0 W/m² 9,0 °C 16,8 °C 6,4 km/h (2 Bft)
30.05.2023 21:24 21,3 °C 16,8 °C 53 % 60 % 1023,6 hPa 0,0 l/m² 3,2 km/h (1 Bft) N 360 ° 0 min 0 W/m² 9,0 °C 16,8 °C 4,8 km/h (1 Bft)
30.05.2023 21:25 21,3 °C 16,7 °C 53 % 60 % 1023,7 hPa 0,0 l/m² 4,8 km/h (1 Bft) N 360 ° 0 min 0 W/m² 8,9 °C 16,7 °C 8,0 km/h (2 Bft)
30.05.2023 21:26 21,3 °C 16,8 °C 53 % 60 % 1023,7 hPa 0,0 l/m² 3,2 km/h (1 Bft) N 360 ° 0 min 0 W/m² 9,0 °C 16,8 °C 6,4 km/h (2 Bft)
30.05.2023 21:27 21,3 °C 16,7 °C 53 % 60 % 1023,8 hPa 0,0 l/m² 3,2 km/h (1 Bft) N-NO 22 ° 0 min 0 W/m² 8,9 °C 16,7 °C 4,8 km/h (1 Bft)
30.05.2023 21:28 21,3 °C 16,8 °C 53 % 60 % 1023,7 hPa 0,0 l/m² 4,8 km/h (1 Bft) N-NO 22 ° 0 min 0 W/m² 9,0 °C 16,8 °C 11,3 km/h (2 Bft)
30.05.2023 21:29 21,3 °C 16,7 °C 53 % 60 % 1023,7 hPa 0,0 l/m² 3,2 km/h (1 Bft) N 360 ° 0 min 0 W/m² 8,9 °C 16,7 °C 6,4 km/h (2 Bft)
30.05.2023 21:30 21,3 °C 16,7 °C 53 % 60 % 1023,8 hPa 0,0 l/m² 3,2 km/h (1 Bft) N-NO 22 ° 0 min 0 W/m² 8,9 °C 16,7 °C 4,8 km/h (1 Bft)
30.05.2023 21:31 21,3 °C 16,7 °C 53 % 60 % 1023,8 hPa 0,0 l/m² 4,8 km/h (1 Bft) N 360 ° 0 min 0 W/m² 8,9 °C 16,7 °C 8,0 km/h (2 Bft)
30.05.2023 21:32 21,3 °C 16,7 °C 53 % 60 % 1023,7 hPa 0,0 l/m² 3,2 km/h (1 Bft) N-NO 22 ° 0 min 0 W/m² 8,9 °C 16,7 °C 4,8 km/h (1 Bft)
30.05.2023 21:33 21,3 °C 16,7 °C 53 % 60 % 1023,8 hPa 0,0 l/m² 3,2 km/h (1 Bft) N-NO 22 ° 0 min 0 W/m² 8,9 °C 16,7 °C 4,8 km/h (1 Bft)
30.05.2023 21:34 21,4 °C 16,7 °C 53 % 60 % 1023,7 hPa 0,0 l/m² 3,2 km/h (1 Bft) N 360 ° 0 min 0 W/m² 8,9 °C 16,7 °C 6,4 km/h (2 Bft)
30.05.2023 21:35 21,3 °C 16,6 °C 53 % 60 % 1023,8 hPa 0,0 l/m² 3,2 km/h (1 Bft) N 360 ° 0 min 0 W/m² 8,8 °C 16,6 °C 6,4 km/h (2 Bft)
30.05.2023 21:36 21,3 °C 16,6 °C 53 % 60 % 1023,8 hPa 0,0 l/m² 3,2 km/h (1 Bft) N-NO 22 ° 0 min 0 W/m² 8,8 °C 16,6 °C 6,4 km/h (2 Bft)
30.05.2023 21:37 21,3 °C 16,6 °C 53 % 60 % 1023,8 hPa 0,0 l/m² 3,2 km/h (1 Bft) N-NO 22 ° 0 min 0 W/m² 8,8 °C 16,6 °C 6,4 km/h (2 Bft)
30.05.2023 21:38 21,3 °C 16,6 °C 53 % 60 % 1023,8 hPa 0,0 l/m² 3,2 km/h (1 Bft) N-NO 22 ° 0 min 0 W/m² 8,8 °C 16,6 °C 4,8 km/h (1 Bft)
30.05.2023 21:39 21,4 °C 16,6 °C 53 % 60 % 1023,8 hPa 0,0 l/m² 3,2 km/h (1 Bft) N 360 ° 0 min 0 W/m² 8,8 °C 16,6 °C 4,8 km/h (1 Bft)
30.05.2023 21:40 21,3 °C 16,6 °C 53 % 60 % 1023,9 hPa 0,0 l/m² 3,2 km/h (1 Bft) N 360 ° 0 min 0 W/m² 8,8 °C 16,6 °C 4,8 km/h (1 Bft)
30.05.2023 21:41 21,4 °C 16,6 °C 53 % 60 % 1023,8 hPa 0,0 l/m² 4,8 km/h (1 Bft) N 360 ° 0 min 0 W/m² 8,8 °C 16,6 °C 6,4 km/h (2 Bft)
30.05.2023 21:42 21,3 °C 16,5 °C 53 % 60 % 1023,8 hPa 0,0 l/m² 4,8 km/h (1 Bft) N 360 ° 0 min 0 W/m² 8,7 °C 16,5 °C 6,4 km/h (2 Bft)
30.05.2023 21:43 21,3 °C 16,5 °C 53 % 60 % 1023,8 hPa 0,0 l/m² 3,2 km/h (1 Bft) N 360 ° 0 min 0 W/m² 8,7 °C 16,5 °C 4,8 km/h (1 Bft)
30.05.2023 21:44 21,3 °C 16,5 °C 53 % 60 % 1023,8 hPa 0,0 l/m² 3,2 km/h (1 Bft) N-NO 22 ° 0 min 0 W/m² 8,7 °C 16,5 °C 4,8 km/h (1 Bft)
30.05.2023 21:45 21,3 °C 16,5 °C 53 % 60 % 1023,8 hPa 0,0 l/m² 3,2 km/h (1 Bft) N-NO 22 ° 0 min 0 W/m² 8,7 °C 16,5 °C 4,8 km/h (1 Bft)
30.05.2023 21:46 21,3 °C 16,4 °C 53 % 60 % 1023,8 hPa 0,0 l/m² 3,2 km/h (1 Bft) N-NO 22 ° 0 min 0 W/m² 8,6 °C 16,4 °C 6,4 km/h (2 Bft)
30.05.2023 21:47 21,3 °C 16,4 °C 53 % 61 % 1023,8 hPa 0,0 l/m² 3,2 km/h (1 Bft) N 360 ° 0 min 0 W/m² 8,9 °C 16,4 °C 4,8 km/h (1 Bft)
30.05.2023 21:48 21,3 °C 16,4 °C 53 % 61 % 1023,9 hPa 0,0 l/m² 3,2 km/h (1 Bft) N-NW 337 ° 0 min 0 W/m² 8,9 °C 16,4 °C 4,8 km/h (1 Bft)
30.05.2023 21:49 21,3 °C 16,4 °C 53 % 60 % 1023,9 hPa 0,0 l/m² 3,2 km/h (1 Bft) N-NO 22 ° 0 min 0 W/m² 8,6 °C 16,4 °C 6,4 km/h (2 Bft)
30.05.2023 21:50 21,3 °C 16,4 °C 53 % 60 % 1023,9 hPa 0,0 l/m² 3,2 km/h (1 Bft) N-NO 22 ° 0 min 0 W/m² 8,6 °C 16,4 °C 6,4 km/h (2 Bft)
30.05.2023 21:51 21,3 °C 16,4 °C 53 % 61 % 1023,9 hPa 0,0 l/m² 4,8 km/h (1 Bft) N-NO 22 ° 0 min 0 W/m² 8,9 °C 16,4 °C 6,4 km/h (2 Bft)
30.05.2023 21:52 21,3 °C 16,4 °C 53 % 61 % 1023,9 hPa 0,0 l/m² 3,2 km/h (1 Bft) N-NO 22 ° 0 min 0 W/m² 8,9 °C 16,4 °C 6,4 km/h (2 Bft)
30.05.2023 21:53 21,3 °C 16,4 °C 54 % 61 % 1023,9 hPa 0,0 l/m² 3,2 km/h (1 Bft) N-NO 22 ° 0 min 0 W/m² 8,9 °C 16,4 °C 6,4 km/h (2 Bft)
30.05.2023 21:54 21,3 °C 16,4 °C 54 % 61 % 1023,9 hPa 0,0 l/m² 1,6 km/h (1 Bft) N-NO 22 ° 0 min 0 W/m² 8,9 °C 16,4 °C 3,2 km/h (1 Bft)
30.05.2023 21:55 21,2 °C 16,3 °C 54 % 61 % 1023,9 hPa 0,0 l/m² 4,8 km/h (1 Bft) N 360 ° 0 min 0 W/m² 8,8 °C 16,3 °C 6,4 km/h (2 Bft)
30.05.2023 21:56 21,2 °C 16,3 °C 54 % 61 % 1024,0 hPa 0,0 l/m² 3,2 km/h (1 Bft) N 360 ° 0 min 0 W/m² 8,8 °C 16,3 °C 4,8 km/h (1 Bft)
30.05.2023 21:57 21,2 °C 16,3 °C 54 % 61 % 1024,0 hPa 0,0 l/m² 3,2 km/h (1 Bft) N 360 ° 0 min 0 W/m² 8,8 °C 16,3 °C 4,8 km/h (1 Bft)
30.05.2023 21:58 21,2 °C 16,3 °C 54 % 61 % 1024,1 hPa 0,0 l/m² 3,2 km/h (1 Bft) N 360 ° 0 min 0 W/m² 8,8 °C 16,3 °C 6,4 km/h (2 Bft)
30.05.2023 21:59 21,2 °C 16,3 °C 54 % 61 % 1024,0 hPa 0,0 l/m² 4,8 km/h (1 Bft) N 360 ° 0 min 0 W/m² 8,8 °C 16,3 °C 8,0 km/h (2 Bft)
30.05.2023 22:00 21,2 °C 16,2 °C 54 % 61 % 1024,0 hPa 0,0 l/m² 4,8 km/h (1 Bft) N-NO 22 ° 0 min 0 W/m² 8,7 °C 16,2 °C 8,0 km/h (2 Bft)
30.05.2023 22:01 21,2 °C 16,2 °C 54 % 61 % 1024,1 hPa 0,0 l/m² 4,8 km/h (1 Bft) N 360 ° 0 min 0 W/m² 8,7 °C 16,2 °C 8,0 km/h (2 Bft)
30.05.2023 22:02 21,2 °C 16,2 °C 54 % 61 % 1024,1 hPa 0,0 l/m² 4,8 km/h (1 Bft) N-NO 22 ° 0 min 0 W/m² 8,7 °C 16,2 °C 8,0 km/h (2 Bft)
30.05.2023 22:03 21,1 °C 16,1 °C 54 % 61 % 1024,1 hPa 0,0 l/m² 3,2 km/h (1 Bft) N-NO 22 ° 0 min 0 W/m² 8,6 °C 16,1 °C 4,8 km/h (1 Bft)
30.05.2023 22:04 21,1 °C 16,1 °C 54 % 62 % 1024,1 hPa 0,0 l/m² 3,2 km/h (1 Bft) N 360 ° 0 min 0 W/m² 8,8 °C 16,1 °C 4,8 km/h (1 Bft)
30.05.2023 22:05 21,2 °C 16,1 °C 54 % 61 % 1024,1 hPa 0,0 l/m² 4,8 km/h (1 Bft) N-NO 22 ° 0 min 0 W/m² 8,6 °C 16,1 °C 6,4 km/h (2 Bft)
30.05.2023 22:06 21,1 °C 16,1 °C 54 % 61 % 1024,1 hPa 0,0 l/m² 3,2 km/h (1 Bft) N-NO 22 ° 0 min 0 W/m² 8,6 °C 16,1 °C 4,8 km/h (1 Bft)
30.05.2023 22:07 21,1 °C 16,1 °C 54 % 62 % 1024,2 hPa 0,0 l/m² 4,8 km/h (1 Bft) N-NO 22 ° 0 min 0 W/m² 8,8 °C 16,1 °C 8,0 km/h (2 Bft)
30.05.2023 22:08 21,1 °C 16,1 °C 54 % 62 % 1024,1 hPa 0,0 l/m² 3,2 km/h (1 Bft) N 360 ° 0 min 0 W/m² 8,8 °C 16,1 °C 6,4 km/h (2 Bft)
30.05.2023 22:09 21,1 °C 16,1 °C 54 % 62 % 1024,2 hPa 0,0 l/m² 6,4 km/h (2 Bft) N 360 ° 0 min 0 W/m² 8,8 °C 16,1 °C 8,0 km/h (2 Bft)
30.05.2023 22:10 21,1 °C 16,2 °C 54 % 62 % 1024,1 hPa 0,0 l/m² 4,8 km/h (1 Bft) N 360 ° 0 min 0 W/m² 8,9 °C 16,2 °C 6,4 km/h (2 Bft)
30.05.2023 22:11 21,1 °C 16,1 °C 54 % 62 % 1024,2 hPa 0,0 l/m² 4,8 km/h (1 Bft) N 360 ° 0 min 0 W/m² 8,8 °C 16,1 °C 4,8 km/h (1 Bft)
30.05.2023 22:12 21,1 °C 16,1 °C 54 % 62 % 1024,1 hPa 0,0 l/m² 4,8 km/h (1 Bft) N 360 ° 0 min 0 W/m² 8,8 °C 16,1 °C 8,0 km/h (2 Bft)
30.05.2023 22:13 21,1 °C 16,1 °C 54 % 62 % 1024,2 hPa 0,0 l/m² 3,2 km/h (1 Bft) N-NO 22 ° 0 min 0 W/m² 8,8 °C 16,1 °C 6,4 km/h (2 Bft)
30.05.2023 22:14 21,1 °C 16,1 °C 54 % 62 % 1024,2 hPa 0,0 l/m² 4,8 km/h (1 Bft) N 360 ° 0 min 0 W/m² 8,8 °C 16,1 °C 6,4 km/h (2 Bft)
30.05.2023 22:15 21,1 °C 16,1 °C 54 % 62 % 1024,2 hPa 0,0 l/m² 3,2 km/h (1 Bft) N-NO 22 ° 0 min 0 W/m² 8,8 °C 16,1 °C 6,4 km/h (2 Bft)
30.05.2023 22:16 21,1 °C 16,1 °C 54 % 62 % 1024,2 hPa 0,0 l/m² 4,8 km/h (1 Bft) N-NO 22 ° 0 min 0 W/m² 8,8 °C 16,1 °C 8,0 km/h (2 Bft)
30.05.2023 22:17 21,1 °C 16,1 °C 54 % 62 % 1024,2 hPa 0,0 l/m² 3,2 km/h (1 Bft) N-NO 22 ° 0 min 0 W/m² 8,8 °C 16,1 °C 8,0 km/h (2 Bft)
30.05.2023 22:18 21,1 °C 16,1 °C 54 % 62 % 1024,1 hPa 0,0 l/m² 6,4 km/h (2 Bft) N 360 ° 0 min 0 W/m² 8,8 °C 16,1 °C 11,3 km/h (2 Bft)
30.05.2023 22:19 21,0 °C 16,1 °C 54 % 62 % 1024,2 hPa 0,0 l/m² 3,2 km/h (1 Bft) N-NO 22 ° 0 min 0 W/m² 8,8 °C 16,1 °C 6,4 km/h (2 Bft)
30.05.2023 22:20 21,0 °C 16,1 °C 54 % 62 % 1024,2 hPa 0,0 l/m² 4,8 km/h (1 Bft) N-NO 22 ° 0 min 0 W/m² 8,8 °C 16,1 °C 6,4 km/h (2 Bft)
30.05.2023 22:21 21,1 °C 16,1 °C 54 % 62 % 1024,1 hPa 0,0 l/m² 1,6 km/h (1 Bft) N-NO 22 ° 0 min 0 W/m² 8,8 °C 16,1 °C 3,2 km/h (1 Bft)
30.05.2023 22:22 21,0 °C 16,1 °C 54 % 62 % 1024,2 hPa 0,0 l/m² 1,6 km/h (1 Bft) N-NO 22 ° 0 min 0 W/m² 8,8 °C 16,1 °C 3,2 km/h (1 Bft)
30.05.2023 22:23 21,0 °C 15,9 °C 54 % 63 % 1024,1 hPa 0,0 l/m² 1,6 km/h (1 Bft) N 360 ° 0 min 0 W/m² 8,9 °C 15,9 °C 3,2 km/h (1 Bft)
30.05.2023 22:24 21,0 °C 15,9 °C 54 % 63 % 1024,2 hPa 0,0 l/m² 0,0 km/h (0 Bft) N 360 ° 0 min 0 W/m² 8,9 °C 15,9 °C 3,2 km/h (1 Bft)
30.05.2023 22:25 21,0 °C 15,7 °C 54 % 63 % 1024,2 hPa 0,0 l/m² 0,0 km/h (0 Bft) N 360 ° 0 min 0 W/m² 8,7 °C 15,7 °C 1,6 km/h (1 Bft)
30.05.2023 22:26 21,0 °C 15,4 °C 54 % 65 % 1024,2 hPa 0,0 l/m² 0,0 km/h (0 Bft) N 360 ° 0 min 0 W/m² 8,9 °C 15,4 °C 1,6 km/h (1 Bft)
30.05.2023 22:27 21,0 °C 15,1 °C 54 % 65 % 1024,1 hPa 0,0 l/m² 0,0 km/h (0 Bft) N 360 ° 0 min 0 W/m² 8,6 °C 15,1 °C 1,6 km/h (1 Bft)
30.05.2023 22:28 21,0 °C 14,7 °C 54 % 67 % 1024,1 hPa 0,0 l/m² 1,6 km/h (1 Bft) N 360 ° 0 min 0 W/m² 8,6 °C 14,7 °C 3,2 km/h (1 Bft)
30.05.2023 22:29 21,0 °C 14,3 °C 54 % 69 % 1024,1 hPa 0,0 l/m² 0,0 km/h (0 Bft) N 0 ° 0 min 0 W/m² 8,7 °C 14,3 °C 0,0 km/h (0 Bft)
30.05.2023 22:30 21,0 °C 14,0 °C 54 % 70 % 1024,2 hPa 0,0 l/m² 0,0 km/h (0 Bft) N 0 ° 0 min 0 W/m² 8,6 °C 14,0 °C 0,0 km/h (0 Bft)
30.05.2023 22:31 20,9 °C 13,7 °C 54 % 71 % 1024,1 hPa 0,0 l/m² 0,0 km/h (0 Bft) N 0 ° 0 min 0 W/m² 8,5 °C 13,7 °C 0,0 km/h (0 Bft)
30.05.2023 22:32 21,0 °C 13,6 °C 54 % 71 % 1024,2 hPa 0,0 l/m² 0,0 km/h (0 Bft) N 360 ° 0 min 0 W/m² 8,4 °C 13,6 °C 1,6 km/h (1 Bft)
30.05.2023 22:33 20,9 °C 13,6 °C 54 % 71 % 1024,2 hPa 0,0 l/m² 0,0 km/h (0 Bft) N 0 ° 0 min 0 W/m² 8,4 °C 13,6 °C 0,0 km/h (0 Bft)
30.05.2023 22:34 20,9 °C 13,3 °C 54 % 73 % 1024,2 hPa 0,0 l/m² 0,0 km/h (0 Bft) N 0 ° 0 min 0 W/m² 8,6 °C 13,3 °C 0,0 km/h (0 Bft)
30.05.2023 22:35 21,0 °C 13,1 °C 54 % 74 % 1024,2 hPa 0,0 l/m² 0,0 km/h (0 Bft) N 0 ° 0 min 0 W/m² 8,6 °C 13,1 °C 0,0 km/h (0 Bft)
30.05.2023 22:36 21,0 °C 12,8 °C 54 % 74 % 1024,2 hPa 0,0 l/m² 0,0 km/h (0 Bft) N 0 ° 0 min 0 W/m² 8,3 °C 12,8 °C 0,0 km/h (0 Bft)
30.05.2023 22:37 20,9 °C 12,6 °C 54 % 75 % 1024,3 hPa 0,0 l/m² 0,0 km/h (0 Bft) N 0 ° 0 min 0 W/m² 8,3 °C 12,6 °C 0,0 km/h (0 Bft)
30.05.2023 22:38 20,9 °C 12,3 °C 54 % 76 % 1024,2 hPa 0,0 l/m² 0,0 km/h (0 Bft) N 0 ° 0 min 0 W/m² 8,2 °C 12,3 °C 0,0 km/h (0 Bft)
30.05.2023 22:39 20,9 °C 12,1 °C 54 % 77 % 1024,3 hPa 0,0 l/m² 0,0 km/h (0 Bft) N 0 ° 0 min 0 W/m² 8,2 °C 12,1 °C 0,0 km/h (0 Bft)
30.05.2023 22:40 20,9 °C 11,9 °C 54 % 77 % 1024,3 hPa 0,0 l/m² 0,0 km/h (0 Bft) N 0 ° 0 min 0 W/m² 8,0 °C 11,9 °C 0,0 km/h (0 Bft)
30.05.2023 22:41 20,9 °C 11,8 °C 54 % 78 % 1024,3 hPa 0,0 l/m² 0,0 km/h (0 Bft) N 0 ° 0 min 0 W/m² 8,1 °C 11,8 °C 0,0 km/h (0 Bft)
30.05.2023 22:42 20,9 °C 11,7 °C 54 % 79 % 1024,3 hPa 0,0 l/m² 0,0 km/h (0 Bft) N 0 ° 0 min 0 W/m² 8,2 °C 11,7 °C 0,0 km/h (0 Bft)
30.05.2023 22:43 20,9 °C 11,6 °C 54 % 79 % 1024,3 hPa 0,0 l/m² 0,0 km/h (0 Bft) N 0 ° 0 min 0 W/m² 8,1 °C 11,6 °C 0,0 km/h (0 Bft)
30.05.2023 22:44 20,9 °C 11,4 °C 54 % 79 % 1024,3 hPa 0,0 l/m² 0,0 km/h (0 Bft) N 0 ° 0 min 0 W/m² 7,9 °C 11,4 °C 0,0 km/h (0 Bft)
30.05.2023 22:45 20,9 °C 11,3 °C 54 % 80 % 1024,3 hPa 0,0 l/m² 0,0 km/h (0 Bft) N 0 ° 0 min 0 W/m² 8,0 °C 11,3 °C 0,0 km/h (0 Bft)
30.05.2023 22:46 20,9 °C 11,3 °C 54 % 80 % 1024,3 hPa 0,0 l/m² 0,0 km/h (0 Bft) N 0 ° 0 min 0 W/m² 8,0 °C 11,3 °C 0,0 km/h (0 Bft)
30.05.2023 22:47 20,9 °C 11,3 °C 54 % 81 % 1024,3 hPa 0,0 l/m² 0,0 km/h (0 Bft) N 0 ° 0 min 0 W/m² 8,2 °C 11,3 °C 0,0 km/h (0 Bft)
30.05.2023 22:48 20,9 °C 11,3 °C 54 % 81 % 1024,3 hPa 0,0 l/m² 0,0 km/h (0 Bft) N 0 ° 0 min 0 W/m² 8,2 °C 11,3 °C 0,0 km/h (0 Bft)
30.05.2023 22:49 20,9 °C 11,3 °C 54 % 81 % 1024,2 hPa 0,0 l/m² 0,0 km/h (0 Bft) N 0 ° 0 min 0 W/m² 8,2 °C 11,3 °C 0,0 km/h (0 Bft)
30.05.2023 22:50 20,9 °C 11,3 °C 54 % 80 % 1024,3 hPa 0,0 l/m² 0,0 km/h (0 Bft) N 0 ° 0 min 0 W/m² 8,0 °C 11,3 °C 0,0 km/h (0 Bft)
30.05.2023 22:51 20,9 °C 11,3 °C 54 % 80 % 1024,2 hPa 0,0 l/m² 0,0 km/h (0 Bft) N 0 ° 0 min 0 W/m² 8,0 °C 11,3 °C 0,0 km/h (0 Bft)
30.05.2023 22:52 20,9 °C 11,2 °C 54 % 80 % 1024,3 hPa 0,0 l/m² 0,0 km/h (0 Bft) N 0 ° 0 min 0 W/m² 7,9 °C 11,2 °C 0,0 km/h (0 Bft)
30.05.2023 22:53 20,9 °C 11,1 °C 54 % 80 % 1024,3 hPa 0,0 l/m² 0,0 km/h (0 Bft) N 0 ° 0 min 0 W/m² 7,8 °C 11,1 °C 0,0 km/h (0 Bft)
30.05.2023 22:54 20,9 °C 10,9 °C 54 % 80 % 1024,2 hPa 0,0 l/m² 0,0 km/h (0 Bft) N 0 ° 0 min 0 W/m² 7,6 °C 10,9 °C 0,0 km/h (0 Bft)
30.05.2023 22:55 20,9 °C 10,8 °C 54 % 80 % 1024,2 hPa 0,0 l/m² 0,0 km/h (0 Bft) N 0 ° 0 min 0 W/m² 7,5 °C 10,8 °C 0,0 km/h (0 Bft)
30.05.2023 22:56 20,9 °C 10,7 °C 54 % 81 % 1024,2 hPa 0,0 l/m² 0,0 km/h (0 Bft) N 0 ° 0 min 0 W/m² 7,6 °C 10,7 °C 0,0 km/h (0 Bft)
30.05.2023 22:57 20,9 °C 10,6 °C 54 % 81 % 1024,2 hPa 0,0 l/m² 0,0 km/h (0 Bft) N 360 ° 0 min 0 W/m² 7,5 °C 10,6 °C 1,6 km/h (1 Bft)
30.05.2023 22:58 20,9 °C 10,4 °C 54 % 82 % 1024,3 hPa 0,0 l/m² 3,2 km/h (1 Bft) N 360 ° 0 min 0 W/m² 7,5 °C 10,4 °C 3,2 km/h (1 Bft)
30.05.2023 22:59 20,8 °C 10,4 °C 54 % 82 % 1024,3 hPa 0,0 l/m² 0,0 km/h (0 Bft) N 360 ° 0 min 0 W/m² 7,5 °C 10,4 °C 3,2 km/h (1 Bft)
30.05.2023 23:00 20,9 °C 10,4 °C 54 % 83 % 1024,3 hPa 0,0 l/m² 0,0 km/h (0 Bft) N 360 ° 0 min 0 W/m² 7,6 °C 10,4 °C 1,6 km/h (1 Bft)
30.05.2023 23:01 20,9 °C 10,5 °C 54 % 83 % 1024,3 hPa 0,0 l/m² 0,0 km/h (0 Bft) N 360 ° 0 min 0 W/m² 7,7 °C 10,5 °C 1,6 km/h (1 Bft)
30.05.2023 23:02 20,8 °C 10,6 °C 54 % 83 % 1024,2 hPa 0,0 l/m² 0,0 km/h (0 Bft) N 360 ° 0 min 0 W/m² 7,8 °C 10,6 °C 1,6 km/h (1 Bft)
30.05.2023 23:03 20,9 °C 10,5 °C 54 % 83 % 1024,3 hPa 0,0 l/m² 0,0 km/h (0 Bft) N 0 ° 0 min 0 W/m² 7,7 °C 10,5 °C 0,0 km/h (0 Bft)
30.05.2023 23:04 20,9 °C 10,6 °C 54 % 83 % 1024,3 hPa 0,0 l/m² 0,0 km/h (0 Bft) N 0 ° 0 min 0 W/m² 7,8 °C 10,6 °C 0,0 km/h (0 Bft)
30.05.2023 23:05 20,9 °C 10,5 °C 54 % 83 % 1024,3 hPa 0,0 l/m² 0,0 km/h (0 Bft) N 0 ° 0 min 0 W/m² 7,7 °C 10,5 °C 0,0 km/h (0 Bft)
30.05.2023 23:06 20,9 °C 10,4 °C 54 % 83 % 1024,3 hPa 0,0 l/m² 0,0 km/h (0 Bft) N 0 ° 0 min 0 W/m² 7,6 °C 10,4 °C 0,0 km/h (0 Bft)
30.05.2023 23:07 20,8 °C 10,4 °C 54 % 83 % 1024,3 hPa 0,0 l/m² 0,0 km/h (0 Bft) N 0 ° 0 min 0 W/m² 7,6 °C 10,4 °C 0,0 km/h (0 Bft)
30.05.2023 23:08 20,8 °C 10,3 °C 54 % 83 % 1024,3 hPa 0,0 l/m² 0,0 km/h (0 Bft) N 0 ° 0 min 0 W/m² 7,5 °C 10,3 °C 0,0 km/h (0 Bft)
30.05.2023 23:09 20,9 °C 10,3 °C 54 % 83 % 1024,3 hPa 0,0 l/m² 1,6 km/h (1 Bft) NW 315 ° 0 min 0 W/m² 7,5 °C 10,3 °C 3,2 km/h (1 Bft)
30.05.2023 23:10 20,9 °C 10,4 °C 54 % 84 % 1024,3 hPa 0,0 l/m² 1,6 km/h (1 Bft) W-SW 247 ° 0 min 0 W/m² 7,8 °C 10,4 °C 3,2 km/h (1 Bft)
30.05.2023 23:11 20,8 °C 10,4 °C 54 % 84 % 1024,3 hPa 0,0 l/m² 1,6 km/h (1 Bft) W-SW 247 ° 0 min 0 W/m² 7,8 °C 10,4 °C 3,2 km/h (1 Bft)
30.05.2023 23:12 20,8 °C 10,6 °C 54 % 84 % 1024,3 hPa 0,0 l/m² 0,0 km/h (0 Bft) W-SW 247 ° 0 min 0 W/m² 8,0 °C 10,6 °C 1,6 km/h (1 Bft)
30.05.2023 23:13 20,8 °C 10,7 °C 54 % 85 % 1024,3 hPa 0,0 l/m² 0,0 km/h (0 Bft) W-SW 247 ° 0 min 0 W/m² 8,3 °C 10,7 °C 1,6 km/h (1 Bft)
30.05.2023 23:14 20,8 °C 10,8 °C 54 % 85 % 1024,3 hPa 0,0 l/m² 1,6 km/h (1 Bft) W-SW 247 ° 0 min 0 W/m² 8,4 °C 10,8 °C 3,2 km/h (1 Bft)
30.05.2023 23:15 20,8 °C 10,9 °C 54 % 84 % 1024,3 hPa 0,0 l/m² 1,6 km/h (1 Bft) W-SW 247 ° 0 min 0 W/m² 8,3 °C 10,9 °C 1,6 km/h (1 Bft)
30.05.2023 23:16 20,8 °C 11,1 °C 54 % 84 % 1024,3 hPa 0,0 l/m² 1,6 km/h (1 Bft) W-SW 247 ° 0 min 0 W/m² 8,5 °C 11,1 °C 3,2 km/h (1 Bft)
30.05.2023 23:17 20,8 °C 11,1 °C 54 % 83 % 1024,3 hPa 0,0 l/m² 3,2 km/h (1 Bft) W-SW 247 ° 0 min 0 W/m² 8,3 °C 11,1 °C 3,2 km/h (1 Bft)
30.05.2023 23:18 20,8 °C 11,1 °C 54 % 83 % 1024,3 hPa 0,0 l/m² 1,6 km/h (1 Bft) W-SW 247 ° 0 min 0 W/m² 8,3 °C 11,1 °C 3,2 km/h (1 Bft)
30.05.2023 23:19 20,8 °C 11,2 °C 54 % 83 % 1024,3 hPa 0,0 l/m² 1,6 km/h (1 Bft) W-SW 247 ° 0 min 0 W/m² 8,4 °C 11,2 °C 3,2 km/h (1 Bft)
30.05.2023 23:20 20,8 °C 11,2 °C 54 % 83 % 1024,3 hPa 0,0 l/m² 3,2 km/h (1 Bft) W-SW 247 ° 0 min 0 W/m² 8,4 °C 11,2 °C 4,8 km/h (1 Bft)
30.05.2023 23:21 20,8 °C 11,2 °C 54 % 83 % 1024,3 hPa 0,0 l/m² 3,2 km/h (1 Bft) W-SW 247 ° 0 min 0 W/m² 8,4 °C 11,2 °C 4,8 km/h (1 Bft)
30.05.2023 23:22 20,8 °C 11,2 °C 54 % 82 % 1024,4 hPa 0,0 l/m² 1,6 km/h (1 Bft) W-SW 247 ° 0 min 0 W/m² 8,2 °C 11,2 °C 3,2 km/h (1 Bft)
30.05.2023 23:23 20,8 °C 11,2 °C 54 % 82 % 1024,4 hPa 0,0 l/m² 3,2 km/h (1 Bft) W-SW 247 ° 0 min 0 W/m² 8,2 °C 11,2 °C 3,2 km/h (1 Bft)
30.05.2023 23:24 20,8 °C 11,2 °C 54 % 82 % 1024,4 hPa 0,0 l/m² 0,0 km/h (0 Bft) W-SW 247 ° 0 min 0 W/m² 8,2 °C 11,2 °C 3,2 km/h (1 Bft)
30.05.2023 23:25 20,8 °C 11,2 °C 54 % 81 % 1024,4 hPa 0,0 l/m² 0,0 km/h (0 Bft) W-SW 247 ° 0 min 0 W/m² 8,1 °C 11,2 °C 1,6 km/h (1 Bft)
30.05.2023 23:26 20,8 °C 11,2 °C 54 % 81 % 1024,4 hPa 0,0 l/m² 0,0 km/h (0 Bft) W-SW 247 ° 0 min 0 W/m² 8,1 °C 11,2 °C 1,6 km/h (1 Bft)
30.05.2023 23:27 20,8 °C 11,2 °C 54 % 80 % 1024,4 hPa 0,0 l/m² 1,6 km/h (1 Bft) W-SW 247 ° 0 min 0 W/m² 7,9 °C 11,2 °C 3,2 km/h (1 Bft)
30.05.2023 23:28 20,8 °C 11,1 °C 54 % 80 % 1024,4 hPa 0,0 l/m² 1,6 km/h (1 Bft) W-SW 247 ° 0 min 0 W/m² 7,8 °C 11,1 °C 3,2 km/h (1 Bft)
30.05.2023 23:29 20,8 °C 11,1 °C 54 % 80 % 1024,4 hPa 0,0 l/m² 0,0 km/h (0 Bft) W-SW 247 ° 0 min 0 W/m² 7,8 °C 11,1 °C 1,6 km/h (1 Bft)
30.05.2023 23:30 20,8 °C 10,9 °C 54 % 80 % 1024,4 hPa 0,0 l/m² 0,0 km/h (0 Bft) N 0 ° 0 min 0 W/m² 7,6 °C 10,9 °C 0,0 km/h (0 Bft)
30.05.2023 23:31 20,8 °C 10,7 °C 54 % 80 % 1024,4 hPa 0,0 l/m² 0,0 km/h (0 Bft) N 0 ° 0 min 0 W/m² 7,4 °C 10,7 °C 0,0 km/h (0 Bft)
30.05.2023 23:32 20,8 °C 10,5 °C 54 % 80 % 1024,4 hPa 0,0 l/m² 0,0 km/h (0 Bft) N 0 ° 0 min 0 W/m² 7,2 °C 10,5 °C 0,0 km/h (0 Bft)
30.05.2023 23:33 20,8 °C 10,4 °C 54 % 81 % 1024,4 hPa 0,0 l/m² 0,0 km/h (0 Bft) N 0 ° 0 min 0 W/m² 7,3 °C 10,4 °C 0,0 km/h (0 Bft)
30.05.2023 23:34 20,8 °C 10,3 °C 54 % 81 % 1024,4 hPa 0,0 l/m² 0,0 km/h (0 Bft) W-SW 247 ° 0 min 0 W/m² 7,2 °C 10,3 °C 1,6 km/h (1 Bft)
30.05.2023 23:35 20,8 °C 10,2 °C 54 % 82 % 1024,4 hPa 0,0 l/m² 0,0 km/h (0 Bft) N 0 ° 0 min 0 W/m² 7,3 °C 10,2 °C 0,0 km/h (0 Bft)
30.05.2023 23:36 20,8 °C 10,2 °C 54 % 82 % 1024,3 hPa 0,0 l/m² 1,6 km/h (1 Bft) N 360 ° 0 min 0 W/m² 7,3 °C 10,2 °C 3,2 km/h (1 Bft)
30.05.2023 23:37 20,8 °C 10,3 °C 54 % 83 % 1024,4 hPa 0,0 l/m² 3,2 km/h (1 Bft) N-NW 337 ° 0 min 0 W/m² 7,5 °C 10,3 °C 6,4 km/h (2 Bft)
30.05.2023 23:38 20,8 °C 10,4 °C 54 % 83 % 1024,4 hPa 0,0 l/m² 4,8 km/h (1 Bft) N 360 ° 0 min 0 W/m² 7,6 °C 10,4 °C 8,0 km/h (2 Bft)
30.05.2023 23:39 20,8 °C 10,7 °C 54 % 83 % 1024,4 hPa 0,0 l/m² 3,2 km/h (1 Bft) N 360 ° 0 min 0 W/m² 7,9 °C 10,7 °C 4,8 km/h (1 Bft)
30.05.2023 23:40 20,8 °C 10,9 °C 54 % 83 % 1024,4 hPa 0,0 l/m² 3,2 km/h (1 Bft) N-NW 337 ° 0 min 0 W/m² 8,1 °C 10,9 °C 6,4 km/h (2 Bft)
30.05.2023 23:41 20,8 °C 11,2 °C 54 % 82 % 1024,4 hPa 0,0 l/m² 4,8 km/h (1 Bft) N 360 ° 0 min 0 W/m² 8,2 °C 11,2 °C 6,4 km/h (2 Bft)
30.05.2023 23:42 20,8 °C 11,4 °C 54 % 82 % 1024,4 hPa 0,0 l/m² 6,4 km/h (2 Bft) N 360 ° 0 min 0 W/m² 8,4 °C 11,4 °C 8,0 km/h (2 Bft)
30.05.2023 23:43 20,8 °C 11,7 °C 54 % 81 % 1024,3 hPa 0,0 l/m² 6,4 km/h (2 Bft) N 360 ° 0 min 0 W/m² 8,5 °C 11,7 °C 9,7 km/h (2 Bft)
30.05.2023 23:44 20,8 °C 11,9 °C 54 % 80 % 1024,3 hPa 0,0 l/m² 6,4 km/h (2 Bft) N 360 ° 0 min 0 W/m² 8,6 °C 11,9 °C 9,7 km/h (2 Bft)
30.05.2023 23:45 20,8 °C 12,1 °C 54 % 79 % 1024,4 hPa 0,0 l/m² 4,8 km/h (1 Bft) N-NO 22 ° 0 min 0 W/m² 8,6 °C 12,1 °C 6,4 km/h (2 Bft)
30.05.2023 23:46 20,8 °C 12,3 °C 54 % 78 % 1024,3 hPa 0,0 l/m² 6,4 km/h (2 Bft) N 360 ° 0 min 0 W/m² 8,6 °C 12,3 °C 9,7 km/h (2 Bft)
30.05.2023 23:47 20,8 °C 12,5 °C 54 % 77 % 1024,4 hPa 0,0 l/m² 4,8 km/h (1 Bft) N 360 ° 0 min 0 W/m² 8,6 °C 12,5 °C 8,0 km/h (2 Bft)
30.05.2023 23:48 20,8 °C 12,7 °C 54 % 77 % 1024,3 hPa 0,0 l/m² 4,8 km/h (1 Bft) N 360 ° 0 min 0 W/m² 8,8 °C 12,7 °C 6,4 km/h (2 Bft)
30.05.2023 23:49 20,8 °C 12,8 °C 54 % 76 % 1024,3 hPa 0,0 l/m² 3,2 km/h (1 Bft) N-NW 337 ° 0 min 0 W/m² 8,7 °C 12,8 °C 4,8 km/h (1 Bft)
30.05.2023 23:50 20,8 °C 13,1 °C 54 % 75 % 1024,4 hPa 0,0 l/m² 6,4 km/h (2 Bft) N 360 ° 0 min 0 W/m² 8,8 °C 13,1 °C 11,3 km/h (2 Bft)
30.05.2023 23:51 20,8 °C 13,1 °C 54 % 74 % 1024,4 hPa 0,0 l/m² 4,8 km/h (1 Bft) N-NW 337 ° 0 min 0 W/m² 8,6 °C 13,1 °C 8,0 km/h (2 Bft)
30.05.2023 23:52 20,8 °C 13,2 °C 54 % 74 % 1024,5 hPa 0,0 l/m² 4,8 km/h (1 Bft) N-NW 337 ° 0 min 0 W/m² 8,7 °C 13,2 °C 6,4 km/h (2 Bft)
30.05.2023 23:53 20,8 °C 13,3 °C 54 % 74 % 1024,5 hPa 0,0 l/m² 3,2 km/h (1 Bft) N-NW 337 ° 0 min 0 W/m² 8,8 °C 13,3 °C 6,4 km/h (2 Bft)
30.05.2023 23:54 20,8 °C 13,3 °C 54 % 73 % 1024,5 hPa 0,0 l/m² 1,6 km/h (1 Bft) N-NW 337 ° 0 min 0 W/m² 8,6 °C 13,3 °C 4,8 km/h (1 Bft)
30.05.2023 23:55 20,8 °C 13,2 °C 54 % 73 % 1024,4 hPa 0,0 l/m² 3,2 km/h (1 Bft) N-NW 337 ° 0 min 0 W/m² 8,5 °C 13,2 °C 4,8 km/h (1 Bft)
30.05.2023 23:56 20,8 °C 13,2 °C 54 % 73 % 1024,4 hPa 0,0 l/m² 4,8 km/h (1 Bft) N-NW 337 ° 0 min 0 W/m² 8,5 °C 13,2 °C 8,0 km/h (2 Bft)
30.05.2023 23:57 20,8 °C 13,2 °C 54 % 73 % 1024,6 hPa 0,0 l/m² 3,2 km/h (1 Bft) NW 315 ° 0 min 0 W/m² 8,5 °C 13,2 °C 8,0 km/h (2 Bft)
30.05.2023 23:58 20,8 °C 13,2 °C 54 % 73 % 1024,5 hPa 0,0 l/m² 3,2 km/h (1 Bft) NW 315 ° 0 min 0 W/m² 8,5 °C 13,2 °C 4,8 km/h (1 Bft)
30.05.2023 23:59 20,8 °C 13,1 °C 54 % 73 % 1024,4 hPa 0,0 l/m² 3,2 km/h (1 Bft) N-NW 337 ° 0 min 0 W/m² 8,4 °C 13,1 °C 4,8 km/h (1 Bft)
_ Min-Zeit 04:41 04:57 18:23 17:32 00:05 - 23:35 - - - - 04:55 05:10 23:35
Minimum _ 20,2 °C 5,6 °C 50 % 41 % 1022,5 hPa - 0,0 km/h (0 Bft) - - - - 2,6 °C 5,4 °C 0,0 km/h (0 Bft)
_ Max-Zeit 15:42 17:31 05:30 07:13 10:49 23:59 15:29 - - 10:06 13:30 11:23 15:23 13:27
Maximum _ 21,6 °C 22,7 °C 57 % 88 % 1025,0 hPa 0,0 l/m² 18,3 km/h
N (3 Bft)
- - 3 min 947 W/m² 10,4 °C 22,5 °C 27,4 km/h
NW (5 Bft)
Durchschnitt _ 20,9 °C 14,7 °C 54 % 64 % 1023,8 hPa #0,0 l/m² 5,1 km/h (1 Bft) N - #13:02 h 333 W/m² 7,4 °C 14,3 °C 9,2 km/h (2 Bft)
© 2009 Mathias Hoßbach